     2.11           OBSERVATION DATA    G (GPS)             RINEX VERSION / TYPE
teqc 2010Oct21 OPUS Account 20111024 23:34:50UTC            PGM / RUN BY / DATE
AUSTIN CE                                                   MARKER NAME
3006                                                        MARKER NUMBER
CSMIDDLETON NGS                                             OBSERVER / AGENCY
0220390632 TRIMBLE R7 2.28                                  REC # / TYPE / VERS
60183425 TRM41249.00 NONE                                   ANT # / TYPE
  -742248.0172 -5462591.1668  3197288.1793                  APPROX POSITION XYZ
        2.0010        0.0000        0.0000                  ANTENNA: DELTA H/E/N
     1     1                                                WAVELENGTH FACT L1/2
     5    L1    L2    C1    P1    P2                        # / TYPES OF OBSERV
    15                                                      LEAP SECONDS
  2011     7    22    16    19    0.0000000     GPS         TIME OF FIRST OBS
                                                            END OF HEADER
 11  7 22 16 19  0.0000000  0  6G03G06G13G16G20G32
    -51691.81257    -31533.14155  22181604.6484                   22181603.4804
    -28818.47757    -18739.88354  22556903.5394                   22556902.1254
    -55808.19157    -31986.55154  22284227.0164                   22284224.8714
     34294.94557     12158.71156  20451346.6334                   20451344.0204
     56637.89557     23323.71555  21766237.4774                   21766236.2934
     73964.02057     31216.86355  22457828.4924   22457827.8204
 11  7 22 16 19 30.0000000  0  7G03G06G13G16G20G23G32
   -119508.93047    -84377.62145  22168699.6484                   22168698.2814
    -67155.98847    -48613.24644  22549608.0234                   22549607.3164
   -128518.07847    -88643.59444  22270390.6414                   22270388.8674
     76925.41047     45377.23046  20459459.0474                   20459456.1134
    129034.91047     79736.92645  21780014.6254                   21780012.9104
    -69365.59447    -49251.16846  20597157.3204                   20597153.1954
    166945.19147    103669.66444  22475522.8204   22475521.3794
 11  7 22 16 20  0.0000000  0  7G03G06G13G16G20G23G32
   -187105.96546   -137050.59844  22155835.7274                   22155834.7734
   -105186.28547    -78247.19944  22542371.6334                   22542370.3674
   -201188.30547   -145269.73444  22256562.2664                   22256560.2934
    120014.94147     78953.47346  20467658.6254                   20467655.8054
    201756.39847    136402.95745  21793853.1024                   21793851.6254
   -108154.41047    -79476.23045  20589776.2664                   20589772.2074
    260107.63347    176263.69544  22493250.5314   22493249.6484
 11  7 22 16 20 30.0000000  0  7G03G06G13G16G20G23G32
   -254246.48446   -189367.85944  22143058.9224                   22143058.6724
   -142673.42646   -107457.94144  22535237.0394                   22535237.4574
   -273583.39147   -201681.50044  22242786.2974                   22242784.0704
    163794.64547    113067.52046  20475990.3204                   20475987.5904
    275033.14847    193501.68845  21807797.3444                   21807795.9024
   -146452.88347   -109319.19945  20582488.2034                   20582483.8674
    353682.39847    249179.03944  22511057.1484   22511057.1134
 11  7 22 16 21  0.0000000  0  7G03G06G13G16G20G23G32
   -320901.28946   -241306.64144  22130375.5234                   22130374.3014
   -179589.30146   -136223.50044  22528212.6644                   22528213.6954
   -345675.27046   -257856.97744  22229067.2034                   22229064.3524
    208288.75847    147738.24246  20484457.2194                   20484453.8324
    348888.19146    251051.03944  21821851.3284                   21821849.3284
   -184233.11347   -138758.34845  20575299.2344                   20575294.7544
    447692.33646    322433.46144  22528946.6024   22528945.6374
 11  7 22 16 21 30.0000000  0  8G03G06G19G13G16G20G23G32
   -387073.90247   -292869.73045  22117783.2814                   22117783.1334
   -215937.76247   -164547.02045  22521295.3674                   22521295.4144
   -116794.19556    -88060.02354  24313467.5474                   24313467.0234
   -417468.57447   -313799.84445  22215405.6484                   22215403.0784
    253488.19548    182958.52746  20493058.0864                   20493055.3054
    423312.55147    309043.95745  21836014.3914                   21836010.9964
   -221499.19948   -167796.90246  20568207.8134                   20568203.4064
    542128.17647    396019.70745  22546916.9304   22546915.8404
 11  7 22 16 22  0.0000000  0  8G03G06G19G13G16G20G23G32
   -452779.69947   -344069.03545  22105280.4614                   22105279.6844
   -251734.98447   -192440.94545  22514483.7034                   22514482.8914
   -198543.08246   -151760.46543  24297912.2274                   24297910.9184
   -488979.83647   -369522.89145  22201797.3204                   22201794.1524
    299372.63348    218712.61346  20501789.9694                   20501786.9144
    498284.53547    367463.65245  21850280.5634                   21850278.2974
   -258267.43048   -196447.48846  20561210.8444                   20561206.4104
    636969.02347    469921.59045  22564964.6644   22564963.9064
 11  7 22 16 22 30.0000000  0  8G03G06G19G13G16G20G23G32
   -518024.51647   -394909.10945  22092864.3284                   22092863.8244
   -286987.64547   -219910.53945  22507774.8054                   22507774.6374
   -280201.88747   -215390.69144  24282372.5634                   24282371.3914
   -560216.02047   -425031.58645  22188241.3204                   22188238.9144
    345931.37148    254992.12546  20510649.1804                   20510646.3244
    573792.54747    426301.03545  21864649.1094                   21864647.6454
   -294544.48048   -224715.31246  20554307.4534                   20554303.5864
    732202.95348    544129.77045  22583087.3594   22583087.3054
 11  7 22 16 23  0.0000000  0  8G03G06G19G13G16G20G23G32
   -582827.61347   -445405.01245  22080532.6024                   22080531.9574
   -321715.76247   -246971.38345  22501166.5314                   22501166.1764
   -361790.66447   -278966.29744  24266847.2504                   24266845.8754
   -631197.68447   -480341.96545  22174734.1174                   22174731.4614
    393139.60948    291777.75046  20519632.9614                   20519629.7114
    649811.44547    485536.49645  21879115.1954                   21879113.4884
   -330350.94948   -252616.48046  20547493.8594                   20547489.5984
    827804.60548    618624.48445  22601279.4614   22601279.4574
 11  7 22 16 23 30.0000000  0  8G03G06G19G13G16G20G23G32
   -647190.59447   -495557.93745  22068284.1954                   22068284.3444
   -355922.01647   -273625.59845  22494657.5164                   22494656.9654
   -443311.44547   -342488.96943  24251333.7584                   24251332.3244
   -701927.36747   -535455.98045  22161274.3364                   22161271.6374
    440990.31348    329063.96546  20528738.6024                   20528735.5204
    726333.32047    545163.88745  21893677.1724                   21893675.2304
   -365689.34848   -280152.89146  20540769.0864                   20540764.5634
    923766.59848    693399.98445  22619540.6804   22619540.1484
 11  7 22 16 24  0.0000000  0  8G03G06G19G13G16G20G23G32
   -711123.62547   -545375.86345  22056118.4534                   22056117.7664
   -389616.71947   -299881.16445  22488245.6174                   22488244.6134
   -524774.27346   -405966.44543  24235832.1174                   24235829.9224
   -772416.26647   -590382.37945  22147861.0234                   22147858.3954
    489468.42648    366839.09847  20537963.8364                   20537961.0554
    803342.74247    605171.15645  21908331.5554                   21908329.6844
   -400570.31248   -307332.88746  20534131.6094                   20534126.8444
   1020073.40647    768444.18045  22637867.4924   22637866.3914
 11  7 22 16 24 30.0000000  0  8G03G06G19G13G16G20G23G32
   -774625.50847   -594857.82845  22044034.4924                   22044033.8834
   -422800.14547   -325738.36345  22481931.0084                   22481929.9534
   -606178.54346   -469398.30944  24220341.3364                   24220339.5634
   -842664.76647   -645121.45745  22134493.3284                   22134491.0394
    538569.53148    405099.69147  20547307.3444                   20547304.6054
    880834.43847    665554.24645  21923077.6414                   21923075.6334
   -434994.03948   -334156.57846  20527581.0634                   20527576.2274
   1116719.69147    843752.90645  22656258.8754   22656258.4614
 11  7 22 16 25  0.0000000  0  8G03G06G19G13G16G20G23G32
   -837696.44947   -644003.97745  22032031.7894                   22032031.5474
   -455472.89547   -351197.61745  22475713.0554                   22475712.5944
   -687524.94546   -532785.06243  24204860.6024                   24204859.7074
   -912673.83247   -699673.98445  22121170.6174                   22121168.3954
    588288.06348    443841.38346  20556768.5864                   20556765.4264
    958802.47347    726308.49245  21937914.1484                   21937912.8364
   -468962.02748   -360625.14846  20521117.0634                   20521112.4144
   1213699.31647    919321.36745  22674713.8364   22674712.4384
 11  7 22 16 25 30.0000000  0  8G03G06G19G13G16G20G23G32
   -900339.12147   -692816.42645  22020111.6564                   22020111.4494
   -487638.55547   -376261.73045  22469592.6174                   22469591.3954
   -768816.18746   -596128.80544  24189390.2894                   24189391.1484
   -982447.14147   -754042.78545  22107893.4064                   22107890.8714
    638616.65248    483058.44546  20566345.9924                   20566343.2384
   1037237.84447    787426.93445  21952840.1484                   21952838.6294
   -502477.23448   -386740.89546  20514739.6804                   20514734.5824
   1311004.30947    995143.35244  22693230.3444   22693229.0124
 11  7 22 16 26  0.0000000  0  8G03G06G19G13G16G20G23G32
   -962562.81647   -741302.39145  22008270.9224                   22008270.1054
   -519307.27047   -400938.65245  22463566.2974                   22463565.1564
   -850062.02346   -659437.15643  24173929.8674                   24173930.1644
  -1051994.98047   -808235.86345  22094658.5784                   22094656.7544
    689540.21548    522739.14146  20576036.0864                   20576033.5554
   1116125.84047    848898.03546  21967852.4454                   21967851.3674
   -535550.09448   -412511.96146  20508445.9694                   20508440.5354
   1408619.20347   1071206.84444  22711805.8364   22711804.6994
 11  7 22 16 26 30.0000000  0  8G03G06G19G13G16G20G23G32
  -1024363.48447   -789458.72745  21996510.6644                   21996509.9064
   -550475.84047   -425225.81645  22457634.9064                   22457634.8164
   -931258.64546   -722707.18043  24158478.9064                   24158478.9264
  -1121314.60247   -862251.15245  22081468.1254                   22081466.2774
    741057.59448    562882.53146  20585839.8674                   20585837.0004
   1195464.58647    910720.39845  21982950.0234                   21982948.7504
   -568177.62548   -437936.01646  20502237.0164                   20502231.8984
   1506542.25447   1147510.42244  22730439.7114   22730439.5824
 11  7 22 16 27  0.0000000  0  8G03G06G19G13G16G20G23G32
  -1085740.94547   -837285.29745  21984831.5164                   21984830.3484
   -581144.90247   -449123.78145  22451798.6884                   22451798.5084
  -1012406.20746   -785938.96544  24143037.4304                   24143037.1484
  -1190406.58647   -916089.06645  22068320.4614                   22068317.6684
    793163.60548    603484.60246  20595754.8754                   20595752.5784
   1275247.97347    972889.22345  21998131.8984                   21998130.8014
   -600360.62148   -463013.68746  20496113.0474                   20496108.3444
   1604767.49647   1224049.49644  22749131.1954   22749131.4304
 11  7 22 16 27 30.0000000  0  8G03G06G19G13G16G20G23G32
  -1146699.12547   -884785.14145  21973230.7424                   21973230.1684
   -611319.42647   -472636.36345  22446056.4614                   22446056.4734
  -1093508.98846   -849135.85943  24127604.4534                   24127603.5084
  -1259275.92247   -969753.48045  22055215.0554                   22055212.1644
    845848.86348    644538.03546  20605780.7194                   20605777.7194
   1355465.82847   1035396.56645  22013397.3754                   22013395.4924
   -632103.85248   -487748.67646  20490072.3204                   20490068.0314
   1703285.39147   1300816.58643  22767878.7814   22767878.4844
 11  7 22 16 28  0.0000000  0  8G03G06G19G13G16G20G23G32
  -1207229.90247   -931951.95345  21961712.4384                   21961711.6994
   -640991.59447   -495757.50845  22440410.0164                   22440409.5314
  -1174558.85946   -912291.52743  24112181.3204                   24112178.8714
  -1327914.97747  -1023238.42645  22042153.6254                   22042150.5124
    899116.49648    686045.27046  20615916.9614                   20615914.3714
   1436120.95747   1098244.68045  22028745.5704                   22028743.5864
   -663400.00848   -512135.29746  20484116.5944                   20484112.3954
   1802098.40246   1377813.69943  22786682.1334   22786681.6024
 11  7 22 16 28 30.0000000  0  8G03G06G19G13G16G20G23G32
  -1267333.19947   -978785.65245  21950274.3204                   21950274.4224
   -670162.78147   -518488.27045  22434858.5004                   22434857.4844
  -1255556.31246   -975406.35543  24096767.5164                   24096765.3134
  -1396325.50448  -1076545.33245  22029135.6724                   22029132.4774
    952961.03148    728002.03146  20626163.5474                   20626160.3244
   1517207.30947   1161428.83245  22044175.5554                   22044174.7074
   -694250.43748   -536174.60946  20478245.6954                   20478241.7894
   1901200.46946   1455035.98043  22805541.5164   22805540.6604
 11  7 22 16 29  0.0000000  0  8G03G06G19G13G16G20G23G32
  -1327006.85247  -1025284.58645  21938919.7584                   21938918.9694
   -698831.32047   -540827.37945  22429404.3444                   22429402.8554
  -1336498.94546  -1038478.46143  24081363.9844                   24081362.1214
  -1464506.09048  -1129673.05545  22016160.5164                   22016157.4144
   1007379.38348    770405.93446  20636519.0234                   20636515.7624
   1598721.18447   1224946.07445  22059687.2504                   22059686.1454
   -724653.35548   -559865.19946  20472460.1564                   20472456.3954
   2000587.99246   1532480.71943  22824453.0554   22824453.6024
 11  7 22 16 29 30.0000000  0  8G03G06G19G13G16G20G23G32
  -1386254.83647  -1071451.78145  21927644.5704                   21927644.3634
   -727002.17647   -562778.65245  22424042.9304                   22424042.1884
  -1417391.05146  -1101511.14843  24065970.6484                   24065969.3484
  -1532461.20347  -1182625.06645  22003229.3054                   22003226.0984
   1062362.25448    813249.70346  20646982.0004                   20646978.6684
   1680652.57047   1288788.66445  22075277.9384                   22075276.7114
   -754613.59448   -583210.84846  20466759.2894                   20466754.7934
   2100251.23846   1610140.28143  22843419.0234   22843419.4654
 11  7 22 16 30  0.0000000  0  8G03G06G19G13G16G20G23G32
  -1445072.98847  -1117284.07445  21916452.2974                   21916450.8594
   -754671.92647   -584339.48045  22418777.8284                   22418776.4654
  -1498228.83646  -1164501.50844  24050588.1094                   24050586.3714
  -1600187.44548  -1235398.74645  21990341.4844                   21990338.4344
   1117908.55148    856532.52346  20657552.1254                   20657548.9574
   1762999.60547   1352955.11345  22090948.5784                   22090946.5354
   -784128.05948   -606209.14146  20461142.8594                   20461138.0274
   2200188.74246   1688013.61342  22862437.2734   22862436.4454
 11  7 22 16 30 30.0000000  0  8G03G06G19G13G16G20G23G32
  -1503461.26247  -1162781.39845  21905341.4614                   21905340.1454
   -781841.70747   -605510.72345  22413607.4064                   22413607.1844
  -1579011.98046  -1227449.27743  24035214.7274                   24035214.7114
  -1667685.79748  -1287994.87145  21977496.9844                   21977494.2384
   1174012.46148    900249.83646  20668228.5634                   20668225.9454
   1845756.31347   1417440.79745  22106696.5474                   22106694.5514
   -813197.92248   -628860.99246  20455611.4454                   20455606.7424
   2300394.09046   1766095.70342  22881505.6174   22881505.6644
 11  7 22 16 31  0.0000000  0  8G03G06G19G13G16G20G23G32
  -1561430.30147  -1207952.03145  21894310.0864                   21894308.9104
   -808522.65247   -626301.05945  22408530.2734                   22408529.6054
  -1659751.66046  -1290363.21144  24019851.4064                   24019850.5984
  -1734968.16047  -1340422.66445  21964693.7194                   21964690.9924
   1230658.71548    944389.76646  20679007.5784                   20679004.7544
   1928906.20747   1482232.87145  22122519.5084                   22122517.5784
   -841834.23848   -651175.02346  20450162.0554                   20450157.4144
   2400851.47345   1844374.15642  22900621.9924   22900621.0274
 11  7 22 16 31 30.0000000  0  8G03G06G19G13G16G20G23G32
  -1618970.73047  -1252788.70745  21883360.7274                   21883359.5204
   -834706.64847   -646704.16045  22403547.9454                   22403547.1134
  -1740438.61346  -1353236.08244  24004497.6484                   24004496.4104
  -1802026.04748  -1392675.56245  21951933.3834                   21951930.8754
   1287850.97348    988955.13746  20689891.0164                   20689888.1294
   2012452.57447   1547333.89845  22138418.1954                   22138416.1524
   -870029.12548   -673145.07046  20444796.4224                   20444792.2424
   2501564.070 5                  22919785.258
 11  7 22 16 32  0.0000000  0  8G03G06G19G13G16G20G23G32
  -1676091.38347  -1297298.28145  21872490.3834                   21872489.8134
   -860403.31247   -666727.50445  22398657.2194                   22398657.0634
  -1821081.41446  -1416074.55944  23989151.2424                   23989150.4224
  -1868868.75448  -1444760.77745  21939213.3984                   21939211.1294
   1345574.90248   1033934.81346  20700875.5944                   20700871.9734
   2096380.75047   1612732.39845  22154388.7974                   22154386.7344
   -897791.91048   -694778.42246  20439513.4614                   20439509.5864
   2602517.40614                  22938996.914
 11  7 22 16 32 30.0000000  0  8G03G06G19G13G16G20G23G32
  -1732792.44547  -1341480.88345  21861700.9924                   21861699.7304
   -885614.09447   -686372.25845  22393860.1884                   22393858.5784
  -1901680.82846  -1478879.23444  23973812.9064                   23973813.2704
  -1935497.73048  -1496679.43745  21926534.1174                   21926532.1094
   1403824.71148   1079324.25846  20711960.1334                   20711957.3484
   2180684.32847   1678423.47745  22170431.1254                   22170429.2934
   -925124.13348   -716076.26246  20434311.8674                   20434307.7274
   2703705.09014                  22958249.391
 11  7 22 16 33  0.0000000  0  8G03G06G19G13G16G20G23G32
  -1789074.45347  -1385336.95745  21850991.0004                   21850989.9804
   -910340.03147   -705639.20745  22389154.9454                   22389154.0044
  -1982237.20747  -1541650.36344  23958484.3674                   23958483.9264
  -2001914.14548  -1548432.46145  21913895.4694                   21913894.0434
   1462594.71548   1125119.04746  20723143.6414                   20723141.0474
   2265356.73047   1744401.91845  22186544.6644                   22186541.9264
   -952026.73048   -737039.31646  20429192.8524                   20429188.5084
   2805120.96514                  22977549.477
 11  7 22 16 33 30.0000000  0  8G03G06G19G13G16G20G23G32
  -1844932.68047  -1428862.81645  21840361.3134                   21840360.7074
   -934577.26247   -724525.34045  22384543.1644                   22384541.6454
  -2062745.95746  -1604384.31644  23943163.9844                   23943163.3134
  -2068113.94148  -1600016.69145  21901298.2974                   21901295.9924
   1521884.54748   1171318.90246  20734426.4064                   20734423.1604
   2350397.53147   1810667.43445  22202727.2424                   22202725.3444
   -978495.96948   -757664.70346  20424155.8284                   20424151.1684
   2906764.56315                  22996895.992
 11  7 22 16 34  0.0000000  0  8G03G06G19G13G16G20G23G32
  -1900368.11747  -1472059.19945  21829812.2194                   21829810.6094
   -958328.00847   -743032.37945  22380023.0084                   22380021.8794
  -2143208.64546  -1667082.40644  23927852.6484                   23927851.0124
  -2134098.95747  -1651433.55945  21888741.3674                   21888738.8794
   1581687.52748   1217918.61746  20745806.4144                   20745803.1294
   2435799.16047   1877214.09845  22218978.7194                   22218976.8524
  -1004533.69948   -777953.84046  20419201.4844                   20419196.6724
                                  23016279.734
 11  7 22 16 34 30.0000000  0  8G03G06G19G13G16G20G23G32
  -1955373.96547  -1514920.87145  21819344.8984                   21819343.7034
   -981586.25047   -761155.66445  22375597.2034                   22375596.4574
  -2223617.84047  -1729738.84044  23912551.2114                   23912550.3014
  -2199863.18748  -1702678.40645  21876226.8364                   21876224.1254
   1642005.19548   1264919.36746  20757284.2814                   20757281.2114
   2521562.52047   1944042.66045  22235298.9614                   22235296.6914
  -1030134.17248   -797902.26646  20414329.5314                   20414325.0514
   3110714.13714                  23035704.375
 11  7 22 16 35  0.0000000  0  8G03G06G19G13G16G07G20G23
  -2009947.61347  -1557445.76645  21808959.4694                   21808957.9844
  -1004350.57447   -778894.07045  22371265.9534                   22371264.6454
  -2303971.17647  -1792351.71144  23897260.0314                   23897258.6604
  -2265404.95348  -1753749.90245  21863754.5004                   21863751.9024
   1702834.42648   1312318.76646  20768860.2034                   20768856.7584
   -156530.96515                  24317916.047
   2607684.20747   2011150.40645  22251686.7664                   22251684.3954
  -1055295.75448   -817508.69946  20409541.4144                   20409536.8984
 11  7 22 16 35 30.0000000  0  8G03G06G19G13G16G07G20G23
  -2064097.59447  -1599640.53145  21798654.5084                   21798654.5234
  -1026630.42247   -796254.95745  22367025.5554                   22367024.6294
  -2384277.09046  -1854927.66844  23881978.6094                   23881976.3754
  -2330733.52748  -1804655.29345  21851323.1254                   21851320.4734
   1764161.46948   1360106.04746  20780529.8834                   20780527.2504
   -205787.672 5                  24308542.070
   2694149.44147   2078525.86345  22268140.6414                   22268138.5784
  -1080028.00448   -836780.59047  20404835.2504                   20404830.5314
 11  7 22 16 36  0.0000000  0  9G03G06G19G13G16G07G20G23G32
  -3693239.75047  -2869101.91445  21488639.5004
                                  21488639.2934
  -2623841.69147  -2040835.14545  22063086.7734                   22063085.7934
  -4039952.57446  -3145064.29344  23566913.6094                   23566911.7384
  -3971265.81248  -3082992.10945  21539140.0864                   21539138.4264
    250568.76248    180683.16046  20492502.7814                   20492499.9494
  -1830386.75414                  23999391.906
   1205541.20747    918571.33245  21984867.8754                   21984866.4104
  -2679746.56648  -2083314.53946  20100418.9614   20100414.1604   22794436.016
 11  7 22 16 36 30.0000000  0  8G03G06G19G13G16G20G23G32
  -3746535.80947  -2910631.28545  21478497.4924                   21478497.5004
  -2645149.21147  -2057438.38345  22059031.2664                   22059030.1254
  -4120157.30946  -3207561.37544  23551650.5394                   23551649.2384
  -4036163.40648  -3133561.63745  21526790.5864                   21526788.2154
    312881.71548    229238.68446  20504360.8054                   20504358.4534
   1292682.93847    986473.91045  22001450.6724                   22001449.6024
  -2703615.84848  -2101913.98846  20095876.6954                   20095872.2194
  -1335634.64515                                                  22814020.484
 11  7 22 16 37  0.0000000  0  7G03G06G19G13G16G20G23
  -3799404.48447  -2951827.60945  21468437.4304                   21468436.3914
  -2665971.22747  -2073663.31245  22055069.3364                   22055067.6764
  -4200310.77046  -3270018.52744  23536397.9064                   23536396.2664
  -4100845.96548  -3183963.60945  21514481.6884                   21514479.1414
    375680.26248    278172.60246  20516310.5704                   20516308.1294
   1380154.75047   1054633.72745  22018096.1094                   22018094.7584
  -2727054.22348  -2120177.65646  20091416.6414                   20091411.8594
 11  7 22 16 37 30.0000000  0  7G03G06G19G13G16G20G23
  -3851844.21947  -2992689.70745  21458458.7974                   21458457.6844
  -2686307.04347  -2089509.39145  22051199.1884                   22051198.7234
  -4280410.93746  -3332434.13744  23521155.7194                   23521153.0594
  -4165312.44148  -3234197.24645  21502214.0554                   21502210.9774
    438960.50048    327481.86746  20528352.3674                   20528349.7304
   1467952.19547   1123047.26245  22034803.2584                   22034802.0234
  -2750060.99248  -2138105.00846  20087038.2814                   20087033.8014
 11  7 22 16 38  0.0000000  0  7G03G06G19G13G16G20G23
  -3903848.77047  -3033212.70745  21448561.8914                   21448561.6914
  -2706152.11347  -2104973.06245  22047423.0394                   22047422.0824
  -4360452.08246  -3394803.76644  23505924.0004                   23505922.3484
  -4229557.96948  -3284258.66045  21489988.3204                   21489985.3014
    502722.87548    377166.83246  20540486.1254                   20540483.2424
   1556075.17647   1191714.47745  22051572.7114                   22051571.2344
  -2772631.31248  -2155692.28147  20082743.6024                   20082738.5864
 11  7 22 16 38 30.0000000  0  8G03G06G19G13G16G07G20G23
  -3955420.19547  -3073398.22345  21438748.4774                   21438746.6884
  -2725509.08647  -2120056.40645  22043739.3204                   22043738.0314
  -4440436.25846  -3457129.00044  23490703.8524                   23490701.3714
  -4293584.40647  -3334149.35945  21477804.7664                   21477801.0944
    566959.82448    427221.59446  20552709.8914                   20552706.9224
  -1629802.566 5                  23952800.227
   1644515.85947   1260629.24245  22068402.3054                   22068400.8324
  -2794768.05548  -2172941.69946  20078531.1024                   20078526.6174
 11  7 22 16 39  0.0000000  0  8G03G06G19G13G16G07G20G23
  -4006554.77747  -3113243.33245  21429017.7664                   21429016.6214
  -2744375.45747  -2134757.48445  22040149.3134                   22040147.8834
  -4520359.46946  -3519406.74644  23475494.2584                   23475493.1644
  -4357389.03148  -3383867.26645  21465663.2894                   21465659.6254
    631670.05548    477645.12546  20565024.5314                   20565020.9804
  -1678566.61345  -1515584.15653  23943520.2274                   23943518.1884
   1733272.25047   1329790.02045  22085292.4454                   22085290.9344
  -2816468.03548  -2189850.79746  20074401.7504                   20074397.0004
 11  7 22 16 39 30.0000000  0  8G03G06G19G13G16G07G20G23
  -4057244.65247  -3152741.90645  21419371.8284                   21419370.5824
  -2762744.44947  -2149070.96545  22036653.6024                   22036653.1334
  -4600213.68746  -3581630.74644  23460298.4774                   23460297.2624
  -4420964.56648  -3433406.64545  21453565.2034                   21453561.7734
    696855.92648    528439.29346  20577428.5314                   20577425.5704
  -1727260.02046  -1553527.04742  23934254.7504                   23934252.3954
   1822345.98047   1399198.06645  22102242.3444                   22102240.9104
  -2837724.42648  -2206414.22346  20070356.3524                   20070351.9614
 11  7 22 16 40  0.0000000  0  8G03G06G19G13G16G07G20G23
  -4107487.70347  -3191892.29745  21409811.3674                   21409810.1884
  -2780614.74247  -2162995.84445  22033253.2734                   22033252.6524
  -4679996.54746  -3643799.07844  23445115.9614                   23445115.5044
  -4484309.44548  -3482766.26645  21441510.8754                   21441508.6374
    762514.21548    579601.57046  20589923.0944                   20589919.6294
  -1775883.87546  -1591415.73042  23925001.1804                   23924999.1844
   1911733.64147   1468850.71545  22119252.2894                   22119249.9884
  -2858535.84448  -2222630.90247  20066396.1564                   20066391.4574
 11  7 22 16 40 30.0000000  0  8G03G06G19G13G16G07G20G23
  -4157287.36347  -3230697.19946  21400334.4384                   21400333.6214
  -2797990.84447  -2176535.61745  22029946.1024                   22029945.6174
  -4759710.85546  -3705914.04344  23429947.3984                   23429945.3204
  -4547427.54348  -3531949.19145  21429499.8524                   21429497.0004
    828636.19948    631125.17646  20602505.5474                   20602502.7704
  -1824445.12546  -1629255.58242  23915759.7274                   23915757.8324
   2001425.49247   1538740.42245  22136320.3054                   22136318.7774
  -2878906.70748  -2238504.30947  20062520.4304                   20062515.1914
 11  7 22 16 41  0.0000000  0  8G03G06G19G13G16G07G20G23
  -4206638.97347  -3269152.96945  21390942.7114                   21390942.1764
  -2814869.15247  -2189687.52345  22026734.5084                   22026733.3874
  -4839352.27346  -3767972.18444  23414792.1094                   23414789.7624
  -4610314.97348  -3580952.37145  21417532.6724                   21417530.3984
    895220.66048    683009.17646  20615175.7114                   20615173.4494
  -1872942.15246  -1667045.46542  23906530.4694                   23906529.4064
   2091420.66848   1608866.47745  22153446.0084                   22153444.9734
  -2898833.30948  -2254031.54747  20058728.5084                   20058723.1994
 11  7 22 16 41 30.0000000  0  8G03G06G19G13G16G07G20G23
  -4255538.42247  -3307256.41845  21381637.6884                   21381636.8444
  -2831246.73847  -2202449.27045  22023617.9454                   22023616.3754
  -4918916.64847  -3829970.29744  23399652.2344                   23399650.1414
  -4672968.12548  -3629772.99245  21405610.6254                   21405608.6054
    962266.76248    735252.87946  20627934.8754                   20627932.5514
  -1921374.24645  -1704784.73442  23897315.3134                   23897313.3984
   2181717.25847   1679227.39545  22170628.6564                   22170627.2464
  -2918312.05548  -2269209.78946  20055021.4454                   20055016.1954
 11  7 22 16 42  0.0000000  0  8G03G06G19G13G16G07G20G23
  -4303989.59847  -3345010.54345  21372417.6884                   21372416.6024
  -2847128.28547  -2214824.50445  22020596.2034                   22020594.7584
  -4998407.06646  -3891910.83244  23384525.0164                   23384523.3834
  -4735390.91848  -3678414.12145  21393731.9224                   21393729.7304
   1029765.48448    787849.27746  20640779.3364                   20640776.4804
  -1969748.61345  -1742479.00442  23888109.7504                   23888107.8164
   2272305.59847   1749815.65645  22187867.1804                   22187866.0084
  -2937347.94948  -2284042.97347  20051398.7504                   20051394.0864
 11  7 22 16 42 30.0000000  0  8G03G06G19G13G16G07G20G23
  -4351985.96947  -3382410.28545  21363284.0004                   21363283.1174
  -2862508.85947  -2226809.32845  22017668.7814                   22017668.1094
  -5077817.52346  -3953789.02744  23369413.7424                   23369412.7304
  -4797578.22348  -3726871.74245  21381897.6644                   21381895.7974
   1097717.03148    840798.52346  20653710.2504                   20653707.2774
  -2018062.57445  -1780126.11342  23878913.5164                   23878914.5594
   2363185.88348   1820631.43045  22205160.8834                   22205159.7624
  -2955935.64548  -2298526.88746  20047861.5234                   20047857.0944
 11  7 22 16 43  0.0000000  0  8G03G06G19G13G16G07G20G23
  -4399529.09847  -3419456.85545  21354237.3914                   21354236.0044
  -2877390.80947  -2238405.64845  22014837.1174                   22014835.7544
  -5157148.89146  -4015605.60544  23354317.8834                   23354315.7584
  -4859531.41448  -3775146.95345  21370108.9454                   21370106.2734
   1166114.63348    894095.32846  20666726.0944                   20666722.7194
  -2066320.37945  -1817729.54742  23869730.7114                   23869731.3014
   2454351.16847   1891669.27345  22222509.1094                   22222508.5554
  -2974077.07048  -2312663.06647  20044409.5704                   20044404.9654
 11  7 22 16 43 30.0000000  0  8G03G06G19G13G16G07G20G23
  -4446622.95747  -3456153.33245  21345275.5234                   21345274.3834
  -2891779.29747  -2249617.43745  22012098.6954                   22012097.7814
  -5236404.84846  -4077363.41444  23339235.5084                   23339234.4774
  -4921255.03148  -3823243.26646  21358363.2274                   21358360.6524
   1234949.39148    947732.79746  20679823.8914                   20679821.2544
  -2114529.60545  -1855295.01242  23860560.1484                   23860556.0474
   2545791.50447   1962921.43845  22239910.0864                   22239908.3754
  -2991777.07048  -2326455.27747  20041041.5314                   20041036.4734
 11  7 22 16 44  0.0000000  0  8G03G06G19G13G16G07G20G23
  -4493258.48447  -3492492.67645  21336401.3134                   21336400.0084
  -2905666.16847  -2260438.34845  22009456.1174                   22009455.9144
  -5315575.78147  -4139054.94145  23324169.3134                   23324168.3134
  -4982740.59448  -3871154.07446  21346662.6174                   21346660.4574
   1304225.01648   1001713.78146  20693007.0474                   20693003.5474
  -2162684.05545  -1892817.96542  23851396.1804                   23851390.1094
   2637510.18447   2034390.45345  22257363.0634                   22257362.1994
  -3009027.32048  -2339897.03947  20037758.9064                   20037753.7114
 11  7 22 16 44 30.0000000  0  8G03G06G19G13G16G07G20G23
  -4539434.08247  -3528473.63745  21327614.0474                   21327612.8554
  -2919051.09047  -2270868.13345  22006909.4844                   22006908.7114
  -5394660.16847  -4200679.05944  23309120.6644                   23309117.6254
  -5043986.92648  -3918878.46946  21335007.6724                   21335005.2974
   1373937.39148   1056035.09846  20706272.8754                   20706270.1884
  -2210785.60244  -1930299.78142  23842238.6174                   23842237.1564
   2729502.75847   2106072.93445  22274868.9924                   22274867.6454
  -3025826.94548  -2352987.66846  20034562.0004                   20034557.2774
 11  7 22 16 45  0.0000000  0  8G03G06G19G13G16G07G20G23
  -4585148.50847  -3564095.23845  21318915.2274                   21318914.5594
  -2931933.92247  -2280906.68445  22004458.4064                   22004456.5164
  -5473656.40246  -4262234.48844  23294087.8834                   23294084.5164
  -5104993.17248  -3966415.77745  21323398.0864                   21323395.6884
   1444082.84048   1110693.87546  20719621.1724                   20719617.9804
  -2258836.16454  -1967741.71552  23833096.0784                   23833093.0314
   2821764.86347   2177965.43445  22292425.7894                   22292425.0514
  -3042176.05148  -2365727.24247  20031450.7814                   20031446.7544
 11  7 22 16 45 30.0000000  0  8G03G06G19G13G16G07G20G23
  -4630398.94147  -3599355.29345  21310303.7664                   21310302.5824
  -2944313.01647  -2290552.71945  22002102.2584                   22002100.4414
  -5552561.39146  -4323718.80544  23279072.4384                   23279070.3054
  -5165756.35548  -4013763.71145  21311835.6884                   21311832.7734
   1514658.47748   1165687.86746  20733051.3284                   20733048.5004
  -2306837.16815                  23823963.563
   2914293.17647   2250065.35945  22310033.7894                   22310032.3984
  -3058072.58648  -2378114.14147  20028425.9614                   20028421.1024
 11  7 22 16 46  0.0000000  0  8G03G06G19G13G16G07G20G23
  -4675186.26647  -3634254.49245  21301781.3054                   21301779.9064
  -2956190.51647  -2299807.87545  21999842.0314                   21999840.7584
  -5631375.38346  -4385132.21544  23264073.8204                   23264073.0634
  -5226278.50448  -4060923.80546  21300318.9694                   21300316.4224
   1585657.79748   1221012.00446  20746562.2974                   20746559.7034
  -2354790.793 5                  23814839.320
   3007081.23447   2322367.68445  22327690.9064                   22327688.8794
  -3073518.20348  -2390149.69547  20025486.5314                   20025481.6484
 11  7 22 16 46 30.0000000  0  8G03G06G19G13G16G07G20G23
  -4719506.77747  -3668789.91846  21293347.9924                   21293345.7344
  -2967563.46147  -2308669.88745  21997677.7974                   21997676.8954
  -5710094.11347  -4446471.39145  23249094.7974                   23249093.1564
  -5286555.93748  -4107893.22346  21288848.9304                   21288846.2544
   1657079.66848   1276665.40246  20760153.0554                   20760150.5274
  -2402697.30915                  23805723.758
   3100126.98847   2394870.81345  22345396.7424                   22345394.7344
  -3088509.76248  -2401831.43747  20022633.9774                   20022629.3914
 11  7 22 16 47  0.0000000  0  8G03G06G19G13G16G07G20G23
  -4763358.02047  -3702959.68745  21285002.9844                   21285002.3134
  -2978430.63347  -2317137.80145  21995609.4924                   21995609.3984
  -5788714.85247  -4507734.19144  23234133.9224                   23234131.5704
  -5346586.24648  -4154670.06646  21277425.3984                   21277423.0124
   1728921.31348   1332645.88746  20773823.8364                   20773821.0434
  -2450557.164 5                  23796614.195
   3193427.42247   2467572.37945  22363151.3914                   22363148.5634
  -3103045.55948  -2413158.03947  20019868.0554                   20019863.1454
 11  7 22 16 47 30.0000000  0  8G03G06G19G13G16G07G20G23
  -4806738.76247  -3736762.81245  21276748.0474                   21276746.3714
  -2988792.18747  -2325211.71945  21993638.3054                   21993637.4224
  -5867236.14147  -4568919.54744  23219191.8674                   23219189.2034
  -5406369.00048  -4201254.02346  21266049.0314                   21266046.0824
   1801178.24248   1388949.97346  20787574.4144                   20787571.4024
  -2498375.84014                  23787511.953
   3286977.37147   2540468.38745  22380952.9774                   22380951.4104
  -3117125.24648  -2424129.22747  20017188.5784                   20017183.8014
 11  7 22 16 48  0.0000000  0  8G03G06G19G13G16G07G20G23
  -4849650.75447  -3770200.71545  21268581.9224                   21268580.6374
  -2998650.93447  -2332893.83645  21991762.5394                   21991761.0394
  -5945659.06246  -4630028.24244  23204268.2344                   23204265.9734
  -5465906.00448  -4247646.47746  21254719.4064                   21254716.7664
   1873843.25048   1445572.02046  20801402.0864                   20801398.4574
  -2546151.89115                  23778423.625
   3380769.66447   2613553.23045  22398801.6414                   22398799.3324
  -3130751.60248  -2434747.16447  20014595.4384                   20014590.8444
 11  7 22 16 48 30.0000000  0  8G03G06G19G13G16G07G20G23
  -4892090.10547  -3803270.32045  21260505.6334                   21260504.6914
  -3008003.53147  -2340181.54345  21989982.3204                   21989981.2734
  -6023979.03946  -4691056.73844  23189363.6414                   23189362.3524
  -5525193.22748  -4293844.31246  21243437.5864                   21243435.1174
   1946915.55948   1502511.47746  20815307.3674                   20815303.7664
  -2593886.926 6                  23769341.703
   3474802.80147   2686825.73045  22416695.2424                   22416693.6094
  -3143921.10948  -2445009.12547  20012089.1724                   20012084.7464
 11  7 22 16 49  0.0000000  0  8G03G06G19G13G16G07G20G23
  -4934064.87547  -3835977.90645  21252517.7814                   21252516.3714
  -3016860.05147  -2347082.68445  21988297.2034                   21988296.1524
  -6102203.99246  -4752011.16844  23174477.7814                   23174476.3714
  -5584239.43048  -4339854.33646  21232200.9144                   21232198.8164
   2020381.56348   1559757.71146  20829287.3204                   20829284.1174
  -2641593.11746  -2265994.42653  23760262.6954                   23760259.9844
   3569062.33647   2760274.66045  22434632.2974                   22434630.9384
  -3156643.16048  -2454922.40647  20009668.3674                   20009663.9804
 11  7 22 16 49 30.0000000  0  8G03G06G19G13G16G07G20G23
  -4975569.33647  -3868319.01645  21244620.2814                   21244618.5904
  -3025215.53947  -2353593.45345  21986706.6564                   21986705.6024
  -6180327.68047  -4812886.66044  23159611.6884                   23159609.8284
  -5643039.01248  -4385672.16846  21221011.5314                   21221009.6644
   2094241.49648   1617310.89146  20843342.2114                   20843339.9694
  -2689267.44146  -2303143.22343  23751189.2114                   23751189.3754
   3663548.78147   2833900.39144  22452612.8444                   22452611.4224
  -3168912.59448  -2464483.01247  20007333.5314                   20007329.1884
 11  7 22 16 50  0.0000000  0  8G03G06G19G13G16G07G20G23
  -5016599.13748  -3900290.27345  21236812.6174                   21236811.0394
  -3033066.83247  -2359711.30945  21985212.2424                   21985211.5634
  -6258344.98847  -4873679.25444  23144765.6564                   23144763.1914
  -5701587.85548  -4431294.64146  21209870.2194                   21209868.0704
   2168494.50448   1675170.35246  20857472.2344                   20857469.7194
  -2736908.26645  -2340265.97342  23742122.8284                   23742124.0944
   3758260.56647   2907701.71544  22470636.0314                   22470634.2194
  -3180725.69548  -2473688.03147  20005086.0784                   20005081.1914
 11  7 22 16 50 30.0000000  0  8G03G06G19G13G16G07G20G23
  -5057158.26647  -3931894.75046  21229094.4454                   21229093.0864
  -3040419.08247  -2365440.31645  21983813.9144                   21983812.6134
  -6336259.18047  -4934391.51644  23129938.6484                   23129936.6604
  -5759890.06648  -4476724.93446  21198775.4694                   21198773.3874
   2243131.57848   1733329.09446  20871675.6334                   20871672.9884
  -2784522.86745  -2377368.12142  23733059.5704                   23733063.0164
   3853188.14847   2981671.21144  22488699.9694                   22488697.8634
  -3192087.23448  -2482541.19547  20002923.6724                   20002919.6134
 11  7 22 16 51  0.0000000  0  8G03G06G19G13G16G07G20G23
  -5097244.70747  -3963130.92646  21221466.1484                   21221465.4144
  -3047271.52048  -2370779.87545  21982509.7114                   21982508.3794
  -6414068.03147  -4995021.68744  23115132.1564                   23115129.7154
  -5817944.05948  -4521961.79346  21187728.4614                   21187725.9494
   2318149.23048   1791784.39146  20885950.6484                   20885947.9534
  -2832112.13755  -2414450.59052  23724006.7034                   23724006.0314
   3948327.64547   3055805.84045  22506804.5004                   22506802.3674
  -3202996.16048  -2491041.64547  20000847.9144                   20000843.8164
 11  7 22 16 51 30.0000000  0  8G03G06G19G13G16G07G20G23
  -5136856.33647  -3993997.11346  21213928.3444                   21213926.8204
  -3053623.30547  -2375729.30145  21981301.4384                   21981300.7734
  -6491768.64847  -5055567.55144  23100346.5864                   23100344.2154
  -5875747.44548  -4567003.38745  21176728.6174                   21176725.3284
   2393544.51648   1850533.96546  20900297.7664                   20900294.4654
  -2879677.09046  -2451514.17642  23714958.3204                   23714952.6684
   4043675.60947   3130102.89845  22524948.4614                   22524946.8244
  -3213451.11748  -2499188.37547  19998858.1644                   19998854.1254
 11  7 22 16 52  0.0000000  0  8G03G06G19G13G16G07G20G23
  -5175990.39847  -4024491.16046  21206481.1644                   21206480.1994
  -3059472.88747  -2380287.38345  21980188.0084                   21980186.9264
  -6569357.73447  -5116026.50044  23085581.6564                   23085578.8014
  -5933297.69548  -4611847.73446  21165777.4774                   21165774.1134
   2469314.42248   1909575.44946  20914716.5394                   20914713.9184
  -2927217.70745  -2488558.80942  23705908.4144                   23705905.8914
   4139229.26647   3204560.25445  22543132.2894                   22543129.7074
  -3223450.29348  -2506979.95747  19996955.4384                   19996951.0434
 11  7 22 16 52 30.0000000  0  8G03G06G19G13G16G07G20G23
  -5214650.17247  -4054615.63346  21199124.1644                   21199122.5784
  -3064824.30148  -2384457.27745  21979169.3834                   21979167.6644
  -6646837.85247  -5176400.53144  23070837.2504                   23070834.6054
  -5990597.79348  -4656497.14546  21154873.7344                   21154871.0864
   2545451.00448   1968902.63346  20929205.0474                   20929202.1054
  -2974740.21554  -2525589.31652  23696863.9064                   23696862.4654
   4234979.96947   3279171.12545  22561352.9534                   22561351.8014
  -3232997.30148  -2514419.17647  19995138.6174                   19995134.3014
 11  7 22 16 53  0.0000000  0  7G03G06G19G13G16G20G23
  -5252829.81648  -4084365.97745  21191858.9064                   21191857.3484
  -3069673.20748  -2388235.63745  21978246.6484                   21978245.5514
  -6724202.24647  -5236684.36344  23056115.0394                   23056113.2704
  -6047642.76248  -4700947.75846  21144017.9774                   21144015.8984
   2621954.77748   2028515.96546  20943762.4144                   20943760.3484
   4330927.64147   3353935.47344  22579610.9304                   22579608.7704
  -3242087.39148  -2521502.36347  19993408.7584                   19993404.7544
 11  7 22 16 53 30.0000000  0  7G03G06G19G13G16G20G23
  -5290530.02048  -4113742.74645  21184684.8444                   21184682.8914
  -3074021.79748  -2391624.12545  21977419.2894                   21977418.5314
  -6801451.64147  -5296878.60944  23041416.1484                   23041412.6024
  -6104433.19548  -4745200.03546  21133211.1334                   21133209.3554
   2698819.69948   2088410.69146  20958389.6954                   20958387.0314
   4427065.73847   3428848.20745  22597904.8984                   22597904.0204
  -3250721.96948  -2528230.60547  19991765.9534                   19991761.1134
 11  7 22 16 54  0.0000000  0  7G03G06G19G13G16G20G23
  -5327755.82447  -4142749.83645  21177600.9844                   21177599.7704
  -3077875.84847  -2394627.25045  21976685.7974                   21976684.5084
  -6878589.87947  -5356986.22744  23026736.6884                   23026732.9414
  -6160974.01248  -4789257.80946  21122451.6414                   21122449.7304
   2776035.85948   2148579.09046  20973083.3284                   20973080.4264
   4523384.14147   3503901.43845  22616234.1094                   22616233.6454
  -3258906.30948  -2534608.03147  19990208.4844                   19990203.9144
 11  7 22 16 54 30.0000000  0  8G03G06G19G13G16G07G20G23
  -5364501.03147  -4171382.43446  21170608.9454                   21170607.8094
  -3081230.79747  -2397241.49645  21976046.9844                   21976046.0434
  -6955609.75447  -5417001.64544  23012079.5634                   23012076.1174
  -6217259.04748  -4833116.26646  21111741.1884                   21111738.9264
   2853603.99248   2209021.76646  20987844.2894                   20987841.4104
  -1662718.30945  -2577145.05553  23660725.3054                   23660724.9224
   4619883.04347   3579095.32445  22634597.3204                   22634596.5944
  -3266635.65248  -2540630.90647  19988737.3134                   19988733.0984
 11  7 22 16 55  0.0000000  0  8G03G06G19G13G16G07G20G23
  -5400772.73048  -4199646.07046  21163706.8284                   21163705.2424
  -3084094.63747  -2399473.07045  21975502.0864                   21975501.2584
  -7032517.87547  -5476929.96145  22997445.0004                   22997442.3794
  -6273295.19948  -4876780.80546  21101078.2504                   21101075.3914
   2931512.03948   2269729.32846  21002669.8054                   21002666.8524
  -1710177.39146  -2614126.15243  23651694.4844                   23651692.3324
   4716550.29747   3654420.37945  22652993.1564                   22652992.0984
  -3273917.63748  -2546305.18047  19987351.6484                   19987347.3364
 11  7 22 16 55 30.0000000  0  8G03G06G19G13G16G07G20G23
  -5436562.35948  -4227534.07446  21156896.1804                   21156895.3634
  -3086460.11347  -2401316.29745  21975052.3594                   21975051.5124
  -7109304.98047  -5536763.97345  22982832.5704                   22982830.6994
  -6329073.77048  -4920244.61746  21090463.7664                   21090460.7934
   3009763.15648   2330704.21546  21017560.1024                   21017557.5164
  -1757628.15246  -2651100.72343  23642664.0474                   23642661.8284
   4813388.76647   3729878.84445  22671421.1174                   22671419.3634
  -3280744.26248  -2551624.63347  19986052.9844                   19986048.4804
 11  7 22 16 56  0.0000000  0  8G03G06G19G13G16G07G20G23
  -5471873.88347  -4255049.52745  21150175.8444                   21150174.7734
  -3088332.38347  -2402775.18745  21974695.8054                   21974695.5944
  -7185974.12547  -5596506.08245  22968242.4144                   22968241.4144
  -6384599.12948  -4963511.11346  21079897.4534                   21079894.6954
   3088348.55948   2391939.56646  21032514.3914                   21032511.6094
  -1805076.76646  -2688073.66843  23633633.6954                   23633632.3014
   4910389.03947   3805463.40645  22689879.2114                   22689877.7274
  -3287120.40248  -2556593.05147  19984839.8444                   19984835.3014
 11  7 22 16 56 30.0000000  0  8G03G06G19G13G16G07G20G23
  -5506710.16447  -4282194.65645  21143546.8984                   21143545.9804
  -3089715.60247  -2403852.98445  21974432.6724                   21974431.4454
  -7262527.62147  -5656158.07845  22953674.7504                   22953673.5514
  -6439873.99248  -5006582.44146  21069379.3134                   21069376.4804
   3167260.21148   2453429.15246  21047531.1884                   21047528.5164
  -1852529.33246  -2725049.67643  23624603.9614                   23624601.7304
   5007542.46947   3881167.32445  22708366.9694                   22708366.5554
  -3293049.63348  -2561213.23847  19983711.4614                   19983706.9024
 11  7 22 16 57  0.0000000  0  8G03G06G19G13G16G07G20G23
  -5541064.75047  -4308964.44146  21137009.7274                   21137008.0784
  -3090604.73048  -2404545.80145  21974263.6484                   21974262.3754
  -7338958.01647  -5715714.13345  22939130.7034                   22939128.7624
  -6494891.63348  -5049453.31246  21058909.5474                   21058906.9574
   3246499.49248   2515174.00846  21062610.0084                   21062607.4184
  -1899982.02045  -2762025.80143  23615573.0234                   23615572.4494
   5104850.16447   3956991.43845  22726884.1094                   22726883.3674
  -3298526.39548  -2565480.85247  19982668.8444                   19982663.8404
 11  7 22 16 57 30.0000000  0  8G03G06G19G13G16G07G20G23
  -5574946.25847  -4335365.59046  21130562.5084                   21130560.1884
  -3091009.16847  -2404860.93745  21974186.6254                   21974185.5944
  -7415272.84447  -5775180.12545  22924608.9304                   22924606.4574
  -6549660.56248  -5092130.40246  21048487.1174                   21048484.6524
   3326052.66448   2577163.47746  21077748.4924                   21077745.7344
  -1947446.09845  -2799010.71143  23606540.2114                   23606542.2934
   5202298.44947   4032925.09845  22745427.9774                   22745427.0824
  -3303559.74648  -2569402.95347  19981711.4614                   19981706.3874
 11  7 22 16 58  0.0000000  0  8G03G06G19G13G16G07G20G23
  -5608347.52748  -4361392.51245  21124205.6174                   21124204.2304
  -3090923.38347  -2404794.09045  21974202.7664                   21974201.5394
  -7491464.26247  -5834549.99244  22910110.0784                   22910107.2894
  -6604173.29348  -5134607.83246  21038113.9694                   21038111.6684
   3405921.82048   2639399.14846  21092947.7974                   21092944.1254
  -1994917.20346  -2836001.07843  23597508.1334                   23597508.5204
   5299888.61747   4108969.31345  22763999.0084                   22763997.5944
  -3308143.35248  -2572974.60547  19980839.2974                   19980834.4534
 11  7 22 16 58 30.0000000  0  9G03G06G19G13G16G07G20G23G10
  -5641264.59048  -4387042.16046  21117942.6724                   21117940.7894
  -3090344.86347  -2404343.29345  21974312.7344                   21974311.7544
  -7567527.60247  -5893820.03544  22895634.1024                   22895632.7504
  -6658426.42248  -5176882.99246  21027789.8594                   21027787.6684
   3486105.55148   2701879.97746  21108205.5394                   21108202.8984
  -2042394.19946  -2872996.08243  23588473.3594                   23588473.2774
   5397618.95347   4185122.77044  22782596.5864                   22782594.4694
  -3312274.12548  -2576193.40247  19980052.9924                   19980048.1724
  -1638547.63346  -1277295.05943  24266091.1804                   24266091.3834
 11  7 22 16 59  0.0000000  0  9G03G06G19G13G16G07G20G23G10
  -5673704.94147  -4412320.32846  21111768.8674                   21111767.4804
  -3089281.79347  -2403514.93045  21974514.5784                   21974514.0314
  -7643469.12147  -5952995.16444  22881183.5554                   22881180.8554
  -6712426.71148  -5218961.13746  21017514.3834                   21017511.7854
   3566591.97348   2764596.64546  21123521.1174                   21123519.3364
  -2089886.69545  -2910003.12943  23579437.7194                   23579435.1484
   5495477.33647   4261375.96544  22801218.3834                   22801216.1214
  -3315959.96148  -2579065.48447  19979351.9224                   19979347.0124
  -1676014.69945  -1306490.19142  24258961.3914                   24258961.3554
 11  7 22 16 59 30.0000000  0  9G03G06G19G13G16G07G20G23G10
  -5705669.49648  -4437227.75045  21105686.5704                   21105684.9494
  -3087736.82847  -2402311.06645  21974808.7344                   21974807.6414
  -7719289.09047  -6012075.59445  22866756.2664                   22866752.6094
  -6766175.45748  -5260843.26646  21007285.9064                   21007283.7234
   3647374.69148   2827544.18046  21138893.7664                   21138891.3714
                                  23570395.4144                   23570392.8134
   5593457.00847   4337723.68844  22819863.6804                   22819861.6564
  -3319202.91848  -2581592.48447  19978734.8284                   19978730.0904
  -1713061.42246  -1335357.79743  24251914.1414                   24251911.1684
 11  7 22 17  0  0.0000000  0  9G03G06G19G13G16G07G20G23G10
  -5737156.22747  -4461762.84845  21099694.5634                   21099692.4804
  -3085709.00048  -2400730.93445  21975195.7664                   21975194.5164
  -7794984.25047  -6071058.74645  22852352.1804                   22852348.5864
  -6819669.81648  -5302527.17646  20997106.5004                   20997104.1294
   3728450.94948   2890720.47346  21154322.6094                   21154319.3014
  -2184930.50847  -2984063.09843  23561355.1094                   23561346.5354
   5691555.02747   4414163.63344  22838530.3134                   22838529.4184
  -3322001.36748  -2583773.10247  19978201.9694                   19978196.8674
  -1749686.60946  -1363896.84842  24244942.7814                   24244941.6564
 11  7 22 17  0 30.0000000  0  9G03G06G19G13G16G07G20G23G10
  -5768170.02047  -4485929.41445  21093792.8594                   21093790.8094
  -3083204.39847  -2398779.27345  21975671.3754                   21975670.9024
  -7870558.52747  -6129947.71145  22837970.0004                   22837967.2194
  -6872914.56648  -5344016.60546  20986974.5864                   20986971.6884
   3809810.95748   2954117.87546  21169804.2344                   21169801.3984
  -2232489.80547  -3021122.29343  23552302.3674                   23552298.1764
   5789760.74647   4490687.49644  22857218.4534                   22857217.2274
  -3324360.82448  -2585611.66047  19977752.9304                   19977748.1724
  -1785895.98445  -1392111.83642  24238052.6484                   24238051.9384
 11  7 22 17  1  0.0000000  0  9G03G06G19G13G16G07G20G23G10
  -5798691.23847  -4509712.16045  21087984.8204                   21087982.9304
  -3080205.19147  -2396442.23845  21976242.5784                   21976241.3324
  -7945991.92247  -6188726.90245  22823615.8134                   22823612.5984
  -6925890.32048  -5385296.40646  20976892.9844                   20976891.2464
   3891468.83648   3017747.37946  21185343.5634                   21185341.3094
  -2280060.02346  -3058189.95343  23543249.2034                   23543247.4884
   5888088.01246   4567306.05544  22875929.5164                   22875927.9844
  -3326262.88348  -2587093.79747  19977391.1254                   19977386.9924
  -1821671.77746  -1419989.13742  24231244.7734                   24231243.0514
 11  7 22 17  1 30.0000000  0  9G03G06G19G13G16G07G20G23G10
  -5828725.69947  -4533115.61346  21082269.5164                   21082267.9024
  -3076718.22347  -2393725.12545  21976905.6254                   21976904.2304
  -8021288.69547  -6247399.67245  22809286.6724                   22809283.5594
  -6978602.33248  -5426370.68046  20966862.3054                   20966860.2584
   3973414.09448   3081600.80146  21200936.7584                   21200935.0474
  -2327649.10246  -3095272.41044  23534192.4224                   23534190.7274
   5986526.39546   4644011.21544  22894661.6954                   22894660.6724
  -3327713.66848  -2588224.29347  19977115.0704                   19977110.4654
  -1857020.07845  -1447533.31242  24224516.6484                   24224516.3244
 11  7 22 17  2  0.0000000  0  9G03G06G19G13G16G07G20G23G10
  -5858267.10948  -4556134.87146  21076647.8754                   21076646.9654
  -3072738.00847  -2390623.64145  21977663.1954                   21977661.3094
  -8096441.38747  -6305960.11345  22794985.7584                   22794983.0634
  -7031043.83648  -5467234.18746  20956882.7664                   20956880.5394
   4055648.53148   3145679.55946  21216585.6884                   21216583.4534
  -2375252.88346  -3132366.25844  23525132.6484                   23525132.0084
   6085077.16847   4720803.94944  22913414.9144                   22913414.7624
  -3328707.48048  -2588998.70747  19976925.9614                   19976921.4964
  -1891935.48446  -1474740.12542  24217874.3134                   24217872.6844
 11  7 22 17  2 30.0000000  0  9G03G06G19G13G16G07G20G23G10
  -5887310.43447  -4578766.01246  21071121.1174                   21071120.1724
  -3068261.04747  -2387135.10245  21978515.6954                   21978514.3284
  -8171443.87947  -6364403.53145  22780712.8594                   22780711.0434
  -7083209.51648  -5507882.77746  20946955.9304                   20946953.4574
   4138172.14548   3209983.64546  21232289.7114                   21232286.1254
  -2422868.86346  -3169469.60943  23516068.9534                   23516071.3284
   6183739.88347   4797683.91444  22932190.7504                   22932189.2774
  -3329240.00048  -2589413.66847  19976824.3914                   19976819.9534
  -1926414.32446  -1501606.78942  24211312.1644                   24211310.6684
 11  7 22 17  3  0.0000000  0  9G03G06G19G13G16G07G20G23G10
  -5915860.23447  -4601012.59045  21065688.1564                   21065686.5704
  -3063293.27048  -2383264.11745  21979460.5004                   21979460.0004
  -8246299.80147  -6422732.74245  22766468.5784                   22766465.9774
  -7135103.59448  -5548319.70746  20937081.1094                   20937078.4104
   4220975.32048   3274505.56346  21248046.4304                   21248042.7074
  -2470504.19945  -3206588.00843  23507006.3914                   23507005.6054
   6282504.69947   4874643.42244  22950984.7424                   22950983.1644
  -3329316.69948  -2589473.44947  19976809.9064                   19976805.4414
  -1960461.73846  -1528137.22742  24204833.8834                   24204831.3284
 11  7 22 17  3 30.0000000  0  9G03G06G19G13G16G07G20G23G10
  -5943915.17248  -4622873.56245  21060349.4224                   21060347.6684
  -3057834.38348  -2379010.43745  21980499.5234                   21980497.9454
  -8321006.43747  -6480945.64145  22752252.4534                   22752250.4304
  -7186724.16848  -5588543.53546  20927258.0634                   20927255.0824
   4304054.81348   3339242.80946  21263856.5004                   21263852.5984
  -2518160.10945  -3243722.49243  23497936.1254                   23497935.9224
   6381367.98847   4951679.66044  22969797.6334                   22969796.8524
  -3328936.60948  -2589177.28947  19976882.1484                   19976877.4384
  -1994077.34846  -1554331.11342  24198435.6254                   24198432.4224
 11  7 22 17  4  0.0000000  0  9G03G06G19G13G16G07G20G23G10
  -5971469.06248  -4644344.10246  21055106.2424                   21055104.0044
  -3051879.13747  -2374369.96545  21981632.5944                   21981631.7074
  -8395556.31947  -6539036.38845  22738066.2584                   22738063.8834
  -7238064.18448  -5628548.75046  20917488.4534                   20917485.7814
   4387412.22748   3404196.61346  21279718.5164                   21279715.3554
  -2565832.14545  -3280869.54743  23488864.2194                   23488864.4964
   6480330.88747   5028793.51644  22988630.1884                   22988628.4774
  -3328094.01248  -2588520.73847  19977042.4304                   19977038.3714
  -2027255.43746  -1580184.22742  24192123.1484                   24192119.4344
 11  7 22 17  4 30.0000000  0  9G03G06G19G13G16G07G20G23G10
  -5998521.76647  -4665424.12145  21049958.2034                   21049956.0824
  -3045429.38347  -2369344.17245  21982860.5084                   21982859.6024
  -8469948.25047  -6597004.05545  22723909.6564                   22723907.8404
  -7289123.69148  -5668335.36746  20907772.1484                   20907770.2194
   4471042.34848   3469362.93046  21295632.7814                   21295630.3594
  -2613523.46545  -3318031.61743  23479788.9534                   23479789.9844
   6579388.07447   5105980.85945  23007479.8834                   23007478.8484
  -3326789.53148  -2587504.26647  19977290.9534                   19977286.6724
  -2059998.00446  -1605697.89843  24185893.0084                   24185890.4344
 11  7 22 17  5  0.0000000  0  9G03G06G19G13G16G07G20G23G10
  -6025073.16048  -4686113.50446  21044905.5394                   21044903.6484
  -3038486.14147  -2363933.84445  21984180.6644                   21984181.1844
  -8544181.18747  -6654847.82845  22709784.1334                   22709780.9844
  -7339902.85548  -5707903.54746  20898109.2114                   20898106.8244
   4554940.82848   3534738.32846  21311597.9924                   21311595.7704
  -2661235.98046  -3355210.15643  23470712.5084                   23470711.2464
   6678534.43447   5183237.68845  23026347.1804                   23026345.5474
  -3325023.93048  -2586128.47747  19977626.9774                   19977622.0514
  -2092305.34446  -1630872.41043  24179744.4224                   24179744.3714
 11  7 22 17  5 30.0000000  0  9G03G06G19G13G16G07G20G23G10
  -6051116.42647  -4706406.94146  21039949.8054                   21039949.1954
  -3031043.64147  -2358134.49645  21985597.4144                   21985596.7344
  -8618247.10247  -6712561.46545  22695688.8204                   22695686.9494
  -7390393.63748  -5747246.99646  20888500.7114                   20888497.8914
   4639109.77748   3600324.51646  21327614.8594                   21327612.5274
  -2708964.80547  -3392401.37144  23461630.5004                   23461629.3244
   6777772.12547   5260565.66045  23045231.4384                   23045229.9844
  -3322790.96948  -2584388.52347  19978052.1804                   19978047.3674
  -2124171.35946  -1655703.12143  24173680.6254                   24173681.0744
 11  7 22 17  6  0.0000000  0  9G03G06G19G13G16G07G20G23G10
  -6076649.52747  -4726302.83246  21035090.6954                   21035088.8794
  -3023101.37947  -2351945.71545  21987109.2274                   21987107.5704
  -8692142.66847  -6770142.34845  22681626.8364                   22681624.3094
  -7440593.72347  -5786363.94946  20878948.0084                   20878945.5004
   4723546.17648   3666119.08646  21343683.0004                   21343679.6914
  -2756710.69947  -3429605.92644  23452544.4144                   23452543.1054
   6877097.81347   5337962.21945  23064132.3594                   23064130.7974
  -3320089.07048  -2582283.15247  19978566.0234                   19978561.3014
  -2155595.43446  -1680189.44543  24167700.8364                   24167701.2194
 11  7 22 17  6 30.0000000  0  9G03G06G19G13G16G07G20G23G10
  -6101671.53948  -4745800.48046  21030329.8284                   21030328.1174
  -3014659.71947  -2345367.77745  21988715.4384                   21988713.6294
  -8765865.71947  -6827588.80545  22667598.0944                   22667595.4024
  -7490501.66048  -5825253.24646  20869450.9924                   20869448.3754
   4808246.09048   3732119.00446  21359800.4924                   21359797.1054
  -2804474.85947  -3466824.66845  23443455.6334                   23443453.8834
   6976507.24647   5415424.01645  23083049.6334                   23083048.5124
  -3316918.53948  -2579812.62547  19979169.4064                   19979165.0744
  -2186577.65646  -1704331.41843  24161806.2194                   24161805.0904
 11  7 22 17  7  0.0000000  0  9G03G06G19G13G16G07G20G23G10
  -6126188.75447  -4764904.78946  21025663.8284                   21025661.9414
  -3005726.37547  -2338406.72345  21990415.0634                   21990414.2074
  -8839421.30547  -6884904.75045  22653601.1334                   22653598.3914
  -7540122.84048  -5863919.09446  20860009.1174                   20860006.0394
   4893198.61748   3798315.75046  21375966.7664                   21375964.0314
  -2852266.05147  -3504064.50444  23434362.1414                   23434360.0204
   7075988.97747   5492942.16444  23101979.7194                   23101979.8674
  -3313286.15248  -2576982.20347  19979860.9304                   19979856.1884
  -2217125.19547  -1728134.64843  24155992.7894                   24155990.9304
 11  7 22 17  7 30.0000000  0  9G03G06G19G13G16G07G20G23G10
  -6150196.85547  -4783612.39546  21021095.2344                   21021093.5744
  -2996298.09447  -2331060.00045  21992209.2504                   21992208.2154
  -8912803.78547  -6942085.84445  22639636.8444                   22639633.0474
  -7589453.12548  -5902358.26246  20850621.1254                   20850618.7854
   4978403.86748   3864709.41046  21392181.0554                   21392178.2854
  -2900081.82446  -3541323.48444  23425261.8364                   23425260.4614
   7175542.98047   5570516.62944  23120924.5704                   23120924.1454
  -3309187.97748  -2573788.84047  19980640.5634                   19980635.5084
  -2247234.23446  -1751596.21943  24150261.8364                   24150261.5984
 11  7 22 17  8  0.0000000  0  9G03G06G19G13G16G07G20G23G10
  -6173694.58247  -4801922.27046  21016623.5474                   21016622.2894
  -2986375.10547  -2323327.77345  21994097.0164                   21994095.6374
  -8986010.55147  -6999130.01645  22625705.8914                   22625702.8554
  -7638490.46147  -5940569.18046  20841289.5784                   20841287.0274
   5063858.09448   3931297.08646  21408441.7424                   21408439.3674
  -2947923.12546  -3578602.46544  23416156.8674                   23416156.4344
   7275165.22747   5648144.26644  23139882.7974                   23139880.9184
  -3304623.53148  -2570232.12947  19981509.1804                   19981504.4414
  -2276904.82746  -1774716.20143  24144616.5634                   24144616.1804
 11  7 22 17  8 30.0000000  0  9G03G06G19G13G16G07G20G23G10
  -6196685.50047  -4819837.25846  21012249.0314                   21012247.4614
  -2975962.46547  -2315214.02045  21996078.6414                   21996077.5474
  -9059044.20747  -7056039.27045  22611807.2274                   22611805.9414
  -7687238.02348  -5978554.27046  20832013.1884                   20832010.6994
   5149553.10948   3998072.41846  21424749.6884                   21424746.1214
  -2995796.16447  -3615906.13344  23407047.6414                   23407046.3674
   7374846.84447   5725818.14844  23158851.6644                   23158850.1954
  -3299597.01248  -2566315.37547  19982465.8364                   19982460.6724
  -2306141.62946  -1797498.12543  24139053.2424                   24139052.6524
 11  7 22 17  9  0.0000000  0  9G03G06G19G13G16G07G20G23G10
  -6219164.80147  -4837353.58646  21007970.8984                   21007970.0664
  -2965056.47747  -2306715.84045  21998153.9844                   21998154.0044
  -9131898.26647  -7112808.60945  22597944.4614                   22597942.3014
  -7735690.35948  -6016309.33646  20822793.7664                   20822790.4064
   5235488.76248   4065035.23846  21441102.4924                   21441098.9884
  -3043697.82047  -3653232.06644  23397931.9534                   23397930.3324
   7474588.03147   5803538.48044  23177831.7894                   23177830.6644
  -3294104.25448  -2562035.32047  19983511.1564                   19983506.0904
  -2334940.73446  -1819938.98044  24133573.0234                   24133573.8094
 11  7 22 17  9 30.0000000  0  9G03G06G19G13G16G07G20G23G10
  -6241133.55148  -4854472.09446  21003790.2814                   21003789.4574
  -2953659.03147  -2297834.72345  22000323.2504                   22000322.4734
  -9204571.97747  -7169437.40645  22584114.3204                   22584112.4344
  -7783847.36748  -6053834.28146  20813629.5554                   20813626.2424
   5321660.49648   4132182.02046  21457500.3444                   21457497.2274
  -3091630.99647  -3690582.55543  23388811.0474                   23388806.9924
   7574382.83646   5881300.57844  23196822.0784                   23196820.4924
  -3288146.53948  -2557392.96547  19984644.5164                   19984639.8094
  -2363303.53147  -1842039.84844  24128175.1094                   24128176.4344
 11  7 22 17 10  0.0000000  0  9G03G06G19G13G16G07G20G23G10
  -6262593.96148  -4871194.46546  20999706.8524                   20999705.2034
  -2941774.38347  -2288573.93745  22002584.8284                   22002584.1024
  -9277066.77347  -7225926.78945  22570319.6484                   22570316.9264
  -7831711.12548  -6091130.70346  20804521.1804                   20804518.3364
   5408060.70748   4199506.83246  21473941.4224                   21473938.3554
  -3139600.76247  -3727961.55144  23379682.9384                   23379679.0124
   7674224.11746   5959098.85244  23215821.0784                   23215819.6914
  -3281727.07048  -2552390.78147  19985866.1954                   19985861.4064
  -2391234.05546  -1863803.84043  24122860.3754                   24122860.2624
 11  7 22 17 10 30.0000000  0  9G03G06G19G13G16G07G20G23G10
  -6283533.19948  -4887510.75046  20995722.6414                   20995720.9734
  -2929390.71147  -2278924.30545  22004941.9614                   22004940.3364
  -9349368.38747  -7282265.66845  22556560.4384                   22556557.7624
  -7879268.04348  -6128188.03146  20795471.2194                   20795468.3484
   5494697.54348   4267016.03146  21490427.9454                   21490425.4414
  -3187595.95346  -3765360.40644  23370548.2814                   23370546.6644
   7774119.96946   6036939.68043  23234830.4534                   23234829.5944
  -3274833.78948  -2547019.41447  19987177.9454                   19987173.3204
  -2418719.96147  -1885221.45743  24117630.3754                   24117629.4694
 11  7 22 17 11  0.0000000  0  9G03G06G19G13G16G07G20G23G10
  -6303953.81247  -4903422.87946  20991836.0944                   20991835.0004
  -2916511.63347  -2268888.64145  22007392.5864                   22007391.8324
  -9421477.32847  -7338454.37545  22542838.7194                   22542835.0634
  -7926519.68448  -6165007.48046  20786479.6724                   20786476.8324
   5581564.82848   4334704.78946  21506958.8674                   21506956.3444
  -3235620.70346  -3802782.26644  23361409.7344                   23361408.4924
   7874063.15246   6114817.39543  23253849.7974                   23253848.8484
  -3267469.12148  -2541280.72347  19988579.4224                   19988574.3444
  -2445764.46546  -1906295.10543  24112483.7194                   24112482.4304
 11  7 22 17 11 30.0000000  0  9G03G06G19G13G16G07G20G23G10
  -6323847.18747  -4918924.18446  20988050.2894                   20988049.1564
  -2903129.84847  -2258461.26245  22009937.7974                   22009937.4774
  -9493383.57847  -7394485.15645  22529155.7114                   22529151.8484
  -7973456.91448  -6201581.94146  20777547.6564                   20777544.9024
   5668666.70348   4402576.37546  21523534.0634                   21523531.0394
  -3283668.66046  -3840222.19944  23352266.8984                   23352265.6724
   7974057.39846   6192734.87543  23272877.4064                   23272877.8484
  -3259625.53148  -2535168.84047  19990072.1094                   19990067.4384
  -2472359.75046  -1927018.72343  24107423.7664                   24107421.5864
 11  7 22 17 12  0.0000000  0  9G03G06G19G13G16G07G20G23G10
  -6343217.03947  -4934017.55546  20984364.4924                   20984362.9414
  -2889250.49647  -2247646.18045  22012579.4224                   22012577.8204
  -9565089.43447  -7450359.79345  22515510.4144                   22515507.0664
  -8020083.09448  -6237914.00846  20768675.1724                   20768673.0234
   5755994.28948   4470623.82446  21540151.3594                   21540148.8014
  -3331745.43747  -3877684.58644  23343118.9384                   23343117.4844
   8074094.29746   6270685.61343  23291913.8914                   23291912.9224
  -3251307.28148  -2528687.09847  19991655.1724                   19991650.1604
  -2498510.73046  -1947396.07843  24102446.0704                   24102445.3714
 11  7 22 17 12 30.0000000  0  9G03G06G19G13G16G07G20G23G10
  -6362055.43047  -4948696.80946  20980779.5784                   20980778.4694
  -2874866.71947  -2236438.04745  22015317.0394                   22015315.4344
  -9636585.49647  -7506070.95345  22501904.6564                   22501901.8284
  -8066388.76648  -6273996.35946  20759863.4694                   20759861.2074
   5843551.66448   4538850.31346  21556812.9144                   21556810.4574
  -3379844.89547  -3915164.62944  23333965.1024                   23333963.6844
   8174177.24646   6348672.29743  23310959.1254                   23310958.4224
  -3242506.69548  -2521829.51647  19993329.5704                   19993324.2424
  -2524210.46547  -1967421.86744  24097556.2504                   24097555.5944
 11  7 22 17 13  0.0000000  0  9G03G06G19G13G16G07G20G23G10
  -6380361.00847  -4962960.89146  20977296.4694                   20977294.4774
  -2859979.20347  -2224837.39545  22018150.0864                   22018148.5864
  -9707869.19947  -7561616.62545  22488340.1484                   22488337.6914
  -8112372.51248  -6309827.85246  20751112.8834                   20751110.5634
   5931335.18848   4607253.02746  21573517.8134                   21573514.4924
  -3427968.04347  -3952663.16844  23324807.2894                   23324805.2854
   8274302.28546   6426691.66843  23330013.3054                   23330011.4224
  -3233223.78148  -2514596.09047  19995096.1254                   19995091.5084
  -2549458.96946  -1987096.05144  24092750.7274                   24092750.6644
 11  7 22 17 13 30.0000000  0  9G03G06G19G13G16G07G20G23G10
  -6398136.23447  -4976811.71146  20973913.7584                   20973912.6764
  -2844591.24247  -2212846.79345  22021078.3834                   22021076.7154
  -9778941.13747  -7616997.29345  22474815.6254                   22474813.1374
  -8158035.66848  -6345409.52346  20742423.8834                   20742421.4414
   6019338.11348   4675826.70746  21590264.3284                   21590260.4694
  -3476118.99647  -3990183.37144  23315644.6884                   23315642.3714
   8374462.64546   6504738.60243  23349074.0164                   23349071.2854
  -3223461.06248  -2506988.78947  19996953.8284                   19996949.8674
  -2574259.19146  -2006420.90243  24088032.4924                   24088031.1994
 11  7 22 17 14  0.0000000  0  9G03G06G19G13G16G07G20G23G10
  -6415379.87947  -4990248.29746  20970632.5784                   20970631.0354
  -2828702.81247  -2200466.16845  22024101.3204                   22024099.9654
  -9849798.50047  -7672210.75845  22461331.9454                   22461329.1174
  -8203376.38348  -6380739.95346  20733795.3054                   20733792.8874
   6107557.65648   4744569.19945  21607051.6954                   21607048.3954
  -3524298.14146  -4027725.52744  23306475.9144                   23306473.7544
   8474655.12546   6582810.55542  23368139.0474                   23368137.3284
  -3213218.04348  -2499007.23847  19998903.1094                   19998898.8524
  -2598610.59846  -2025395.99243  24083397.4534                   24083397.5984
 11  7 22 17 14 30.0000000  0  9G03G06G19G13G16G07G20G23G10
  -6432089.26247  -5003268.57046  20967452.5394                   20967450.8364
  -2812312.55147  -2187694.51245  22027220.1724                   22027219.5004
  -9920437.16447  -7727253.82445  22447889.9454                   22447887.4454
  -8248390.75448  -6415816.09046  20725229.8284                   20725227.3324
   6195992.34448   4813479.33246  21623880.1804                   21623877.0824
  -3572504.91447  -4065289.21544  23297302.6724                   23297300.7814
   8574877.58645   6660905.89542  23387210.4304                   23387209.5204
  -3202492.11348  -2490649.37947  20000944.1094                   20000939.3954
  -2622511.68746  -2044020.18443  24078849.5784                   24078848.7734
 11  7 22 17 15  0.0000000  0  9G03G06G19G13G16G07G20G23G10
  -6448260.05947  -5015869.18446  20964375.7034                   20964374.2304
  -2795417.80547  -2174529.77345  22030435.6094                   22030433.8554
  -9990851.28947  -7782121.91445  22434490.5864                   22434487.5744
  -8293074.05548  -6450634.25446  20716726.4844                   20716723.9414
   6284642.24248   4882557.15646  21640750.1564                   21640746.2544
  -3620736.62547  -4102872.36745  23288124.8364                   23288123.6564
   8675129.61746   6739024.27042  23406288.2034                   23406286.1804
  -3191280.05148  -2481912.72347  20003077.9304                   20003072.5634
  -2645959.03146  -2062290.87143  24074388.5634                   24074386.8984
 11  7 22 17 15 30.0000000  0  9G03G06G19G13G16G07G20G23G10
  -6463897.67247  -5028054.32446  20961399.7034                   20961398.2034
  -2778024.78147  -2160976.77045  22033745.2584                   22033743.5744
 -10061043.91847  -7836817.39845  22421133.0394                   22421130.0704
  -8337430.39148  -6485197.61746  20708285.9534                   20708283.3794
   6373497.44948   4951794.95346  21657658.7034                   21657655.5234
  -3669000.03947  -4140480.16845  23278941.0474                   23278939.1334
   8775401.81645   6817158.33642  23425369.8914                   23425367.0084
  -3179587.49248  -2472801.64147  20005302.6254                   20005297.9924
  -2668958.30946  -2080212.38344  24070011.3054                   24070011.6524
 11  7 22 17 16  0.0000000  0  9G03G06G19G13G16G07G20G23G10
  -6479005.07847  -5039826.30546  20958525.0704                   20958523.7854
  -2760138.07047  -2147039.07045  22037149.2114                   22037147.7664
 -10131017.05147  -7891341.84045  22407817.1954                   22407814.5394
  -8381462.24248  -6519508.15246  20699906.5634                   20699904.5434
   6462550.78148   5021187.13346  21674604.3364                   21674601.9804
  -3717300.59047  -4178116.88345  23269749.6174                   23269748.0474
   8875686.16445   6895301.85242  23444452.4614                   23444451.1724
  -3167418.24648  -2463319.12547  20007618.3134                   20007614.0864
  -2691514.21546  -2097788.38343  24065718.0314                   24065719.1294
 11  7 22 17 16 30.0000000  0  9G03G06G19G13G16G07G20G23G10
  -6493576.77748  -5051180.86346  20955751.9534                   20955750.9104
  -2741753.59447  -2132713.50445  22040647.4064                   22040645.7814
 -10200763.39847  -7945689.59445  22394544.9384                   22394542.5124
  -8425163.24648  -6553560.88346  20691590.7664                   20691587.8754
   6551803.50448   5090734.68046  21691588.7814                   21691586.6174
  -3765634.21947  -4215779.39145  23260551.4774                   23260550.3244
                                  23463538.2734                   23463537.4734
  -3154767.35548  -2453461.30147  20010025.8914                   20010021.5204
  -2713621.87946  -2115015.15244  24061511.6884                   24061512.5984
 11  7 22 17 17  0.0000000  0  9G03G06G19G13G16G07G20G23G10
  -6507616.43047  -5062120.84446  20953080.5234                   20953078.2974
  -2722875.94947  -2118003.64845  22044239.7114                   22044239.0204
 -10270284.52747  -7999861.83645  22381315.3444                   22381313.5204
  -8468535.77348  -6587357.65646  20683337.2424                   20683334.2544
   6641247.91848   5160431.60946  21708609.6334                   21708607.1954
  -3814005.75847  -4253471.48445  23251346.5234                   23251346.2034
   9076286.41055                  23482627.4384
  -3141638.75048  -2443231.22347  20012524.1094                   20012519.7814
  -2735285.73846  -2131896.11343  24057389.1884                   24057390.0474
 11  7 22 17 17 30.0000000  0  9G03G06G19G13G16G07G20G23G10
  -6521116.48048  -5072640.35946  20950511.5634                   20950509.7034
  -2703499.25447  -2102904.90645  22047927.7814                   22047926.4264
 -10339571.43747  -8053851.60245  22368130.4614                   22368127.7814
  -8511571.49648  -6620891.98846  20675148.0004                   20675145.1374
   6730887.31348   5230280.48846  21725666.9924                   21725666.1254
  -3862409.91047  -4291188.95344  23242135.7894                   23242134.4654
   9176597.41414                  23501713.820
  -3128025.51649  -2432623.52047  20015114.6414                   20015110.1804
  -2756499.28146  -2148426.12143  24053351.8674                   24053352.9454
 11  7 22 17 18  0.0000000  0  9G03G06G19G13G16G07G20G23G10
  -6534089.12948  -5082748.91046  20948043.3134                   20948041.1564
  -2683636.55947  -2087427.46945  22051706.9454                   22051704.9454
 -10408634.10547  -8107666.62145  22354988.7034                   22354985.5824
  -8554281.30548  -6654172.35946  20667020.3754                   20667017.7974
   6820705.88748   5300268.95746  21742759.2894                   21742757.0744
  -3910859.69547  -4328941.99244  23232915.5394                   23232914.3954
   9276900.29714                  23520802.563
  -3113940.27748  -2421648.02047  20017794.9694                   20017790.3524
  -2777275.30146  -2164615.23443  24049400.4384                   24049399.2234
 11  7 22 17 18 30.0000000  0  9G03G06G19G13G16G07G20G23G10
  -6546526.69948  -5092440.49646  20945675.7424                   20945674.3834
  -2663281.70747  -2071566.51645  22055580.4534                   22055577.8794
 -10477463.26647  -8161299.68045  22341890.5164                   22341887.9694
  -8596656.67648  -6687192.12546  20658957.1334                   20658954.7034
   6910707.10948   5370399.73846  21759886.1174                   21759883.4104
  -3959349.27047  -4366726.06244  23223688.2664                   23223686.8164
   9377198.42615                  23539888.844
  -3099375.83248  -2410299.11747  20020566.2894                   20020561.7814
  -2797606.98046  -2180458.06243  24045530.6024                   24045528.6334
 11  7 22 17 19  0.0000000  0  9G03G06G19G13G16G07G20G23G10
  -6558428.09448  -5101714.31246  20943411.5704                   20943410.2194
  -2642434.92647  -2055322.26645  22059546.8204                   22059545.0904
 -10546056.68447  -8214749.02745  22328837.6884                   22328835.4734
  -8638695.72748  -6719949.81646  20650957.1414                   20650953.7624
   7000887.73448   5440670.31646  21777046.7114                   21777044.6134
  -4007879.37147  -4404541.65244  23214454.3674                   23214451.3634
                                  23558970.648
  -3084331.88748  -2398576.57047  20023429.3134                   20023424.5354
  -2817494.18046  -2195954.58643  24041747.4774                   24041744.6214
 11  7 22 17 19 30.0000000  0  8G03G06G19G13G16G07G23G10
  -6569797.28548  -5110573.41046  20941248.2424                   20941246.5084
  -2621101.50047  -2038698.82045  22063606.6954                   22063604.8204
 -10614415.77047  -8268015.79745  22315829.6094                   22315827.0664
  -8680401.32048  -6752447.67646  20643020.5634                   20643018.0904
   7091240.13348   5511074.76246  21794240.7814                   21794238.2734
  -4056455.39147  -4442393.01645  23205210.3594                   23205207.9224
  -3068812.91848  -2386483.89547  20026382.4694                   20026377.6094
  -2836941.92246  -2211108.66043  24038043.9534                   24038043.5824
 11  7 22 17 20  0.0000000  0  9G03G06G19G13G16G07G20G23G10
  -6580632.18448  -5119016.18746  20939186.2814                   20939184.4884
  -2599281.13747  -2021695.93045  22067758.6174                   22067758.1454
 -10682536.93047  -8321097.16845  22302866.1884                   22302863.4304
  -8721770.60948  -6784683.48446  20635148.3984                   20635146.0554
   7181761.70748   5581611.02746  21811466.3524                   21811464.8324
  -4105076.71147  -4480279.72345  23195957.4924                   23195956.3014
   9678009.12515                  23597135.094
  -3052817.50848  -2374019.94547  20029426.4384                   20029422.1024
  -2855949.44146  -2225919.68743  24034427.9614                   24034426.2304
 11  7 22 17 20 30.0000000  0  9G03G06G19G13G16G07G20G23G10
  -6590934.95347  -5127044.31246  20937224.9774                   20937223.6174
  -2576976.36347  -2004315.59845  22072003.1254                   22072002.7074
 -10750419.96947  -8373992.98845  22289948.4774                   22289946.1524
  -8762803.91448  -6816657.48446  20627340.2274                   20627338.1564
   7272447.08248   5652274.93445  21828722.8134                   21828720.3714
  -4153746.50847  -4518204.20745  23186695.7734                   23186694.7274
                                  23616209.125
  -3036347.66448  -2361186.30547  20032560.8054                   20032556.0204
  -2874518.71146  -2240389.25843  24030893.5864                   24030892.5704
 11  7 22 17 21  0.0000000  0  8G03G06G19G13G16G07G23G10
  -6600706.58247  -5134658.54746  20935366.1804                   20935363.9344
  -2554189.77047  -1986559.79345  22076340.0554                   22076338.6564
 -10818064.44547  -8426702.93045  22277076.8674                   22277073.2194
  -8803501.60548  -6848369.96546  20619595.1804                   20619592.7734
   7363291.15648   5723062.50845  21846009.8364                   21846006.9184
  -4202467.45347  -4556168.56645  23177424.4534                   23177422.6484
  -3019405.20348  -2347984.40647  20035784.6564                   20035779.4924
  -2892651.83646  -2254518.94143  24027442.1804                   24027443.1764
 11  7 22 17 21 30.0000000  0  8G03G06G19G13G16G07G23G10
  -6609933.38348  -5141848.25046  20933610.1174                   20933608.5634
  -2530908.75047  -1968418.74245  22080769.6804                   22080768.9304
 -10885454.20347  -8479214.35945  22264252.3054                   22264249.0704
  -8843848.41448  -6879809.02746  20611917.1804                   20611915.2464
   7454303.84048   5793981.45345  21863329.6174                   21863326.6484
  -4251226.98047  -4594162.95745  23168145.4454                   23168144.9414
  -3001976.68748  -2334403.75847  20039101.1724                   20039096.1644
  -2910335.72746  -2268298.57443  24024078.2344                   24024077.5944
 11  7 22 17 22  0.0000000  0  8G03G06G19G13G16G07G23G10
  -6618625.15248  -5148621.05546  20931956.1334                   20931954.1994
  -2507144.98447  -1949901.53145  22085291.8754                   22085290.9184
 -10952597.57847  -8531533.80145  22251474.8134                   22251471.6094
  -8883853.73048  -6910981.99246  20604305.0554                   20604302.1604
   7545471.35948   5865021.04746  21880678.4614                   21880675.6174
  -4300036.27747  -4632196.16845  23158857.2274                   23158856.6134
  -2984072.74648  -2320452.64847  20042508.1954                   20042503.6804
  -2927581.50046  -2281736.85243  24020796.4224                   24020796.1954
 11  7 22 17 22 30.0000000  0  8G03G06G19G13G16G07G23G10
  -6626778.25448  -5154974.12546  20930404.5164                   20930402.6954
  -2482896.03547  -1931006.23845  22089906.3984                   22089905.1914
 -11019489.19547  -8583657.08245  22238746.3054                   22238742.7664
  -8923512.58248  -6941884.99646  20596758.0474                   20596755.4024
   7636793.50848   5936181.15246  21898056.6254                   21898052.7074
  -4348893.16447  -4670266.44145  23149560.2274                   23149558.1724
  -2965690.23448  -2306128.61747  20046006.3364                   20046001.9104
  -2944386.53546  -2294831.69543  24017599.1174                   24017599.3794
 11  7 22 17 23  0.0000000  0  8G03G06G19G13G16G07G23G10
  -6634395.76248  -5160909.83646  20928955.2034                   20928953.8054
  -2458165.90247  -1911735.99245  22094612.1484                   22094610.8244
 -11086129.62147  -8635584.61745  22226064.8134                   22226061.6454
  -8962826.28548  -6972519.04746  20589277.0944                   20589274.5904
   7728263.62948   6007456.53146  21915462.0554                   21915459.2424
  -4397801.88347  -4708377.06645  23140253.4844                   23140251.4734
  -2946832.52748  -2291434.32047  20049594.6804                   20049590.2814
  -2960754.26246  -2307585.81243  24014484.6094                   24014484.4024
 11  7 22 17 23 30.0000000  0  8G03G06G19G13G16G07G23G10
  -6641469.84048  -5166422.08646  20927608.9614                   20927607.6604
  -2432948.08647  -1892085.74245  22099410.8524                   22099408.8714
 -11152509.17647  -8687308.88345  22213433.6254                   22213429.8954
  -9001786.12948  -7002877.35546  20581863.2344                   20581860.6524
   7819885.78948   6078850.39145  21932898.0314                   21932895.4414
  -4446755.64547  -4746522.82045  23130938.5634                   23130936.6564
  -2927492.30148  -2276364.02047  20053274.8204                   20053270.4694
  -2976677.61346  -2319993.59443  24011453.3054                   24011454.0354
 11  7 22 17 24  0.0000000  0  8G03G06G19G13G16G07G23G10
  -6648007.39847  -5171516.28146  20926365.1024                   20926363.1564
  -2407250.90247  -1872061.97345  22104301.3364                   22104299.8554
 -11218632.78947  -8738833.72745  22200850.2814                   22200847.0784
  -9040397.97748  -7032964.51246  20574515.9694                   20574513.1684
   7911649.19148   6150354.32445  21950359.7034                   21950357.3284
  -4495762.85947  -4784710.23045  23121612.0704                   23121610.8204
  -2907676.86748  -2260923.43047  20057045.7194                   20057041.0354
  -2992164.42247  -2332061.22743  24008506.6644                   24008506.2424
 11  7 22 17 24 30.0000000  0  8G03G06G19G13G16G07G23G10
  -6654008.94148  -5176192.78546  20925222.4384                   20925221.0044
  -2381076.09847  -1851666.03545  22109281.7664                   22109280.6414
 -11284498.78547  -8790157.82845  22188316.7894                   22188313.9224
  -9078660.80148  -7062779.69946  20567234.2194                   20567231.7464
   8003549.79748   6221965.18845  21967847.5394                   21967843.5434
  -4544824.85247  -4822940.31245  23112276.3674                   23112274.9224
  -2887387.32048  -2245113.40647  20060906.6334                   20060902.3524
  -3007216.00046  -2343789.75843  24005642.5004                   24005641.9024
 11  7 22 17 25  0.0000000  0  8G03G06G19G13G16G07G23G10
  -6659475.08248  -5180452.10546  20924182.4304                   20924180.9534
  -2354425.35547  -1830899.21945  22114353.1804                   22114352.6804
 -11350105.73047  -8841280.08245  22175832.0474                   22175829.0204
  -9116573.98048  -7092322.43746  20560019.9304                   20560017.1764
   8095583.29348   6293679.57045  21985360.9694                   21985357.0634
  -4593943.39547  -4861214.46944  23102929.3054                   23102926.4654
  -2866624.44148  -2228934.56647  20064857.7504                   20064853.3714
  -3021833.98447  -2355180.42243  24002860.8284                   24002860.0514
 11  7 22 17 25 30.0000000  0  8G03G06G19G13G16G07G23G10
  -6664398.44948  -5184288.48846  20923245.6644                   20923243.6214
  -2327292.64547  -1809756.85545  22119515.9924                   22119515.2774
 -11415444.06247  -8892193.03545  22163397.9774                   22163395.4494
  -9154128.40248  -7121585.62546  20552873.6884                   20552871.0164
   8187753.61348   6365500.59045  22002900.3524                   22002898.9534
  -4643112.27747  -4899527.85245  23093571.8674                   23093570.4924
  -2845381.41048  -2212381.56647  20068900.3754                   20068895.2584
  -3036011.45747  -2366227.82843  24000163.2424                   24000162.3524
 11  7 22 17 26  0.0000000  0  8G03G06G19G13G16G07G23G10
  -6668782.58648  -5187704.68746  20922411.3204                   20922409.8674
  -2299682.57847  -1788242.51645  22124770.8134                   22124769.6644
 -11480515.11747  -8942897.70345  22151016.0784                   22151012.7894
  -9191326.86348  -7150571.42646  20545794.6884                   20545791.5984
   8280053.76248   6437422.80145  22020464.1024                   22020462.4064
  -4692335.69947  -4937883.74645  23084204.9144                   23084204.9344
  -2823662.25448  -2195457.55947  20073032.9924                   20073028.8714
  -3049752.57847  -2376935.18043  23997548.8204                   23997547.2664
 11  7 22 17 26 30.0000000  0  8G03G06G19G13G16G07G23G10
  -6672626.16448  -5190699.67646  20921680.1804                   20921678.0474
  -2271595.35247  -1766356.35945  22130115.4144                   22130114.9774
 -11545315.82047  -8993391.71945  22138684.4454                   22138681.3014
  -9228166.67248  -7179277.77046  20538784.3204                   20538780.8524
   8372481.16848   6509444.10945  22038052.3054                   22038047.8754
  -4741613.93446  -4976282.31645  23074827.7274                   23074827.1054
  -2801466.05548  -2178161.82847  20077257.2034                   20077253.0044
  -3063057.09847  -2387302.32843  23995016.9614                   23995014.8284
 11  7 22 17 27  0.0000000  0  8G03G06G19G13G16G07G23G10
  -6675922.66847  -5193268.37946  20921052.1414                   20921050.9344
  -2243026.05547  -1744094.57845  22135551.6174                   22135551.0554
 -11609837.61747  -9043668.37545  22126406.7734                   22126403.1134
  -9264640.27748  -7207698.76646  20531843.4144                   20531840.6524
   8465038.54748   6581566.71545  22055665.8834                   22055663.5354
  -4790941.41847  -5014719.30145  23065441.3204                   23065440.1684
  -2778786.75448  -2160489.66047  20081572.5784                   20081568.6764
  -3075919.60947  -2397325.03943  23992569.5474                   23992568.5354
 11  7 22 17 27 30.0000000  0  8G03G06G19G13G16G07G23G10
  -6678674.45748  -5195412.62946  20920528.6334                   20920527.0514
  -2213977.84447  -1721459.60945  22141079.8054                   22141078.2934
 -11674080.60247  -9093727.79345  22114181.4844                   22114177.8634
  -9300748.53948  -7235835.07446  20524972.2424                   20524970.0474
   8557720.71148   6653786.55546  22073302.9384                   22073302.4064
  -4840321.39547  -5053197.16045  23056044.7344                   23056042.8914
  -2755627.51248  -2142443.51647  20085979.8984                   20085975.3324
  -3088342.95346  -2407005.56643  23990204.6884                   23990204.7704
 11  7 22 17 28  0.0000000  0  8G03G06G19G13G16G07G23G10
  -6680873.61748  -5197126.25446  20920110.5944                   20920108.7304
  -2184443.95747  -1698446.19945  22146699.7424                   22146698.0864
 -11738034.37147  -9143561.83645  22102011.2974                   22102008.3554
  -9336481.63348  -7263679.03546  20518172.7344                   20518170.6054
   8650532.04748   6726107.07045  22090965.3594                   22090961.0314
  -4889746.31247  -5091710.03945  23046639.7504                   23046636.9774
  -2731980.45348  -2124017.24247  20090479.8984                   20090475.6604
  -3100319.63746  -2416338.10943  23987925.4304                   23987924.7704
 11  7 22 17 28 30.0000000  0  8G03G06G19G13G16G07G23G10
  -6682522.87148  -5198411.38346  20919796.6724                   20919795.3594
  -2154428.75847  -1675057.73845  22152411.3054                   22152410.0864
 -11801699.56647  -9193171.03946  22089895.3444                   22089892.5004
  -9371841.12948  -7291231.88746  20511444.3364                   20511441.5864
   8743466.08648   6798523.14845  22108650.0084                   22108644.2504
  -4939220.22347  -5130261.08645  23037224.9304                   23037223.7504
  -2707848.57448  -2105213.19947  20095072.0234                   20095067.3984
  -3111853.61746  -2425325.71943  23985730.3914                   23985729.9344
 11  7 22 17 29  0.0000000  0  8G03G06G19G13G16G07G23G10
  -6683622.93448  -5199268.57046  20919587.4454                   20919585.2194
  -2123934.34047  -1651295.85545  22158214.5944                   22158213.3674
 -11865075.09847  -9242554.52345  22077835.8054                   22077832.8714
  -9406827.14148  -7318493.72346  20504786.4924                   20504782.9384
   8836518.67648   6871031.60545  22126357.4454                   22126355.5474
  -4988744.98047  -5168851.79745  23027801.0084                   23027798.7704
  -2683233.84448  -2086032.89847  20099756.0234                   20099751.5204
  -3122946.84447  -2433969.82444  23983620.6254                   23983620.2814
 11  7 22 17 29 30.0000000  0  8G03G06G19G13G16G07G23G10
  -6684168.71948  -5199693.84446  20919483.0554                   20919481.5084
  -2092956.33247  -1627157.15645  22164109.4454                   22164107.1054
 -11928152.87547  -9291706.00045  22065832.5704                   22065829.8244
  -9441432.07048  -7345458.59446  20498201.1414                   20498198.6564
   8929691.92647   6943634.16445  22144086.5784                   22144083.9494
  -5038315.64547  -5207478.28544  23018367.5084                   23018364.0314
  -2658130.46948  -2066471.83647  20104532.7344                   20104528.5514
  -3133594.02347  -2442266.32444  23981594.1724                   23981594.0234
 11  7 22 17 30  0.0000000  0  8G03G06G19G13G16G07G23G10
  -6684149.06648  -5199678.52346  20919486.4144                   20919485.2274
  -2061484.87947  -1602633.92645  22170098.2114                   22170095.8754
 -11990919.56247  -9340615.07045  22053889.0394                   22053885.8484
  -9475643.52348  -7372116.86346  20491690.8984                   20491688.1254
   9022993.61347   7016336.72745  22161840.8754                   22161836.7584
  -5087921.89147  -5246132.47345  23008927.7194                   23008925.0274
  -2632527.97748  -2046521.85947  20109404.7344                   20109400.5234
  -3143784.94147  -2450207.28543  23979655.5004                   23979654.3364
 11  7 22 17 30 30.0000000  0  8G03G06G19G13G16G07G23G10
  -6683570.26248  -5199227.51246  20919597.2114                   20919594.8754
  -2029527.37547  -1577731.98445  22176179.5004                   22176178.5704
 -12053379.27047  -9389284.92245  22042002.9304                   22042000.7854
  -9509466.42248  -7398472.37546  20485254.9774                   20485252.0984
   9116414.17647   7089131.94145  22179617.6414                   22179616.8484
  -5137570.90247  -5284819.96545  22999479.9384                   22999476.5084
  -2606432.99248  -2026188.12947  20114370.5554                   20114366.1954
  -3153526.78547  -2457798.27043  23977800.4924                   23977799.7704
 11  7 22 17 31  0.0000000  0  8G03G06G19G13G16G07G23G10
  -6682440.43448  -5198347.13346  20919812.6804                   20919810.2544
  -1997093.62547  -1552458.93045  22182351.1564                   22182350.2034
 -12115538.17247  -9437720.38345  22030174.3754                   22030171.5554
  -9542907.48448  -7424530.32846  20478890.8594                   20478888.2074
   9209942.29747   7162011.02745  22197415.9384                   22197414.5904
  -5187271.64147  -5323547.85245  22990022.4224                   22990018.2974
  -2579854.45348  -2005477.59447  20119428.3524                   20119424.0004
  -3162828.49246  -2465046.37543  23976029.6644                   23976029.7234
 11  7 22 17 31 30.0000000  0  8G03G06G19G13G16G07G23G10
  -6680760.16848  -5197037.82446  20920131.7114                   20920130.2074
  -1964184.97747  -1526815.84045  22188613.7584                   22188613.1414
 -12177394.09047  -9485919.74645  22018404.0784                   22018400.3204
  -9575965.44148  -7450289.75846  20472600.0394                   20472597.2894
   9303574.27347   7234970.99645  22215234.2504                   22215228.9454
  -5237024.93047  -5362316.59445  22980554.3524                   22980552.6884
  -2552792.92648  -1984390.69547  20124577.9304                   20124573.7544
  -3171691.08247  -2471952.32443  23974344.2894                   23974343.0554
 11  7 22 17 32  0.0000000  0  8G03G06G19G13G16G07G23G10
  -6678524.53147  -5195295.77346  20920557.6804                   20920555.9534
  -1930797.62547  -1500799.71945  22194966.9144                   22194965.0554
 -12238939.44547  -9533877.11345  22006691.8204                   22006688.2544
  -9608633.84448  -7475745.64846  20466383.7664                   20466381.3634
   9397312.14847   7308013.41045  22233072.3054                   22233069.9774
  -5286826.51647  -5401122.99245  22971077.9614                   22971075.8364
  -2525243.68048  -1962923.76247  20129820.1174                   20129815.9304
  -3180110.10947  -2478512.62944  23972742.6804                   23972741.5354
 11  7 22 17 32 30.0000000  0  8G03G06G19G13G16G07G23G10
  -6675733.23047  -5193120.72746  20921088.0864                   20921086.9654
  -1896932.53947  -1474411.33645  22201411.4224                   22201409.5164
 -12300171.79347  -9581590.59045  21995039.6804                   21995035.9614
  -9640911.02748  -7500896.69946  20460241.2974                   20460239.0354
   9491153.05547   7381136.20345  22250929.6484                   22250927.6644
  -5336676.61347  -5439967.19545  22961591.2344                   22961589.3134
  -2497206.83648  -1941076.87947  20135155.5554                   20135151.5664
  -3188086.22347  -2484727.77043  23971224.7504                   23971224.1134
 11  7 22 17 33  0.0000000  0  8G03G06G19G13G16G07G23G10
  -6672390.84447  -5190516.27046  20921724.1884                   20921722.4494
  -1862595.84047  -1447655.46945  22207945.3204                   22207944.0824
 -12361093.84047  -9629062.27345  21983446.7344                   21983442.9264
  -9672800.18048  -7525745.39546  20454173.2194                   20454170.2464
   9585088.72347   7454332.80945  22268804.9774                   22268801.1454
  -5386580.71947  -5478853.46545  22952094.6174                   22952093.5354
  -2468687.69148  -1918854.18047  20140582.6724                   20140578.5234
  -3195625.10247  -2490602.16043  23969790.0634                   23969789.4774
 11  7 22 17 33 30.0000000  0  8G03G06G19G13G16G07G23G10
  -6668489.22348  -5187476.03146  20922467.2664                   20922464.5354
  -1827780.59847  -1420526.71145  22214570.4844                   22214569.3954
 -12421694.85547  -9676283.77345  21971914.1954                   21971911.8054
  -9704291.53948  -7550284.11746  20448180.8524                   20448177.6484
   9679124.43047   7527607.32445  22286698.5704                   22286697.8674
  -5436531.06647  -5517775.75045  22942589.4614                   22942588.6294
  -2439678.48448  -1896249.61747  20146102.8524                   20146098.3204
  -3202719.05147  -2496129.89543  23968439.8444                   23968438.7234
 11  7 22 17 34  0.0000000  0  8G03G06G19G13G16G07G23G10
  -6664034.89148  -5184005.11746  20923314.8674                   20923312.6484
  -1792494.35947  -1393030.94145  22221285.1804                   22221283.7854
 -12481978.80147  -9723258.22745  21960442.9224                   21960440.1094
  -9735389.95748  -7574516.64146  20442263.1484                   20442260.0474
   9773250.77347   7600952.55945  22304610.2664                   22304607.9884
  -5486534.33647  -5556739.33245  22933074.1174                   22933072.5394
  -2410186.08648  -1873268.54747  20151715.3134                   20151710.5514
  -3209375.32847  -2501316.64844  23967172.9694                   23967172.3914
 11  7 22 17 34 30.0000000  0  8G03G06G19G13G16G07G23G10
  -6659024.96147  -5180101.27045  20924267.7114                   20924265.8164
  -1756735.27347  -1365166.71545  22228090.3524                   22228088.3134
 -12541940.22747  -9769981.37546  21949032.5864                   21949029.6294
  -9766090.83248  -7598439.40246  20436420.5944                   20436418.0004
   9867467.73847   7674368.32445  22322539.3134                   22322535.9844
  -5536588.44947  -5595742.51245  22923549.1334                   22923547.1484
  -2380208.00048  -1849909.01647  20157419.7114                   20157414.7734
  -3215591.85247  -2506160.71544  23965990.5394                   23965989.8404
 11  7 22 17 35  0.0000000  0  8G03G06G19G13G16G07G23G10
  -6653457.00848  -5175762.60946  20925327.7664                   20925325.6804
  -1720502.05547  -1336933.05145  22234985.0474                   22234984.1024
 -12601574.10247  -9816449.28945  21937684.5004                   21937680.9344
  -9796390.08248  -7622049.20346  20430654.6334                   20430652.3364
   9961775.13347   7747854.56645  22340485.6564                   22340483.5354
  -5586691.11347  -5634783.55145  22914014.8984                   22914012.9964
  -2349741.66448  -1826169.02347  20163217.3914                   20163212.9224
  -3221366.19146  -2510660.27343  23964891.2664                   23964891.5554
 11  7 22 17 35 30.0000000  0  8G03G06G19G13G16G07G23G10
  -6647330.71147  -5170988.86746  20926493.5004                   20926491.4884
  -1683795.58247  -1308330.62145  22241969.8984                   22241968.1294
 -12660877.69547  -9862659.84445  21926399.2894                   21926395.3164
  -9826285.87148  -7645344.62546  20424966.2664                   20424962.9924
  10056170.18047   7821409.14145  22358448.5084                   22358445.1914
  -5636842.32047  -5673862.35545  22904471.9144                   22904469.9694
  -2318787.16448  -1802048.64147  20169108.0474                   20169103.7114
  -3226699.02746  -2514815.73443  23963876.2974                   23963876.9344
 11  7 22 17 36  0.0000000  0  8G03G06G19G13G16G07G23G10
  -6640643.77047  -5165778.28146  20927766.2114                   20927764.6524
  -1646614.58647  -1279358.40645  22249045.2974                   22249043.7544
 -12719845.93447  -9908609.07845  21915177.0864                   21915174.1024
  -9855773.62548  -7668322.08646  20419354.5634                   20419352.0354
  10150652.02047   7895031.30545  22376428.1024                   22376425.2934
  -5687040.12547  -5712977.48845  22894919.4614                   22894918.0634
  -2287342.47748  -1777546.31247  20175091.1804                   20175087.0664
  -3231588.50447  -2518625.71943  23962946.3834                   23962945.1174
 11  7 22 17 36 30.0000000  0  8G03G06G19G13G16G07G23G10
  -6633388.13747  -5160124.53146  20929146.7034                   20929145.1524
  -1608952.38347  -1250011.23445  22256212.2584                   22256212.0864
 -12778468.65647  -9954289.07045  21904022.1644                   21904018.3874
  -9884844.28148  -7690974.55546  20413823.0004                   20413819.8094
  10245226.17647   7968725.43445  22394424.3674                   22394422.7624
  -5737276.74247  -5752122.85245  22885359.7584                   22885358.0124
  -2255400.09848  -1752656.16447  20181170.3364                   20181165.4264
  -3236027.87147  -2522084.95743  23962102.4384                   23962100.0204
 11  7 22 17 37  0.0000000  0  8G03G06G19G13G16G07G23G10
  -6625562.72747  -5154026.80946  20930635.3054                   20930634.2734
  -1570808.96147  -1220289.09445  22263470.8524                   22263469.6254
 -12836742.41047  -9999697.14545  21892933.1954                   21892929.4614
  -9913494.88348  -7713299.70346  20408370.7344                   20408368.3244
  10339891.07047   8042490.26245  22412438.6564                   22412436.2114
  -5787551.39847  -5791297.88745  22875793.0474                   22875791.2384
  -2222959.44548  -1727377.74647  20187343.2344                   20187338.6524
  -3240016.23847  -2525192.79743  23961343.3134                   23961342.0824
 11  7 22 17 37 30.0000000  0  8G03G06G19G13G16G07G23G10
  -6617160.85247  -5147479.87546  20932234.7274                   20932232.9804
  -1532178.70347  -1190187.59445  22270822.4694                   22270820.5124
 -12894657.36747 -10044825.65246  21881912.3674                   21881909.2034
  -9941716.53948  -7735290.60946  20403000.2194                   20402998.1254
  10434650.87547   8116329.03545  22430470.8914                   22430469.3834
  -5837857.41447  -5830497.35945  22866219.4304                   22866217.3554
  -2190013.60548  -1701705.69146  20193613.1414                   20193608.3324
  -3243547.43047  -2527944.37544  23960670.3984                   23960670.7774
 11  7 22 17 38  0.0000000  0  8G03G06G19G13G16G07G23G10
  -6608180.50447  -5140482.19946  20933943.0474                   20933941.5234
  -1493061.02047  -1159706.28945  22278266.0314                   22278263.4574
 -12952209.53947 -10089671.46146  21870961.0784                   21870957.1374
  -9969506.18448  -7756944.87146  20397711.9304                   20397709.3244
  10529504.00047   8190240.54345  22448521.4064                   22448519.0004
  -5888193.27747  -5869720.10245  22856640.6024                   22856638.5824
  -2156561.42648  -1675639.07447  20199978.1094                   20199974.1134
  -3246620.54747  -2530339.04744  23960086.1724                   23960086.0124
 11  7 22 17 38 30.0000000  0  8G03G06G19G13G16G07G23G10
  -6598619.40248  -5133031.98046  20935762.5394                   20935761.2274
  -1453454.80147  -1128844.30945  22285803.1484                   22285801.5514
 -13009393.89147 -10134230.64846  21860078.8834                   21860075.2814
  -9996859.55148  -7778259.17646  20392506.7584                   20392504.7194
  10624450.62147   8264224.89145  22466589.3674                   22466586.1644
  -5938556.94547  -5908964.46145  22847056.0084                   22847054.0084
  -2122600.78148  -1649176.24646  20206440.8054                   20206437.2464
  -3249233.68447  -2532375.29344  23959588.8364                   23959587.9064
 11  7 22 17 39  0.0000000  0  8G03G06G19G13G16G07G23G10
  -6588480.57847  -5125131.60546  20937692.7114                   20937690.6724
  -1413363.80547  -1097604.56645  22293431.4304                   22293429.5864
 -13066210.63347 -10178503.41046  21849266.8134                   21849263.7544
 -10023777.82847  -7799234.44946  20387384.7584                   20387382.2194
  10719484.87147   8338277.53145  22484672.9614                   22484670.8094
  -5988951.05147  -5948232.58645  22837467.4454                   22837464.8054
  -2088134.85548  -1622319.69946  20212999.6724                   20212995.3594
  -3251390.86347  -2534056.23043  23959178.1484                   23959177.3984
 11  7 22 17 39 30.0000000  0  8G03G06G19G13G16G07G23G10
  -6577758.77347  -5116776.94946  20939732.4534                   20939731.0004
  -1372783.93747  -1065983.89545  22301153.5864                   22301151.9344
 -13122651.91847 -10222483.60246  21838526.2814                   21838522.9884
 -10050253.97747  -7819865.21946  20382346.5474                   20382343.9024
  10814609.63347   8412400.73045  22502774.4774                   22502771.6484
  -6039370.84047  -5987520.68045  22827873.1884                   22827870.7774
  -2053158.55148  -1595065.44547  20219655.3834                   20219651.0314
  -3253086.89147  -2535377.84843  23958855.7584                   23958853.5864
 11  7 22 17 40  0.0000000  0  8G03G06G19G13G16G07G23G10
  -6566448.47347  -5107963.73046  20941884.5554                   20941882.8634
  -1331711.06247  -1033979.07845  22308969.4144                   22308967.3554
 -13178709.62547 -10266164.89146  21827858.7584                   21827855.4534
 -10076281.00048  -7840146.00446  20377393.2034                   20377390.6294
  10909828.10547   8486596.90245  22520894.9454                   22520892.2734
  -6089810.48047  -6026824.27745  22818274.2034                   22818271.7274
  -2017666.86348  -1567409.61746  20226409.1254                   20226404.6684
  -3254317.25847  -2536336.58643  23958621.4774                   23958618.3444
 11  7 22 17 40 30.0000000  0  8G03G06G19G13G16G07G23G10
  -6554548.13747  -5098690.74246  20944149.0394                   20944147.1484
  -1290144.31647  -1001589.40245  22316878.8914                   22316877.7934
 -13234379.49647 -10309543.98045  21817265.3984                   21817260.9304
 -10101854.95348  -7860073.76646  20372526.8284                   20372523.8134
  11005139.00447   8560865.12145  22539030.9534                   22539028.4224
  -6140268.11747  -6066141.89845  22808672.3754                   22808670.0664
  -1981658.18448  -1539350.92646  20233261.3054                   20233257.1764
  -3255080.82447  -2536931.59443  23958475.5634                   23958473.9064
 11  7 22 17 41  0.0000000  0  8G03G06G19G13G16G07G23G10
  -6542050.98847  -5088952.70346  20946527.0634                   20946525.3164
  -1248078.31647   -968810.69945  22324884.3444                   22324883.0744
 -13289652.18047 -10352613.57045  21806746.9694                   21806743.3524
 -10126967.67248  -7879642.12146  20367748.0314                   20367745.5004
  11100546.64147   8635208.70745  22557186.9774                   22557183.5554
  -6190737.46147  -6105468.60945  22799068.2974                   22799066.0744
  -1945126.34048  -1510884.57446  20240212.9144                   20240209.4064
  -3255371.26647  -2537157.89543  23958420.7664                   23958419.1484
 11  7 22 17 41 30.0000000  0  8G03G06G19G13G16G07G23G10
  -6528954.46148  -5078747.62946  20949018.9694                   20949018.1644
  -1205511.90647   -935642.07045  22332984.5474                   22332984.1524
 -13344522.45747 -10395369.60246  21796305.9774                   21796302.6884
 -10151614.75847  -7898847.63746  20363057.7734                   20363055.8524
  11196050.99647   8709627.66845  22575360.7344                   22575357.8914
  -6241215.90647  -6144802.45345  22789462.7424                   22789459.6134
  -1908069.13748  -1482008.84846  20247264.8984                   20247260.4844
  -3255186.90247  -2537014.24243  23958457.0164                   23958455.9414
 11  7 22 17 42  0.0000000  0  8G03G06G19G13G16G07G23G10
  -6515257.07048  -5068074.34446  20951626.1724                   20951624.1804
  -1162444.13347   -902082.78945  22341179.7584                   22341179.0664
 -13398986.12547 -10437808.79346  21785941.9384                   21785938.2704
 -10175792.57848  -7917687.49646  20358457.3444                   20358454.6294
  11291651.32047   8784121.39545  22593552.9534                   22593549.6994
  -6291701.69547  -6184142.00845  22779855.4224                   22779853.0944
  -1870485.31648  -1452722.77046  20254416.8284                   20254412.6724
  -3254526.66047  -2536499.74243  23958581.1334                   23958582.2154
 11  7 22 17 42 30.0000000  0  8G03G06G19G13G16G07G23G10
  -6500948.52048  -5056924.80946  20954348.8444                   20954346.5204
  -1118865.63747   -868125.53945  22349472.7734                   22349471.5204
 -13453029.98047 -10479920.85246  21775658.0004                   21775653.9144
 -10199489.06648  -7936152.29346  20353947.6564                   20353945.1054
  11387355.63747   8858696.16045  22611764.9534                   22611762.6294
  -6342184.33647  -6223479.13345  22770249.2814                   22770246.6844
  -1832364.47748  -1423018.23847  20261670.9694                   20261666.4264
  -3253380.70347  -2535606.85243  23958801.2894                   23958798.8244
 11  7 22 17 43  0.0000000  0  8G03G06G19G13G16G07G23G10
  -6486027.93748  -5045298.37946  20957187.9924                   20957186.3094
  -1074777.06647   -833770.78545  22357862.2814                   22357861.2504
 -13506650.60947 -10521703.12946  21765453.4844                   21765450.2854
 -10222701.48848  -7954239.89546  20349530.5634                   20349527.7734
  11483162.30947   8933350.70345  22629996.2114                   22629993.3874
  -6392662.58247  -6262812.79345  22760642.8204                   22760640.7774
  -1793706.19148  -1392894.91846  20269027.4304                   20269023.0434
  -3251749.00446  -2534335.35943  23959108.4304                   23959108.9104
 11  7 22 17 43 30.0000000  0  8G03G06G19G13G16G07G23G10
  -6470495.66048  -5033195.28946  20960143.4304                   20960141.7704
  -1030179.70747   -799019.60545  22366349.0634                   22366347.8954
 -13559845.18047 -10563153.40646  21755330.8754                   21755327.7234
 -10245428.03148  -7971948.88346  20345205.9224                   20345202.8094
  11579069.07047   9008083.21545  22648247.0864                   22648244.3014
  -6443136.27047  -6302142.91845  22751038.3364                   22751036.0554
  -1754511.09448  -1362353.30146  20276485.8594                   20276482.0234
  -3249632.09847  -2532685.84443  23959513.7114                   23959510.7424
 11  7 22 17 44  0.0000000  0  8G03G06G19G13G16G07G23G10
  -8029778.63348  -6248220.98846  20663422.0394                   20663421.0704
  -2560500.37147  -1991477.27045  22075139.0474                   22075136.9064
 -15188040.62147 -11831877.09046  21445495.9384                   21445492.2304
 -11843095.22348  -9216884.36346  20041180.2814                   20041177.1884
  10099648.92647   7855288.27345  22366722.7274                   22366720.1174
  -8069034.81247  -7569076.80545  22441639.9844                   22441638.1454
  -3290205.54348  -2558998.34446  19984252.8594                   19984249.1914
  -4822458.06246  -3758264.63743  23660214.9844                   23660211.8484
 11  7 22 17 44 30.0000000  0  8G03G06G19G13G16G07G23G10
  -8013029.37147  -6235169.62546  20666609.4844                   20666607.4534
  -2514894.61747  -1955940.31245  22083816.9534                   22083815.3634
 -15240381.68747 -11872662.30546  21435536.1024                   21435531.5004
 -11864850.98448  -9233836.90247  20037040.1564                   20037037.4924
  10195742.27347   7930166.17245  22385008.9384                   22385006.4964
  -8119505.74647  -7608404.77345  22432035.9534                   22432034.1564
  -3249943.61748  -2527625.43046  19991914.4064                   19991910.5944
  -4819379.00847  -3755865.32443  23660799.4534                   23660797.9614
 11  7 22 17 45  0.0000000  0  8G03G06G19G13G16G07G23G10
  -7995667.55948  -6221640.93446  20669913.1174                   20669911.1564
  -2468782.26647  -1920008.62945  22092591.7194                   22092590.5004
 -15292288.05147 -11913108.78546  21425658.4144                   21425654.3364
 -11886114.72348  -9250406.05146  20032993.5314                   20032990.9924
  10291929.63347   8005117.33645  22403312.4224                   22403309.8134
  -8169970.58647  -7647728.00445  22422432.7974                   22422430.4494
  -3209144.80948  -2495834.17246  19999678.6884                   19999674.6484
  -4815816.20747  -3753089.18044  23661479.7114                   23661476.9844
 11  7 22 17 45 30.0000000  0  8G03G06G19G13G16G07G23G10
  -7977696.70748  -6207637.67246  20673333.3204                   20673330.2624
  -2422168.05947  -1883685.87545  22101462.8364                   22101461.4694
 -15343760.16847 -11953216.88345  21415862.9614                   21415859.5004
 -11906887.88348  -9266592.92246  20029040.9304                   20029038.0634
  10388205.41447   8080137.39145  22421632.0634                   22421630.6604
  -8220432.64547  -7687049.04745  22412829.6254                   22412829.0164
  -3167812.69548  -2463627.35246  20007543.9144                   20007539.8754
  -4811773.35947  -3749938.88344  23662247.2274                   23662246.9264
 11  7 22 17 46  0.0000000  0  8G03G06G19G13G16G07G23G10
  -7959123.17648  -6193164.79345  20676867.4844                   20676865.1254
  -2375058.76647  -1846977.35245  22110426.8914                   22110425.6884
 -15394801.37547 -11992989.23445  21406150.0234                   21406146.8244
 -11927174.34048  -9282400.55546  20025180.3134                   20025177.5514
  10484561.47747   8155220.01245  22439969.1484                   22439966.9264
  -8270897.57447  -7726372.33245  22403227.2814                   22403225.2664
  -3125953.59048  -2431009.88746  20015509.4534                   20015504.8134
  -4807256.69547  -3746419.49243  23663108.6564                   23663106.5634
 11  7 22 17 46 30.0000000  0  8G03G06G19G13G16G07G23G10
  -7939939.90648  -6178216.77345  20680517.7504                   20680515.8364
  -2327448.96147  -1809878.80145  22119486.6484                   22119486.0004
 -15445402.08247 -12032418.31646  21396521.3754                   21396518.5944
 -11946965.38347  -9297822.15246  20021414.2504                   20021411.7154
  10581002.51247   8230368.84045  22458321.5554                   22458318.6054
  -8321357.98447  -7765692.10945  22393624.6174                   22393622.5004
  -3083561.02348  -2397976.73046  20023576.2424                   20023571.7854
  -4802260.25046  -3742526.17644  23664056.8594                   23664058.2464
 11  7 22 17 47  0.0000000  0  8G03G06G19G13G16G07G23G10
  -7920146.66848  -6162793.45346  20684284.5704                   20684282.2624
  -2279338.91847  -1772390.44945  22128642.1414                   22128640.0984
 -15495558.66047 -12071501.30946  21386976.7504                   21386973.6374
 -11966258.65248  -9312855.85546  20017742.3524                   20017739.5084
  10677526.90647   8305582.63745  22476689.3834                   22476686.0824
  -8371812.96547  -7805007.64145  22384023.1334                   22384020.7504
  -3040634.59448  -2364527.57046  20031744.8524                   20031740.3014
  -4796784.23847  -3738259.21943  23665100.2274                   23665099.6914
 11  7 22 17 47 30.0000000  0  8G03G06G19G13G16G07G23G10
  -7899750.04748  -6146899.98046  20688166.0864                   20688163.9574
  -2230736.50847  -1734518.47345  22137890.6644                   22137889.0204
 -15545275.54347 -12110241.69546  21377516.5394                   21377511.7894
 -11985058.96948  -9327505.44146  20014164.7424                   20014162.0234
  10774125.71547   8380854.40645  22495071.3134                   22495068.9064
  -8422268.58247  -7844323.66845  22374421.7114                   22374419.4774
  -2997181.57048  -2330668.09846  20040013.7344                   20040009.5044
  -4790835.96546  -3733624.17243  23666229.7034                   23666230.7894
 11  7 22 17 48  0.0000000  0  9G03G06G19G13G16G07G23G10G08
  -7878752.37148  -6130538.14146  20692161.1564                   20692159.5864
  -2181644.94947  -1696265.30945  22147232.4534                   22147231.3324
 -15594551.58647 -12148638.58646  21368139.1954                   21368135.2114
 -12003366.38748  -9341770.96546  20010681.1414                   20010678.3714
  10870795.12147   8456181.21545  22513466.5164                   22513465.1214
  -8472726.59047  -7883641.57845  22364820.0634                   22364817.8984
  -2953204.25048  -2296400.07446  20048382.6724                   20048377.7384
  -4784417.71947  -3728622.98843  23667453.6174                   23667451.5664
  -3292129.39514                  24480440.320
 11  7 22 17 48 30.0000000  0  9G03G06G19G13G16G07G23G10G08
  -7857158.35948  -6113711.65246  20696271.0084                   20696268.5514
  -2132069.83647  -1657635.34845  22156666.6884                   22156665.5274
 -15643389.15647 -12186693.80946  21358844.8914                   21358841.4494
 -12021183.61748  -9355654.52046  20007290.7424                   20007287.6054
  10967528.59447   8531557.87945  22531874.1414                   22531873.3754
  -8523191.27047  -7922964.66445  22355217.2974                   22355214.8554
  -2908707.50048  -2261727.29346  20056850.2194                   20056845.1804
  -4777534.76646  -3723259.68443  23668763.1174                   23668761.0234
  -3351812.875 5                  24469086.977
 11  7 22 17 49  0.0000000  0  9G03G06G19G13G16G07G23G10G08
  -7834960.18748  -6096414.37946  20700495.3594                   20700492.5044
  -2082004.23847  -1618623.19545  22166193.4144                   22166192.0784
 -15691776.84447 -12224398.48846  21349637.8914                   21349634.1334
 -12038500.91447  -9369148.52046  20003995.5234                   20003992.5394
  11064332.07047   8606989.14845  22550295.4534                   22550293.9574
  -8573653.73047  -7962286.05145  22345613.8284                   22345612.6214
  -2863683.27348  -2226643.50046  20065418.0084                   20065413.6414
  -4770180.14847  -3717528.78543  23670163.0084                   23670160.9534
  -3411575.25815                  24457711.516
 11  7 22 17 49 30.0000000  0  9G03G06G19G13G16G07G23G10G08
  -7812150.84048  -6078640.85546  20704835.0084                   20704833.1414
  -2031442.33247  -1579224.30945  22175815.8134                   22175813.1994
 -15739705.14547 -12261745.18446  21340517.3594                   21340514.1054
 -12055309.19148  -9382245.87946  20000796.9144                   20000794.1804
  11161210.37547   8682478.69944  22568730.3524                   22568729.5554
  -8624106.59047  -8001599.91845  22336013.2974                   22336011.0314
  -2818125.15648  -2191143.68446  20074087.1414                   20074082.6454
  -4762347.21146  -3711425.32843  23671655.5004                   23671652.6914
  -3471410.113 4                  24446323.570
 11  7 22 17 50  0.0000000  0  9G03G06G19G13G16G07G23G10G08
  -7788726.68048  -6060388.25846  20709293.1174                   20709290.9804
  -1980381.07847  -1539436.30145  22185531.3754                   22185529.8954
 -15787167.23447 -12298728.59846  21331485.6254                   21331482.1644
 -12071601.98848  -9394941.55546  19997696.4304                   19997694.2034
  11258165.96147   8758028.49245  22587181.3674                   22587179.0394
  -8674545.12947  -8040902.64845  22326414.5784                   22326413.0664
  -2772029.55948  -2155225.04746  20082859.0704                   20082854.0434
  -4754032.43446  -3704946.19943  23673234.9144                   23673236.2234
  -3531313.090 5                  24434925.922
 11  7 22 17 50 30.0000000  0  9G03G06G19G13G16G07G23G10G08
  -7764690.06648  -6041658.43446  20713866.6254                   20713865.0204
  -1928823.99647  -1499261.94945  22195343.0234                   22195341.6174
 -15834163.05948 -12335348.68446  21322543.0394                   21322539.7584
 -12087380.70348  -9407236.66446  19994693.9614                   19994691.0124
  11355194.11747   8833634.82845  22605645.1564                   22605643.0124
  -8724971.26247  -8080195.69545  22316819.4614                   22316817.6374
  -2725399.23448  -2118889.75046  20091732.3444                   20091727.6374
  -4745239.01647  -3698094.29343  23674910.7664                   23674908.9734
  -3591286.984 5                  24423510.633
 11  7 22 17 51  0.0000000  0  9G03G06G19G13G16G07G23G10G08
  -7740041.81248  -6022452.00046  20718557.7034                   20718555.5664
  -1876773.14847  -1458702.85545  22205247.8984                   22205246.3674
 -15880690.03947 -12371603.44146  21313688.4774                   21313685.3324
 -12102643.72747  -9419129.92246  19991789.2664                   19991786.8284
  11452292.26647   8909295.70744  22624122.1884                   22624120.2544
  -8775385.04747  -8119479.14845  22307225.5004                   22307223.3874
  -2678235.09048  -2082138.49246  20100707.3754                   20100702.7894
  -4735968.48846  -3690870.46543  23676671.7194                   23676672.7894
  -3651332.312 6                  24412085.508
 11  7 22 17 51 30.0000000  0  9G03G06G19G13G16G07G23G10G08
  -7714777.62148  -6002765.58646  20723364.4844                   20723363.1844
  -1824224.65647  -1417755.98845  22215247.5004                   22215246.2194
 -15926741.04748 -12407487.31646  21304925.2194                   21304921.7154
 -12117384.66848  -9430616.36346  19988984.1884                   19988981.6644
  11549463.52747   8985013.59444  22642613.8054                   22642610.4224
  -8825781.25447  -8158748.88345  22297635.9694                   22297633.4104
  -2630532.86748  -2044967.94546  20109784.8204                   20109780.1954
  -4726216.65246  -3683271.72743  23678529.6024                   23678527.4384
  -3711444.36715                  24400641.883
 11  7 22 17 52  0.0000000  0  9G03G06G19G13G16G07G23G10G08
  -7688907.99648  -5982607.43746  20728287.9384                   20728286.2734
  -1771190.34847  -1376430.55945  22225339.1644                   22225337.1054
 -15972323.71147 -12443006.26246  21296250.9694                   21296247.4804
 -12131612.03548  -9441702.61746  19986277.1254                   19986274.2934
  11646695.43847   9060778.70744  22661115.8674                   22661112.4804
  -8876169.46147  -8198012.41045  22288047.5394                   22288044.0204
  -2582303.43048  -2007386.57046  20118962.6804                   20118958.1994
  -4715994.73046  -3675306.53142  23680472.6954                   23680472.1564
  -3771633.42215                  24389191.234
 11  7 22 17 52 30.0000000  0  8G03G06G19G13G16G07G23G10
  -7662430.65648  -5961975.74646  20733326.1334                   20733324.6294
  -1717668.68047  -1334725.35945  22235523.7424                   22235522.5514
 -16017432.81647 -12478156.19946  21287667.3834                   21287663.4104
 -12145321.35548  -9452385.19946  19983668.0474                   19983665.3984
  11743988.69547   9136591.61745  22679629.8674                   22679627.3594
  -8926546.63347  -8237267.30945  22278460.7424                   22278458.4104
  -2533544.69148  -1969392.75846  20128241.1884                   20128236.4384
  -4705300.66446  -3666973.62142  23682510.4694                   23682507.6174
 11  7 22 17 53  0.0000000  0  8G03G06G19G13G16G07G23G10
  -7635343.14848  -5940868.59846  20738480.7734                   20738479.4534
  -1663657.88347  -1292639.02045  22245802.0944                   22245800.7624
 -16062062.71148 -12512932.71946  21279174.7894                   21279170.6724
 -12158507.58248  -9462660.17246  19981158.7034                   19981156.2734
  11841344.27047   9212453.09044  22698156.1564                   22698153.2774
  -8976908.94947  -8276510.65645  22268876.7114                   22268874.8364
  -2484253.85948  -1930984.33246  20137620.9304                   20137616.7274
  -4694132.25445  -3658270.87542  23684631.8134                   23684632.1684
 11  7 22 17 53 30.0000000  0  9G03G06G19G13G16G07G23G10G08
  -7607645.99648  -5919286.39146  20743751.6414                   20743749.2194
  -1609159.50047  -1250172.77345  22256173.2274                   22256171.6684
 -16106210.96948 -12547333.92246  21270773.5474                   21270769.4064
 -12171169.77048  -9472526.81646  19978749.2034                   19978746.5394
  11938760.39847   9288361.73044  22716694.1484                   22716691.7774
  -9027256.25447  -8315742.28545  22259295.8754                   22259294.0164
  -2434431.98448  -1892162.10946  20147101.6644                   20147097.4494
  -4682490.26646  -3649199.30942  23686851.2974                   23686848.5204
                                  24354663.063
 11  7 22 17 54  0.0000000  0  9G03G06G19G13G16G07G23G10G08
  -7579340.04748  -5897229.79346  20749137.9454                   20749135.4304
  -1554175.25447  -1207327.87945  22266635.7734                   22266633.8134
 -16149875.23447 -12581358.00046  21262464.1724                   21262461.2344
 -12183306.40648  -9481983.91846  19976439.9694                   19976436.7704
  12036234.57847   9364315.61745  22735242.6804                   22735239.9414
  -9077588.29747  -8354962.03945  22249718.0704                   22249716.0434
  -2384079.88748  -1852926.73446  20156683.4614                   20156678.8674
  -4670376.31245  -3639760.00042  23689156.6024                   23689154.2974
  -3268914.672 5                  24343155.328
 11  7 22 17 54 30.0000000  0  9G03G06G19G13G16G07G23G10G08
  -7550431.35948  -5874703.53146  20754638.9534                   20754636.9574
  -1498711.79747  -1164109.59445  22277190.4224                   22277189.2114
 -16193058.46547 -12615007.24246  21254246.8054                   21254243.9414
 -12194921.19548  -9491034.39846  19974229.6804                   19974226.7304
  12133759.66447   9440309.17645  22753801.6954                   22753798.9494
  -9127909.58647  -8394173.42245  22240143.0164                   22240140.4144
  -2333203.64848  -1813282.91446  20166364.8134                   20166360.6454
  -4657796.93746  -3629957.82042  23691549.3984                   23691547.8954
  -3329471.56215                  24331632.164
 11  7 22 17 55  0.0000000  0  9G03G06G19G13G16G07G23G10G08
  -7520926.35948  -5851712.62546  20760252.9844                   20760251.5394
  -1442776.69147  -1120523.80545  22287834.0944                   22287833.1054
 -16235764.39148 -12648284.57046  21246119.8914                   21246117.0354
 -12206018.48848  -9499681.63746  19972117.9694                   19972115.1914
  12231327.36347   9516335.92245  22772368.1414                   22772365.4304
  -9178225.89547  -8433380.89545  22230567.8444                   22230564.7304
  -2281809.93448  -1773235.87946  20176144.7034                   20176140.1764
  -4644758.56646  -3619798.16042  23694032.6254                   23694028.4884
  -3390112.078 5                  24320089.914
 11  7 22 17 55 30.0000000  0  9G03G06G19G13G16G07G23G10G08
  -7490827.10548  -5828258.63346  20765981.0004                   20765979.7734
  -1386372.65647  -1076572.59045  22298568.1724                   22298565.7384
 -16277991.74247 -12681188.99246  21238084.8134                   21238081.0944
 -12216597.97748  -9507925.39146  19970104.6804                   19970101.7344
  12328934.55547   9592393.45744  22790941.9384                   22790939.6214
  -9228537.84847  -8472584.97745  22220993.6884                   22220990.5594
  -2229900.73848  -1732787.17646  20186022.8674                   20186018.1954
  -4631264.01245  -3609282.84042  23696595.1724                   23696597.0704
  -3450837.60215                  24308533.328
 11  7 22 17 56  0.0000000  0  9G03G06G19G13G16G07G23G10G08
  -7460139.61748  -5804346.28946  20771820.4694                   20771818.5744
  -1329506.66447  -1032261.44145  22309389.4064                   22309388.1524
 -16319743.82448 -12713723.05546  21230139.4384                   21230136.0594
 -12226663.56648  -9515768.70346  19968189.3674                   19968186.2664
  12426573.55547   9668475.76645  22809521.9774                   22809519.6954
  -9278850.58247  -8511789.68045  22211419.2814                   22211416.5864
  -2177482.29348  -1691941.65646  20195998.0704                   20195992.7034
  -4617319.53546  -3598417.06642  23699251.2584                   23699249.6414
  -3511653.465 6                  24296960.547
 11  7 22 17 56 30.0000000  0  9G03G06G19G13G16G07G23G10G08
  -7428865.82048  -5779977.10546  20777772.1804                   20777770.3484
  -1272181.18047   -987592.22345  22320297.8054                   22320296.5634
 -16361019.05148 -12745885.53546  21222285.1414                   21222281.4384
 -12236215.27348  -9523211.59846  19966371.8914                   19966368.8244
  12524241.53547   9744580.64544  22828106.6174                   22828105.8634
  -9329164.53547  -8550995.34445  22201844.8134                   22201842.1954
  -2124556.71548  -1650700.96546  20206069.3984                   20206064.4844
  -4602927.37545  -3587202.40242  23701988.0704                   23701988.7424
  -3572560.937 6                  24285372.078
 11  7 22 17 57  0.0000000  0  9G03G06G19G13G16G07G23G10G08
  -7397009.85548  -5755154.27346  20783833.9924                   20783832.5274
  -1214401.69547   -942569.25845  22331292.9924                   22331290.7234
 -16401819.04348 -12777677.70746  21214520.9774                   21214516.8874
 -12245255.07848  -9530255.61346  19964651.3054                   19964648.0634
  12621932.85547   9820703.71144  22846697.3674                   22846695.4414
  -9379482.88347  -8590204.43745  22192269.4844                   22192267.1724
  -2071128.45748  -1609068.58246  20216236.2114                   20216231.6954
  -4588092.48046  -3575642.68742  23704813.3984                   23704812.4144
  -3633563.75046  -3284614.02353  24273763.6954                   24273760.5124
 11  7 22 17 57 30.0000000  0  9G03G06G19G13G16G07G23G10G08
  -7364570.80547  -5729877.07446  20790006.5314                   20790004.8284
  -1156167.78947   -897192.19945  22342375.0084                   22342373.2504
 -16442139.43447 -12809096.15646  21206847.7504                   21206843.7464
 -12253779.72348  -9536898.18446  19963028.8914                   19963026.0314
  12719647.35947   9896844.87145  22865292.8594                   22865289.8324
  -9429803.28547  -8629415.10945  22182693.9844                   22182691.3984
  -2017196.66048  -1567043.82446  20226498.9384                   20226494.7934
                  -3146900.77316  23707790.0944
  -3694660.04746  -3332221.42243  24262137.6724                   24262135.7234
 11  7 22 17 58  0.0000000  0  9G03G06G19G13G16G07G23G10G08
  -7331551.89548  -5704148.05545  20796290.1334                   20796288.7774
  -1097483.32447   -851464.03545  22353541.9844                   22353540.5314
 -16481980.50047 -12840141.10946  21199266.3674                   21199262.7504
 -12261789.95348  -9543139.92246  19961504.9224                   19961501.7854
  12817380.97347   9973000.88744  22883891.3204                   22883887.8444
  -9480127.45347  -8668628.72745  22173117.1254                   22173115.7344
  -1962764.22348  -1524628.95346  20236857.0554                   20236853.5514
                  -3131183.551 5  23710791.125
  -3755852.45746  -3379903.69543  24250491.8984                   24250490.8674
 11  7 22 17 58 30.0000000  0  9G03G06G19G13G16G07G23G10G08
  -7297950.52348  -5677965.15646  20802684.3054                   20802682.3594
  -1038346.46947   -805383.36345  22364794.4924                   22364793.2154
 -16521336.28548 -12870807.93046  21191777.4924                   21191773.8324
 -12269280.97348  -9548977.06646  19960079.4144                   19960076.3954
  12915134.84847  10049172.70744  22902492.2114                   22902490.0164
  -9530451.46547  -8707842.21545  22163541.0084                   22163539.1564
  -1907828.60248  -1481821.99646  20247311.2894                   20247306.7854
                  -3115023.695 7  23713859.414
  -3817137.44946  -3427658.19143  24238829.7114                   24238828.3834
 11  7 22 17 59  0.0000000  0  9G03G06G19G13G16G07G23G10G08
  -7263764.14148  -5651326.40646  20809189.8054                   20809187.7154
   -978755.52047   -758948.85945  22376135.1884                   22376133.2424
 -16560201.37548 -12901092.37946  21184382.0084                   21184378.4264
 -12276248.36348  -9554406.19946  19958753.8444                   19958750.6094
  13012910.97346  10125361.86344  22921098.5084                   22921096.0864
  -9580771.53148  -8747052.61745  22153965.9384                   22153964.4614
  -1852387.82448  -1438621.41846  20257861.0234                   20257857.1564
                  -3098419.770 6  23717021.617
  -3878511.82446  -3475482.30143  24227150.3054                   24227148.7934
 11  7 22 17 59 30.0000000  0  9G03G06G19G13G16G07G23G10G08
  -7228990.85248  -5624230.34446  20815807.0784                   20815804.5554
   -918709.53947   -712159.79745  22387561.6564                   22387560.1294
 -16598570.75448 -12930990.55146  21177080.7114                   21177076.4184
 -12282687.71948  -9559423.87946  19957528.2114                   19957525.3484
  13110709.65647  10201568.58244  22939708.8984                   22939706.0124
  -9631084.16847  -8786257.23846  22144391.4774                   22144390.0744
  -1796439.57848  -1395025.39846  20268507.6644                   20268503.0984
                  -3081369.656 6  23720268.820
  -3939973.14146  -3523374.16843  24215454.7894                   24215453.3874
 11  7 22 18  0  0.0000000  0  9G03G06G19G13G16G07G23G10G08
  -7193631.82447  -5596677.84445  20822535.3054                   20822532.8674
   -858210.14847   -665017.42645  22399073.7114                   22399072.4064
 -16636442.20348 -12960500.73446  21169873.2814                   21169869.6294
 -12288597.93048  -9564029.23446  19956403.3364                   19956400.9224
  13208528.39147  10277790.98444  22958323.1174                   22958321.2424
  -9681389.15647  -8825455.92645  22134818.2664                   22134817.8094
  -1739985.12948  -1351034.94146  20279250.5634                   20279245.8164
                  -3063874.766 6  23723596.797
  -4001521.42646  -3571333.80143  24203742.0634                   24203741.5514
 11  7 22 18  0 30.0000000  0  9G03G06G19G13G16G07G23G10G08
  -7157692.81648  -5568673.41846  20829374.5784                   20829372.2384
   -797264.00447   -617526.92245  22410672.1804                   22410669.9804
 -16673818.65647 -12989625.20746  21162761.0234                   21162756.6684
 -12293982.64848  -9568225.10546  19955378.8444                   19955376.2384
  13306360.93447  10354024.10944  22976940.2734                   22976938.0514
  -9731690.32047  -8864651.60245  22125246.6254                   22125245.0084
  -1683030.47748  -1306654.70346  20290089.2274                   20290084.8754
                  -3045941.223 6  23727010.672
  -4063161.68746  -3619365.15243  24192011.3914                   24192012.8524
 11  7 22 18  1  0.0000000  0  9G03G06G19G13G16G07G23G10G08
  -7121169.72748  -5540213.86345  20836324.8674                   20836321.9924
   -735867.91047   -569685.80145  22422354.8054                   22422353.1484
 -16710693.27047 -13018358.64846  21155743.9694                   21155740.0274
 -12298835.69948  -9572006.71146  19954455.4384                   19954452.1454
  13404210.01647  10430270.11744  22995560.2584                   22995558.0044
  -9781982.63347  -8903840.37945  22115676.9844                   22115674.6884
  -1625572.13748  -1261882.00446  20301022.8754                   20301018.7464
                  -3027565.523 6  23730508.945
  -4124889.49246  -3667464.66043  24180264.9064                   24180264.9614
 11  7 22 18  1 30.0000000  0  9G03G06G19G13G16G07G23G10G08
  -7084068.84048  -5511304.07846  20843385.0004                   20843382.2074
   -674028.85947   -521499.55945  22434122.4694                   22434120.4264
 -16747068.75048 -13046703.14846  21148821.9614                   21148818.1994
 -12303161.21148  -9575377.23046  19953632.2114                   19953629.2114
  13502069.07447  10506523.90244  23014182.2974                   23014179.5354
  -9832270.37947  -8943025.61345  22106106.9614                   22106104.8554
  -1567615.94548  -1216721.34446  20312051.6884                   20312046.9344
                  -3008754.395 6  23734083.023
  -4186709.49246  -3715636.02743  24168502.0164                   24168500.8834
 11  7 22 18  2  0.0000000  0  9G03G06G19G13G16G07G23G10G08
  -7046394.86347  -5481947.73046  20850554.1484                   20850551.4734
   -611751.80147   -472971.98445  22445973.5004                   22445970.9024
 -16782946.69148 -13074659.94546  21141994.2424                   21141990.6644
 -12306961.48848  -9578338.49246  19952909.2734                   19952906.3984
  13599932.41047  10582781.04344  23032805.2344                   23032802.1604
  -9882556.90647  -8982209.87945  22096537.3674                   22096535.8794
  -1509166.40248  -1171176.27046  20323174.1724                   20323170.0314
                                  23737747.563
  -4248625.32046  -3763882.05943  24156718.5554                   24156719.1954
 11  7 22 18  2 30.0000000  0  9G03G06G19G13G16G07G23G10G08
  -7008148.32047  -5452145.22345  20857831.6884                   20857830.6134
   -549037.86747   -424103.99645  22457907.4614                   22457905.6294
 -16818324.10248 -13102226.72746  21135262.0554                   21135258.5554
 -12310234.37548  -9580888.79346  19952286.0394                   19952283.5354
  13697798.73447  10659040.45744  23051428.5394                   23051426.1564
  -9932840.68447  -9021392.02345  22086968.9694                   22086966.1134
  -1450224.25448  -1125247.35246  20334390.8754                   20334386.8284
                                  23741494.258
  -4310635.93446  -3812201.96143  24144918.1414                   24144919.0904
 11  7 22 18  3  0.0000000  0  8G03G06G19G13G16G07G23G08
  -6969328.96147  -5421896.37546  20865219.0004                   20865216.6644
   -485887.91447   -374896.25044  22469923.6724                   22469922.6764
 -16853197.97348 -13129401.12146  21128625.3834                   21128622.0234
 -12312977.56248  -9583026.34446  19951764.5314                   19951761.4694
  13795667.25446  10735301.66444  23070052.5164                   23070048.6374
  -9983119.93747  -9060570.63345  22077400.9614                   22077397.7034
  -1390789.27348  -1078934.39546  20345700.5554                   20345697.0554
  -4372740.85246  -3860595.27343  24133101.0394                   24133101.2074
 11  7 22 18  3 30.0000000  0  8G03G06G19G13G16G07G23G08
  -6929945.35948  -5391207.85246  20872713.1564                   20872712.1604
   -422311.19147   -325355.95745  22482022.5554                   22482021.6954
 -16887573.82047 -13156187.47346  21122084.0944                   21122080.4344
 -12315197.67648  -9584756.30546  19951341.7114                   19951339.1214
  13893528.87146  10811557.41044  23088674.0554                   23088672.2384
 -10033401.61747  -9099751.14845  22067832.1334                   22067830.4614
  -1330870.06248  -1032244.13346  20357102.7194                   20357099.1684
  -4434947.38346  -3909067.85543  24121262.6334                   24121263.3874
 11  7 22 18  4  0.0000000  0  9G03G06G19G13G16G07G23G10G08
  -6889998.15247  -5360080.14846  20880315.0704                   20880313.8634
   -358308.86347   -275484.02345  22494201.4534                   22494201.1884
 -16921448.82048 -13182583.55946  21115638.2894                   21115634.2384
 -12316892.66848  -9586077.08246  19951019.1484                   19951016.2934
  13991382.11747  10887806.62544  23107296.2504                   23107294.4344
 -10083684.46947  -9138932.55146  22058263.9224                   22058262.3324
  -1270467.57848   -985177.27346  20368596.8594                   20368592.1684
  -3136893.80516                  23753137.242
  -4497255.26646  -3957619.35543  24109406.8204                   24109405.8874
 11  7 22 18  4 30.0000000  0  9G03G06G19G13G16G07G23G10G08
  -6849491.40248  -5328516.44946  20888023.0004                   20888021.2464
   -293885.60247   -225284.09445  22506460.9614                   22506460.7934
 -16954824.39848 -13208590.46546  21109286.9774                   21109282.9654
 -12318064.63748  -9586990.29747  19950796.4694                   19950794.1564
  14089222.35547  10964045.77344  23125915.0234                   23125912.0824
 -10133970.73447  -9178116.61746  22048695.1484                   22048693.8634
  -1209585.83648   -937736.97346  20380182.5474                   20380177.9654
  -3115533.008 5                  23757195.508
  -4559667.29346  -4006252.03543  24097529.7734                   24097529.6954
 11  7 22 18  5  0.0000000  0  9G03G06G19G13G16G07G23G10G08
  -6808435.94548  -5296525.15645  20895835.5784                   20895833.2704
   -229052.77347   -174765.02745  22518798.4774                   22518798.1414
 -16987707.67248 -13234213.75846  21103029.2734                   21103025.9734
 -12318721.88348  -9587502.44146  19950671.1884                   19950668.1644
  14187038.62147  11040266.18044  23144528.2034                   23144525.8284
 -10184269.35247  -9217310.32446  22039123.6414                   22039121.8674
  -1148235.34448   -889931.41846  20391856.7344                   20391853.1134
  -3093767.320 6                  23761339.836
  -4622192.64846  -4054973.03543  24085631.7974                   24085631.2624
 11  7 22 18  5 30.0000000  0  9G03G06G19G13G16G07G23G10G08
  -6766830.71948  -5264105.51646  20903753.1954                   20903750.6214
   -163810.47747   -123926.84845  22531213.8204                   22531213.6684
 -17020094.73847 -13259450.41046  21096866.0164                   21096862.6954
 -12318861.21548  -9587611.01246  19950644.6254                   19950641.4024
  14284830.29347  11116467.44144  23163136.9304                   23163135.4924
 -10234577.60947  -9256511.55545  22029550.3834                   22029547.9774
  -1086415.50048   -841760.14146  20403620.9614                   20403616.6094
  -3071596.35215                  23765560.852
  -4684829.57846  -4103780.94943  24073712.1954                   24073711.5594
 11  7 22 18  6  0.0000000  0  9G03G06G19G13G16G07G23G10G08
  -6724680.39548  -5231261.10246  20911773.6564                   20911772.4774
    -98163.66447    -72773.51245  22543705.8444                   22543704.7464
 -17051987.25048 -13284301.68446  21090797.7734                   21090793.4454
 -12318485.16048  -9587317.98846  19950715.9224                   19950713.2034
  14382592.66047  11192645.85544  23181740.7814                   23181738.4924
 -10284898.20347  -9295722.38745  22019974.4064                   22019971.9924
  -1024130.74248   -793226.57846  20415473.6564                   20415469.3444
  -3049024.973 5                  23769856.586
  -4747581.32446  -4152678.42243  24061770.6644                   24061770.3284
 11  7 22 18  6 30.0000000  0  9G03G06G19G13G16G07G23G10G08
  -6681986.18448  -5197992.89845  20919898.1334                   20919896.7814
    -32114.29347    -21306.48045  22556275.3054                   22556273.6454
 -17083383.39548 -13308766.19146  21084822.8754                   21084819.0044
 -12317592.78948  -9586622.64546  19950886.0394                   19950882.6134
  14480323.72347  11268799.91044  23200338.7344                   23200335.5864
 -10335230.54747  -9334942.38345  22010396.2274                   22010394.2464
   -961382.64148   -744331.98446  20427414.2584                   20427409.8324
  -3026054.930 5                  23774224.773
  -4810447.56646  -4201665.04343  24049807.9304                   24049807.8914
 11  7 22 18  7  0.0000000  0  9G03G06G19G13G16G07G23G10G08
  -6638748.36348  -5164301.08645  20928126.1644                   20928124.4614
     34336.71547     30473.50445  22568920.1564                   22568919.3484
 -17114279.82848 -13332841.29746  21078943.3674                   21078939.9144
 -12316181.80548  -9585523.18047  19951154.6954                   19951151.7384
  14578023.02347  11344929.20744  23218929.8914                   23218927.5944
 -10385572.63347  -9374169.96145  22000816.7274                   22000814.8594
   -898171.34448   -695076.44546  20439442.7974                   20439438.3094
  -3002685.906 5                  23778674.180
  -4873427.44946  -4250740.21543  24037823.4844                   24037823.2704
 11  7 22 18  7 30.0000000  0  9G03G06G19G13G16G07G23G10G08
  -6594975.36348  -5130192.25045  20936456.1254                   20936453.6764
    101180.65247     82559.67245  22581640.1884                   22581638.9104
 -17144682.01248 -13356531.27746  21073158.1254                   21073154.8014
 -12314258.32048  -9584024.35246  19951520.5394                   19951518.1644
  14675681.68047  11421026.80144  23237513.1094                   23237511.8524
 -10435931.09448  -9413410.28546  21991233.7734                   21991232.2304
   -834505.04348   -645466.35546  20451558.3134                   20451554.0314
  -2978926.941 5                  23783194.086
  -4936528.19147  -4299909.55143  24025815.2274                   24025815.1134
 11  7 22 18  8  0.0000000  0  8G03G06G19G13G16G07G23G08
  -6550661.59048  -5095662.04745  20944888.3594                   20944886.8524
    168422.32047    134955.76645  22594435.6484                   22594434.4344
 -17174581.18448 -13379829.29746  21067468.4774                   21067464.1054
 -12311814.68447  -9582120.21946  19951985.3134                   19951982.5904
  14773304.64847  11497096.64144  23256091.2664                   23256087.5514
 -10486298.09447  -9452657.27346  21981649.4534                   21981648.2464
   -770378.21948   -595497.42246  20463761.2034                   20463756.8714
  -4999742.71147  -4349167.52744  24013785.7504                   24013785.8244
 11  7 22 18  8 30.0000000  0  9G03G06G19G13G16G07G23G10G08
  -6505823.68448  -5060723.41845  20953420.5314                   20953418.7384
    236044.77047    187648.57045  22607303.5394                   22607303.0354
 -17203990.64548 -13402745.73446  21061871.9534                   21061868.2774
 -12308864.89148  -9579821.68746  19952546.6334                   19952544.3524
  14870875.24647  11573125.61344  23274657.0704                   23274655.8754
 -10536688.26247  -9491922.31645  21972059.9774                   21972058.2274
   -705807.47348   -545182.58246  20476048.6484                   20476044.7074
                                  23792457.320
  -5063086.71146  -4398526.38343  24001731.8284                   24001731.5204
 11  7 22 18  9  0.0000000  0  9G03G06G19G13G16G07G23G10G08
  -6460457.58648  -5025373.21145  20962053.6254                   20962051.5984
    304051.31647    240640.68044  22620244.3914                   22620244.2384
 -17232903.18048 -13425274.96546  21056370.4064                   21056365.5084
 -12305402.70748  -9577123.89146  19953205.7194                   19953202.9804
  14968397.10947  11649116.68444  23293216.3204                   23293213.5044
 -10587095.21547  -9531200.44945  21962468.4304                   21962465.9264
   -640788.83248   -494518.73046  20488421.1254                   20488417.4184
  -3100727.602 5                  23797199.789
  -5126553.88347  -4447981.31243  23989654.0164                   23989654.3324
 11  7 22 18  9 30.0000000  0  9G03G06G19G13G16G07G23G10G08
  -6414569.22748  -4989616.04346  20970785.9224                   20970784.1174
    372435.30547    293926.89145  22633257.6174                   22633257.3634
 -17261321.84847 -13447419.35246  21050962.1174                   21050957.7304
 -12301432.06647  -9574029.89546  19953961.3984                   19953958.5234
  15065863.75047  11725064.66844  23311763.5234                   23311759.7894
 -10637523.31647  -9570495.07045  21952871.7344                   21952870.1054
   -575328.46148   -443510.68746  20500877.7814                   20500874.3134
  -3075436.48015                  23802014.773
  -5190149.00047  -4497535.91843  23977553.0474                   23977552.4494
 11  7 22 18 10  0.0000000  0  9G03G06G19G13G16G07G23G10G08
  -6368160.48448  -4953453.39545  20979617.2114                   20979614.8164
    441194.54347    347505.50045  22646343.0164                   22646341.1294
 -17289245.18048 -13469177.76646  21045648.6414                   21045644.3444
 -12296952.19548  -9570539.08646  19954814.0944                   19954811.6524
  15163273.41446  11800968.29744  23330299.0784                   23330296.2624
 -10687971.78547  -9609805.54745  21943271.6644                   21943270.1914
   -509427.85948   -392159.58646  20513418.1254                   20513414.9024
                                  23806896.586
  -5253872.41847  -4547190.50843  23965427.3834                   23965425.6174
 11  7 22 18 10 30.0000000  0  9G03G06G19G13G16G07G23G10G08
  -6321229.19948  -4916883.57446  20988548.2034                   20988546.4024
    510330.88347    401377.93445  22659499.2734                   22659497.6054
 -17316667.73048 -13490545.93446  21040430.1954                   21040426.4924
 -12291958.63348  -9566648.00046  19955764.3914                   19955760.9804
  15260628.03146  11876828.98444  23348825.3594                   23348822.4734
 -10738435.92247  -9649128.21946  21933669.2584                   21933667.3794
   -443084.71148   -340463.65246  20526043.2424                   20526039.4774
  -3023729.625 5                  23811852.797
  -5317720.39147  -4596942.15643  23953276.6254                   23953275.7624
 11  7 22 18 11  0.0000000  0  9G03G06G19G13G16G07G23G10G08
  -6273783.49248  -4879912.89846  20997576.6094                   20997575.0084
    579835.65247    455537.48044  22672724.8674                   22672723.3364
 -17343594.35947 -13511527.70346  21035306.4614                   21035302.5044
 -12286457.48848  -9562361.39846  19956810.7734                   19956807.9844
  15357918.87046  11952640.01144  23367337.9144                   23367336.4774
 -10788921.91048  -9688467.94945  21924061.8284                   21924058.8984
   -376307.58648   -288429.55946  20538750.2664                   20538746.1804
  -2997320.383 5                  23816878.000
  -5381699.06647  -4646795.58644  23941102.2584                   23941100.6254
 11  7 22 18 11 30.0000000  0  9G03G06G19G13G16G07G23G10G08
  -6225832.37948  -4842548.41446  21006701.5164                   21006700.2814
    649698.94547    509976.41045  22686019.4384                   22686018.2934
 -17370031.23047 -13532127.83246  21030275.2114                   21030271.0234
 -12280455.01648  -9557684.14546  19957953.3914                   19957950.2704
  15455137.30147  12028394.57844  23385839.9694                   23385837.0274
 -10839436.52347  -9727829.96146  21914449.3204                   21914446.7384
   -309105.12548   -236064.04346  20551538.5864                   20551533.8794
  -2970552.621 5                  23821972.875
  -5445815.94147  -4696756.73844  23928900.9844                   23928900.0084
 11  7 22 18 12  0.0000000  0  9G03G06G19G13G16G07G23G10G08
  -6177371.52748  -4804786.73446  21015923.8284                   21015921.6094
    719924.91847    564697.93444  22699383.2034                   22699381.8204
 -17395970.64147 -13552340.34046  21025339.1414                   21025334.6414
 -12273944.93448  -9552611.36346  19959192.0474                   19959189.4964
  15552287.25446  12104095.77044  23404326.3984                   23404323.9104
 -10889973.23047  -9767209.19946  21904832.6954                   21904831.0044
   -241473.13348   -183363.80946  20564408.5864                   20564403.9224
  -2943421.965 6                  23827137.648
  -5510065.49647  -4746821.25444  23916673.8984                   23916674.0824
 11  7 22 18 12 30.0000000  0  9G03G06G19G13G16G07G23G10G08
  -6128402.81248  -4766629.27745  21025241.4924                   21025240.2934
    790511.18847    619700.18844  22712814.6644                   22712813.3524
 -17421411.09448 -13572164.03546  21020498.0554                   21020493.8634
 -12266926.97748  -9547142.82846  19960527.7034                   19960524.7234
  15649366.84346  12179742.17844  23422799.7504                   23422798.0664
 -10940531.34847  -9806605.11746  21895211.9064                   21895209.6374
   -173413.49648   -130330.35546  20577360.1414                   20577355.9804
  -2915930.578 5                  23832366.867
  -5574447.44147  -4796988.95744  23904423.4064                   23904422.1724
 11  7 22 18 13  0.0000000  0  9G03G06G19G13G16G07G23G10G08
  -6078927.09848  -4728076.77046  21034656.5634                   21034655.2034
    861455.93047    674981.80544  22726315.7194                   22726314.0164
 -17446350.93447 -13591597.64546  21015751.8914                   21015747.9574
 -12259399.80948  -9541277.51246  19961959.6174                   19961957.1254
  15746374.47346  12255332.47744  23441259.6484                   23441258.1134
 -10991109.64147  -9846016.74246  21885586.9454                   21885584.4654
   -104927.30948    -76964.52346  20590392.2584                   20590388.6374
  -2888080.008 6                  23837665.734
  -5638961.57047  -4847259.61344  23892147.1254                   23892146.1024
 11  7 22 18 13 30.0000000  0  9G03G06G19G13G16G07G23G10G08
  -6028951.59048  -4689134.81246  21044166.7734                   21044164.6764
    932751.78947    730536.99644  22739882.7034                   22739881.3954
 -17470793.96148 -13610644.12146  21011100.8134                   21011096.2974
 -12251367.91847  -9535018.90646  19963488.3594                   19963485.5164
  15843303.42246  12330861.49644  23459705.6564                   23459703.3134
 -11041712.96547  -9885447.88346  21875957.4844                   21875954.7384
    -36021.27048    -23271.54746  20603505.0634                   20603500.9574
  -2859876.781 5                  23843032.922
  -5703613.27047  -4897637.49644  23879843.7734                   23879843.4804
 11  7 22 18 14  0.0000000  0  9G03G06G19G13G16G07G23G10G08
  -5978476.95348  -4649803.93746  21053771.8524                   21053770.4144
   1004397.67247    786364.94544  22753517.1724                   22753514.9694
 -17494737.77047 -13629301.61346  21006544.2274                   21006540.6684
 -12242830.23848  -9528366.16046  19965112.9064                   19965110.1884
  15940153.12946  12406328.72744  23478135.4224                   23478133.2624
 -11092339.38747  -9924897.00846  21866323.7814                   21866321.3054
     33303.64548     30747.84846  20616697.0474                   20616692.9064
  -2831322.535 5                  23848466.570
  -5768401.43747  -4948121.70744  23867514.5084                   23867514.6804
 11  7 22 18 14 30.0000000  0  9G03G06G19G13G16G07G23G10G08
  -5927505.03548  -4610085.57845  21063471.3364                   21063469.2934
   1076391.44547    842463.96144  22767216.6334                   22767214.9614
 -17518180.74247 -13647568.83246  21002083.3204                   21002079.8754
 -12233785.93748  -9521318.65647  19966834.0164                   19966830.8874
  16036921.70746  12481732.75844  23496548.3444                   23496547.9414
 -11142987.90247  -9964363.38346  21856685.0554                   21856682.8204
    103045.85548     85092.39846  20629968.3834                   20629963.9924
  -2802418.898 5                  23853964.969
  -5833325.52046  -4998711.83643  23855160.0234                   23855159.1644
 11  7 22 18 15  0.0000000  0  9G03G06G19G13G16G07G23G10G08
  -5876035.14548  -4569979.18745  21073265.6094                   21073264.0044
   1148733.53147    898834.38744  22780982.9144                   22780981.3094
 -17541118.94547 -13665442.73846  20997718.6804                   20997714.8404
 -12224231.40648  -9513873.57846  19968652.0554                   19968648.9654
  16133610.12547  12557074.34044  23514948.1884                   23514946.3914
 -11193655.45747 -10003844.57045  21847043.0554                   21847040.9454
    173206.28548    139762.82446  20643319.4144                   20643315.4144
  -2773164.87915                  23859535.594
  -5898382.86346  -5049405.82043  23842778.7114                   23842779.5124
 11  7 22 18 15 30.0000000  0  9G03G06G19G13G16G07G23G10G08
  -5824067.53948  -4529484.96945  21083155.1174                   21083152.4454
   1221422.79347    955475.36745  22794815.3364                   22794814.1174
 -17563549.83247 -13682921.32046  20993449.8674                   20993445.9694
 -12214165.53147  -9506030.04346  19970567.6644                   19970564.4344
  16230217.89546  12632353.08244  23533330.7894                   23533330.4344
 -11244340.08247 -10043339.06246  21837398.1724                   21837396.3674
    243784.30148    194758.64546  20656750.1564                   20656746.0234
                                  23865166.836
  -5963572.36347  -5100202.76643  23830374.0164                   23830373.4414
 11  7 22 18 16  0.0000000  0  8G03G06G19G13G16G07G23G08
  -5771606.62148  -4488606.34046  21093137.9614                   21093136.4384
   1294454.52747   1012383.19145  22808712.4384                   22808711.3324
 -17585474.74247 -13700005.63746  20989277.8524                   20989273.1294
 -12203590.51648  -9497789.78946  19972580.2344                   19972577.3284
  16326740.80946  12707565.72343  23551700.3444                   23551697.8984
 -11295043.48047 -10082848.20346  21827749.9454                   21827747.7544
    314775.52348    250076.44946  20670259.7734                   20670254.9804
  -6028896.69147  -5151104.77044  23817944.8204                   23817944.0124
 11  7 22 18 16 30.0000000  0  8G03G06G19G13G16G07G23G08
  -5718646.55548  -4447338.78545  21103215.8444                   21103214.4384
   1367834.22747   1069562.15645  22822675.8834                   22822674.7274
 -17606884.40648 -13716688.46546  20985203.8134                   20985199.8364
 -12192497.99248  -9489146.27046  19974690.7814                   19974687.8094
  16423184.97347  12782716.96943  23570052.8834                   23570050.9104
 -11345756.86347 -10122365.10246  21818099.4844                   21818097.2344
    386185.85948    305720.82846  20683848.0394                   20683843.6994
  -6094347.85247  -5202105.62544  23805488.1884                   23805488.8634
 11  7 22 18 17  0.0000000  0  8G03G06G19G13G16G07G23G08
  -5665184.45748  -4405680.00845  21113388.9454                   21113388.3834
   1441564.60947   1127014.37144  22836706.1724                   22836705.2304
 -17627772.96148 -13732965.25046  20981229.1884                   20981224.7584
 -12180882.61748  -9480095.33246  19976900.8524                   19976898.2464
  16519553.63746  12857809.40643  23588391.5004                   23588389.0554
 -11396474.87547 -10161885.61346  21808448.3364                   21808445.5824
    458018.56648    361694.35246  20697517.3134                   20697513.4614
  -6159920.82046  -5253201.37544  23793010.5634                   23793010.7894
 11  7 22 18 17 30.0000000  0  8G03G06G19G13G16G07G23G08
  -5611219.03148  -4363629.02346  21123658.1254                   21123657.4064
   1515646.67247   1184740.62144  22850804.1254                   22850802.8134
 -17648135.78147 -13748832.36346  20977353.5474                   20977350.3554
 -12168740.92648  -9470634.28546  19979211.3984                   19979208.3244
  16615848.22747  12932844.11743  23606715.6174                   23606712.5554
 -11447193.65247 -10201406.73045  21798796.8444                   21798794.1374
    530275.07848    417998.09046  20711267.3594                   20711263.0354
  -6225612.42246  -5304389.56244  23780509.4924                   23780509.4774
 11  7 22 18 18  0.0000000  0  8G03G06G19G13G16G07G23G08
  -5556757.06648  -4321191.14845  21134022.4064                   21134021.0354
   1590072.83247   1242735.01645  22864967.7894                   22864965.6564
 -17667976.58647 -13764292.69546  20973577.5634                   20973574.5314
 -12156077.40248  -9460766.60946  19981620.9454                   19981618.2544
  16712062.21547  13007816.01243  23625024.5004                   23625021.3204
 -11497917.16847 -10240931.52046  21789144.3594                   21789141.4844
    602948.43448    474626.63746  20725097.0634                   20725092.2274
  -6291427.57447  -5355674.01644  23767984.7424                   23767985.1844
 11  7 22 18 18 30.0000000  0  8G03G06G19G13G16G07G23G08
  -5501794.74248  -4278363.35946  21144481.7504                   21144480.2304
   1664846.91047   1301000.51244  22879195.4304                   22879194.6994
 -17687288.33647 -13779340.79746  20969903.0634                   20969898.9654
 -12142885.84848  -9450487.49246  19984131.6024                   19984129.4304
  16808199.82846  13082728.36343  23643318.2734                   23643315.4264
 -11548638.69148 -10280454.77346  21779492.7034                   21779490.3444
    676042.79748    531583.24646  20739006.2034                   20739002.3404
  -6357359.93447  -5407049.83244  23755439.6254                   23755439.1724
 11  7 22 18 19  0.0000000  0  8G03G06G19G13G16G07G23G08
  -5446315.04348  -4235132.44545  21155039.1724                   21155037.5904
   1739985.07447   1359549.69944  22893493.7034                   22893493.3874
 -17706051.53948 -13793961.44946  20966332.8594                   20966328.6804
 -12129147.59048  -9439782.35946  19986745.8364                   19986743.5354
  16904277.98047  13157594.45743  23661602.9224                   23661599.4344
 -11599339.14548 -10319961.60546  21769844.4224                   21769841.9534
    749574.45748    588880.59846  20752998.9694                   20752995.0234
  -6423390.84847  -5458502.46944  23742873.6724                   23742873.6524
 11  7 22 18 19 30.0000000  0  8G03G06G19G13G16G07G23G08
  -5390321.38748  -4191501.03145  21165693.9384                   21165692.0314
   1815483.83647   1418379.90244  22907861.3524                   22907860.7304
 -17724266.34448 -13808154.78146  20962866.8444                   20962862.1414
 -12114863.39848  -9428651.83246  19989463.9694                   19989461.7504
  17000293.77047  13232411.90643  23679874.8984                   23679870.3444
 -11650018.61348 -10359452.09045  21760199.8834                   21760197.2464
    823540.55948    646516.50846  20767074.0234                   20767069.6454
  -6489521.56647  -5510032.85944  23730289.1804                   23730288.1764
 11  7 22 18 20  0.0000000  0  8G03G06G19G13G16G07G23G08
  -5333802.40248  -4147460.28545  21176449.4774                   21176447.7424
   1891354.35547   1477499.76244  22922299.0474                   22922297.5784
 -17741918.10248 -13821909.36346  20959507.4224                   20959503.9774
 -12100019.84848  -9417085.44146  19992289.1564                   19992285.8594
  17096259.34046  13307190.21543  23698135.3914                   23698132.2074
 -11700663.03548 -10398915.25846  21750562.6644                   21750559.5984
    897952.51248    704499.82046  20781234.2274                   20781230.0784
  -6555738.54347  -5561630.46144  23717688.4064                   23717688.2344
 11  7 22 18 20 30.0000000  0  9G03G06G19G13G16G07G23G10G08
  -5276758.34048  -4103010.37945  21187304.4224                   21187302.5354
   1967596.20747   1536908.96545  22936807.5554                   22936806.9694
 -17759003.46948 -13835222.62546  20956256.3834                   20956252.9184
 -12084614.26648  -9405081.10547  19995220.3364                   19995217.5394
  17192174.95346  13381929.63744  23716387.0944                   23716384.8364
 -11751269.39548 -10438348.77046  21740933.2114                   21740929.9104
    972810.50048    762830.68846  20795479.4694                   20795475.3444
  -3093736.13315                  23925206.227
  -6622039.59447  -5613293.56244  23705072.9844                   23705072.1414
 11  7 22 18 21  0.0000000  0  8G03G06G19G13G16G07G23G08
  -5219191.64848  -4058153.21545  21198259.2894                   21198256.9104
   2044206.39546   1596605.16044  22951385.6724                   22951385.7234
 -17775522.34047 -13848094.46146  20953112.7114                   20953108.7814
 -12068647.71148  -9392639.63346  19998258.8134                   19998255.7034
  17288038.11346  13456628.16043  23734628.5944                   23734627.1644
 -11801837.64548 -10477752.61345  21731310.6094                   21731305.6884
   1048111.74648    821506.94946  20809808.8834                   20809804.3284
  -6688425.59447  -5665022.87544  23692439.1884                   23692438.1954
 11  7 22 18 21 30.0000000  0  9G03G06G19G13G16G07G23G10G08
  -5161106.63348  -4012892.17645  21209312.2344                   21209310.1454
   2121180.30947   1656584.82444  22966034.0554                   22966032.6414
 -17791475.92248 -13860525.80546  20950077.1644                   20950072.6764
 -12052122.02348  -9379762.47746  20001403.5234                   20001400.3244
  17383845.33646  13531283.09443  23752861.0234                   23752858.3754
 -11852369.20348 -10517127.84846  21721694.2194                   21721690.7344
   1123851.93448    880525.25846  20824221.6954                   20824217.8754
                                  23938047.594
  -6754897.96547  -5716819.48043  23679789.9064                   23679788.4344
 11  7 22 18 22  0.0000000  0  8G03G06G19G13G16G07G23G08
  -5102502.78948  -3967226.85245  21220463.9304                   21220461.2854
   2198518.37547   1716848.24644  22980751.6254                   22980749.1024
 -17806860.19148 -13872513.51246  20947149.9144                   20947145.0984
 -12035034.36347  -9366447.43746  20004654.8204                   20004652.5634
  17479597.63346  13605895.24643  23771081.6414                   23771078.7274
 -11902860.34848 -10556471.58646  21712085.9454                   21712084.1294
   1200032.03548    939886.32846  20838718.4384                   20838714.0594
  -6821454.25047  -5768681.45344  23667124.8284                   23667122.5634
 11  7 22 18 22 30.0000000  0  8G03G06G19G13G16G07G23G08
  -5043369.90248  -3921149.27745  21231716.8834                   21231715.0394
   2276230.40247   1777403.03944  22995537.9144                   22995536.5944
 -17821662.25448 -13884047.58246  20944332.9534                   20944328.3014
 -12017372.31247  -9352684.80546  20008016.1094                   20008013.1334
  17575305.82046  13680473.04743  23789293.7034                   23789292.0944
 -11953298.14848 -10595773.76246  21702488.0474                   21702486.5204
   1276662.39148    999598.26646  20853300.7584                   20853297.0004
  -6888081.87547  -5820599.03544  23654445.4774                   23654443.8204
 11  7 22 18 23  0.0000000  0  8G03G06G19G13G16G07G23G08
  -4983710.79748  -3874661.68045  21243069.5784                   21243067.3674
   2354313.19547   1838246.75444  23010396.4614                   23010396.2894
 -17835882.31647 -13895128.14546  20941626.7034                   20941622.0554
 -11999136.87148  -9338475.37946  20011486.0394                   20011483.7624
  17670967.36747  13755014.43044  23807499.1484                   23807495.8634
 -12003682.55948 -10635034.32446  21692900.6334                   21692898.1724
   1353739.46548   1059658.29746  20867968.0234                   20867964.1524
  -6954781.48847  -5872572.68743  23641753.6414                   23641751.0824
 11  7 22 18 23 30.0000000  0  9G03G06G19G13G16G07G23G10G08
  -4923509.81647  -3827751.83646  21254525.3204                   21254523.3754
   2432782.19947   1899391.39144  23025329.4454                   23025327.7624
 -17849501.17247 -13905740.21546  20939034.8674                   20939031.0864
 -11980309.84447  -9323804.97346  20015068.9454                   20015065.7734
  17766598.75447  13829532.33243  23825696.8364                   23825694.0864
 -12053994.75448 -10674238.64146  21683325.8134                   21683323.4694
   1431279.39148   1120078.98046  20882723.4774                   20882718.8444
  -3118426.56615                  23964597.844
  -7021534.96147  -5924588.31244  23629050.2504                   23629047.9304
 11  7 22 18 24  0.0000000  0  9G03G06G19G13G16G07G23G10G08
  -4862769.32848  -3780421.60945  21266084.2034                   21266082.0314
   2511634.74347   1960834.90444  23040335.4534                   23040333.2894
 -17862518.21148 -13915883.34446  20936557.8674                   20936553.3674
 -11960891.54348  -9308673.84446  20018764.1644                   20018760.9104
  17862198.14846  13904025.34444  23843888.2424                   23843886.0354
 -12104234.02748 -10713386.10546  21673766.0944                   21673763.4924
   1509280.06648   1180858.69946  20897566.6334                   20897561.5824
  -3082583.875 5                  23971419.023
  -7088342.23447  -5976645.93443  23616337.5554                   23616335.1134
 11  7 22 18 24 30.0000000  0  9G03G06G19G13G16G07G23G10G08
  -4801483.76648  -3732666.62945  21277746.6414                   21277744.2464
   2590876.50847   2022581.75044  23055415.4844                   23055411.9694
 -17874924.77748 -13925550.78946  20934197.1644                   20934192.3794
 -11940873.92648  -9293075.71546  20022573.4144                   20022570.1684
  17957772.07847  13978498.49644  23862076.4144                   23862073.3524
 -12154391.50448 -10752469.83246  21664221.3754                   21664218.6804
   1587747.58648   1242002.19546  20912498.1484                   20912493.3014
  -3046345.277 5                  23978312.703
  -7155195.12147  -6028739.04744  23603615.8524                   23603613.8404
 11  7 22 18 25  0.0000000  0  9G03G06G19G13G16G07G23G10G08
  -4739646.16847  -3684481.48045  21289513.4774                   21289512.2734
   2670514.06347   2084636.96544  23070568.5474                   23070566.8054
 -17886710.97747 -13934734.82046  20931954.1094                   20931950.3164
 -11920247.91048  -9277003.50046  20026498.5234                   20026495.5474
  18053328.14846  14052957.74243  23880258.3284                   23880256.7384
 -12204457.16048 -10791482.02046  21654693.7664                   21654691.0474
   1666688.39548   1303514.48446  20927520.3444                   20927516.8324
  -3009704.523 5                  23985285.734
  -7222084.71146  -6080860.73844  23590886.6954                   23590885.2934
 11  7 22 18 25 30.0000000  0  9G03G06G19G13G16G07G23G10G08
  -4677269.14847  -3635876.02745  21301383.3204                   21301382.5744
   2750534.29347   2146990.37944  23085796.0004                   23085793.0944
 -17897886.82848 -13943443.25046  20929827.2424                   20929823.6294
 -11899024.58248  -9260465.84846  20030537.1564                   20030534.8834
  18148854.28546  14127393.63343  23898437.2274                   23898434.5554
 -12254440.87948 -10830430.37546  21645182.3284                   21645179.0394
   1746089.70348   1365385.60546  20942630.1414                   20942625.8834
  -2972674.648 5                  23992332.195
  -7289021.08247  -6133018.92244  23578149.3914                   23578149.2814
 11  7 22 18 26  0.0000000  0  9G03G06G19G13G16G07G23G10G08
  -4614354.61347  -3586851.72345  21313355.4144                   21313354.6414
   2830935.34446   2209640.53144  23101095.1724                   23101093.8284
 -17908450.40648 -13951674.59046  20927817.2664                   20927813.1054
 -11877203.13347  -9243462.14546  20034689.8134                   20034686.8324
  18244349.60946  14201805.50043  23916609.9384                   23916607.6764
 -12304341.07848 -10869313.63746  21635687.0004                   21635684.0904
   1825950.20348   1427614.54346  20957826.6414                   20957822.9614
  -2935256.996 5                  23999451.805
  -7356003.41847  -6185212.91044  23565402.8674                   23565403.1334
 11  7 22 18 26 30.0000000  0  9G03G06G19G13G16G07G23G10G08
  -4550906.79747  -3537411.85245  21325428.7734                   21325428.8954
   2911713.13747   2272584.25444  23116466.7194                   23116464.8164
 -17918403.28948 -13959430.08646  20925923.2034                   20925918.6454
 -11854785.35948  -9225993.75446  20038955.6724                   20038952.5084
  18339810.71146  14276190.73443  23934775.4694                   23934773.0744
 -12354158.43048 -10908132.34046  21626207.1024                   21626204.2854
   1906266.09048   1490198.32446  20973110.4384                   20973105.9384
                                  24006646.102
  -7423033.45346  -6237444.04744  23552647.0944                   23552647.7034
 11  7 22 18 27  0.0000000  0  8G03G06G19G13G16G07G23G08
  -4486935.19947  -3487563.87545  21337602.9534                   21337601.6024
   2992857.45747   2335813.60944  23131908.9224                   23131906.6024
 -17927752.32448 -13966715.02346  20924144.1954                   20924139.7464
 -11831778.89148  -9208066.64846  20043333.4454                   20043330.6724
  18435228.53946  14350542.28543  23952932.5234                   23952930.9184
 -12403899.89548 -10946891.90646  21616741.3834                   21616738.3164
   1987026.82848   1553128.72346  20988478.3834                   20988474.0784
  -7490118.32446  -6289717.94144  23539881.1804                   23539881.5704
 11  7 22 18 27 30.0000000  0  8G03G06G19G13G16G07G23G08
  -4422440.64847  -3437308.39145  21349876.3834                   21349874.3244
   3074367.76646   2399328.06644  23147419.0004                   23147417.7034
 -17936494.87548 -13973527.37546  20922480.6094                   20922476.5044
 -11808182.29748  -9189679.71546  20047823.8914                   20047821.8054
  18530603.62146  14424860.45343  23971080.6564                   23971080.1484
 -12453562.43448 -10985589.95746  21607290.1024                   21607287.8054
   2068233.09848   1616406.29345  21003931.5554                   21003927.1844
  -7557256.09446  -6342033.02744  23527105.6254                   23527106.1094
 11  7 22 18 28  0.0000000  0  8G03G06G19G13G16G07G23G08
  -4357430.43747  -3386651.10245  21362246.9534                   21362245.0234
   3156236.09846   2463121.51244  23162997.8754                   23162997.2114
 -17944635.70347 -13979870.85546  20920931.3364                   20920927.3094
 -11784001.15248  -9170837.27746  20052425.6334                   20052423.2074
  18625929.06346  14499139.96143  23989221.3054                   23989220.0594
 -12503150.39848 -11024229.91046  21597854.1884                   21597851.7704
   2149876.76648   1680024.71146  21019468.2114                   21019464.1134
  -7624451.63746  -6394393.13344  23514319.0474                   23514318.8674
 11  7 22 18 28 30.0000000  0  8G03G06G19G13G16G07G23G08
  -4291917.22747  -3335601.85545  21374713.6174                   21374712.0944
   3238449.79347   2527184.11744  23178644.1804                   23178641.9064
 -17952184.36347 -13985752.93046  20919494.8674                   20919490.9614
 -11759246.29348  -9151547.78946  20057135.7504                   20057133.4384
  18721193.37146  14573371.85543  24007350.8284                   24007347.9184
 -12552673.21148 -11062819.09046  21588430.5704                   21588427.7304
   2231945.57048   1743974.40246  21035085.8594                   21035081.1094
  -7691715.08646  -6446806.14844  23501518.9454                   23501519.7814
 11  7 22 18 29  0.0000000  0  9G03G06G19G13G16G07G23G08G11
  -4225908.69147  -3284166.66045  21387274.4534                   21387272.5514
   3321001.06346   2591509.73044  23194352.5634                   23194350.9884
 -17959145.86748 -13991177.46546  20918170.4844                   20918165.7424
 -11733922.76648  -9131815.18046  20061954.8134                   20061952.1294
  18816389.66846  14647550.73043  24025465.3754                   24025463.3674
 -12602135.14848 -11101360.85546  21579018.4224                   21579015.8914
   2314431.66848   1808249.23446  21050781.8134                   21050777.6604
  -7759051.57047  -6499276.08644  23488705.6254                   23488705.7544
  -3275210.59446  -2549012.34042  24354896.8594                   24354897.1954
 11  7 22 18 29 30.0000000  0  9G03G06G19G13G16G07G23G08G11
  -4159408.37947  -3232348.25445  21399929.2894                   21399927.3754
   3403886.05546   2656095.37944  23210124.0784                   23210122.8204
 -17965520.53547 -13996144.71946  20916956.7664                   20916952.8404
 -11708031.99248  -9111640.56247  20066881.9694                   20066878.9304
  18911515.19546  14721674.45343  24043566.8364                   24043564.0434
 -12651536.55948 -11139855.45746  21569617.5474                   21569614.8364
   2397331.59448   1872846.54746  21066557.6414                   21066553.2704
  -7826461.55547  -6551803.30944  23475877.3444                   23475877.1884
  -3350276.35946  -2607504.98043  24340611.6954                   24340611.9304
 11  7 22 18 30  0.0000000  0 10G03G06G19G13G16G07G23G10G08G11
  -4092426.40247  -3180154.53545  21412674.9694                   21412673.8834
   3487094.91446   2720933.43044  23225958.8984                   23225956.9734
 -17971315.46547 -14000660.23046  20915854.0944                   20915850.1334
 -11681582.03548  -9091030.23046  20071914.8054                   20071912.1524
  19006561.43847  14795736.39843  24061654.5234                   24061650.5984
 -12700883.57848 -11178307.67646  21560227.4384                   21560224.5944
   2480635.77748   1937758.87146  21082409.8054                   21082405.8984
  -3099877.10916                  24058930.625
  -7893952.35247  -6604393.51244  23463034.6564                   23463034.2344
  -3425454.70346  -2666085.37143  24326305.2344                   24326305.1564
 11  7 22 18 30 30.0000000  0 10G03G06G19G13G16G07G23G10G08G11
  -4024958.64547  -3127582.28145  21425514.0474                   21425512.5044
   3570631.46546   2786026.78144  23241854.7664                   23241854.2424
 -17976523.94947 -14004718.78146  20914863.2734                   20914858.7774
 -11654566.83248  -9069979.42646  20077056.1484                   20077053.4694
  19101533.06347  14869740.21943  24079727.1254                   24079723.3324
 -12750169.33248 -11216712.14546  21550848.3834                   21550846.0984
   2564348.06648   2002989.19946  21098339.3524                   21098335.5634
  -3059255.703 6                  24066660.344
  -7961517.61347  -6657041.71944  23450177.7894                   23450176.5394
  -3500737.07847  -2724746.86743  24311981.5864                   24311978.8794
 11  7 22 18 31  0.0000000  0 10G03G06G19G13G16G07G23G10G08G11
  -3957005.19547  -3074631.54745  21438445.1254                   21438443.1524
   3654495.57047   2851375.40244  23257814.1954                   23257813.3954
 -17981142.93747 -14008317.98046  20913984.2194                   20913980.2464
 -11626984.10948  -9048486.41046  20082304.8674                   20082301.6294
  19196431.39146  14943686.90643  24097785.2344                   24097782.3674
 -12799390.00048 -11255065.88346  21541482.0634                   21541480.2274
   2648468.77048   2068537.76246  21114347.4454                   21114342.9224
  -3018298.270 6                  24074454.461
  -8029154.45347  -6709745.71944  23437306.5004                   23437305.3204
  -3576118.16847  -2783485.25443  24297635.0474                   24297634.6644
 11  7 22 18 31 30.0000000  0 10G03G06G19G13G16G07G23G10G08G11
  -3888565.69148  -3021302.07445  21451468.9454                   21451466.7074
   3738687.28947   2916979.31644  23273834.9064                   23273834.3404
 -17985169.44147 -14011455.50846  20913217.7734                   20913213.8054
 -11598832.04348  -9026549.74646  20087661.9384                   20087658.9534
  19291257.60546  15017577.39843  24115829.8674                   24115825.7934
 -12848542.37948 -11293366.42646  21532128.6884                   21532126.1334
   2732997.99248   2134404.64146  21130432.4534                   21130428.7624
  -2977005.004 6                  24082311.984
  -8096859.71147  -6762503.00844  23424422.6334                   23424421.0124
  -3651593.25447  -2842296.89543  24283273.3444                   24283273.0744
 11  7 22 18 32  0.0000000  0 10G03G06G19G13G16G07G23G10G08G11
  -3819637.16847  -2967591.56645  21464585.5314                   21464583.8794
   3823209.93047   2982841.06344  23289919.4614                   23289918.0394
 -17988597.54747 -14014126.74646  20912565.1954                   20912561.2774
 -11570105.10248  -9004165.13346  20093128.6094                   20093125.3244
  19386015.91446  15091415.04343  24133862.3834                   24133859.8484
 -12897619.55148 -11331608.37546  21522789.6414                   21522786.0784
   2817938.98048   2200592.37146  21146596.0704                   21146592.7704
  -2935372.648 5                  24090234.945
  -8164627.55147  -6815309.06244  23411526.2504                   23411524.0204
  -3727154.18446  -2901175.42243  24268893.9694                   24268894.5434
 11  7 22 18 32 30.0000000  0 10G03G06G19G13G16G07G23G10G08G11
  -3750211.05947  -2913493.30145  21477796.7034                   21477795.1334
   3908071.55547   3048966.98044  23306067.5944                   23306065.8324
 -17991415.93048 -14016322.86746  20912029.1644                   20912024.9344
 -11540792.82848  -8981324.41846  20098706.5164                   20098704.0904
  19480715.83246  15165207.10943  24151882.8204                   24151881.0044
 -12946609.34847 -11369782.23046  21513466.9224                   21513463.8284
   2903300.57448   2267107.86746  21162839.7664                   21162836.1954
  -2893393.008 5                  24098222.750
  -8232446.63347  -6868155.03944  23398621.2424                   23398619.2504
  -3802787.27046  -2960110.21543  24254501.8054                   24254501.5394
 11  7 22 18 33  0.0000000  0 10G03G06G19G13G16G07G23G10G08G11
  -3680290.46547  -2859009.74245  21491102.4534                   21491100.3674
   3993268.99247   3115354.57844  23322281.8914                   23322279.1804
 -17993624.85948 -14018044.10546  20911608.9534                   20911604.8484
 -11510896.39848  -8958028.50046  20104395.3524                   20104392.7974
  19575355.51246  15238952.22743  24169893.0634                   24169889.4734
 -12995511.62948 -11407887.89546  21504161.3674                   21504158.4574
   2989079.62947   2333948.64546  21179163.5084                   21179159.5904
  -2851068.867 5                  24106276.477
  -8300317.32847  -6921041.25444  23385705.7974                   23385702.9344
  -3878491.24646  -3019100.21143  24240094.6644                   24240095.7704
 11  7 22 18 33 30.0000000  0 10G03G06G19G13G16G07G23G10G08G11
  -3609872.55547  -2804138.65645  21504502.4224                   21504500.0664
   4078805.34447   3182006.25844  23338558.0474                   23338555.9414
 -17995218.58648 -14019285.96546  20911305.5864                   20911301.4924
 -11480410.83648  -8934273.53146  20110197.0004                   20110193.8444
  19669938.91446  15312653.46143  24187890.1884                   24187888.3554
 -13044320.01648 -11445920.37946  21494873.4534                   21494870.4774
   3075279.10248   2401117.02046  21195566.1254                   21195562.6254
  -2808397.375 5                  24114397.320
  -8368233.76247  -6973963.11744  23372781.0784                   23372778.7194
  -3954257.92646  -3078139.05943  24225676.3594                   24225677.2154
 11  7 22 18 34  0.0000000  0 10G03G06G19G13G16G07G23G10G08G11
  -3538955.82847  -2748878.87145  21517997.6724                   21517995.4884
   4164681.98446   3248923.09844  23354899.9384                   23354896.9734
 -17996192.64148 -14020044.96946  20911120.1644                   20911116.1134
 -11449332.45748  -8910056.63346  20116110.9064                   20116107.7154
  19764469.16046  15386313.36743  24205879.4454                   24205876.4494
 -13093029.03148 -11483875.44946  21485604.4144                   21485601.8754
   3161900.65648   2468614.28546  21212050.3674                   21212046.6174
  -2765376.625 5                  24122584.758
  -8436191.71147  -7026917.33644  23359848.6804                   23359846.4924
  -4030080.52346  -3137221.46543  24211248.7114                   24211249.0084
 11  7 22 18 34 30.0000000  0 10G03G06G19G13G16G07G23G10G08G11
  -3467529.17647  -2693221.77345  21531589.6564                   21531588.7934
   4250909.81646   3316113.58644  23371307.8524                   23371306.6094
 -17996533.55948 -14020310.61746  20911055.2734                   20911051.9694
 -11417648.57447  -8885367.90646  20122139.9144                   20122137.5204
  19858958.16446  15459941.10943  24223861.7664                   24223856.5004
 -13141623.77048 -11521741.46946  21476357.2274                   21476355.0704
   3248955.52348   2536449.19146  21228616.4304                   21228611.5044
  -2721996.004 5                  24130840.781
  -8504176.98847  -7079892.85544  23346912.6094                   23346910.8204
  -4105943.07046  -3196335.07843  24196812.0234                   24196811.7074
 11  7 22 18 35  0.0000000  0 10G03G06G19G13G16G07G23G10G08G11
  -3395606.34847  -2637178.04345  21545275.9064                   21545274.2194
   4337474.97347   3383566.98443  23387780.8834                   23387779.0984
 -17996252.03948 -14020091.25446  20911108.8834                   20911104.8014
 -11385370.91047  -8860216.49246  20128281.8834                   20128279.8714
  19953393.33646  15533526.89543  24241830.5474                   24241828.1954
 -13190115.32448 -11559527.08646  21467129.5234                   21467127.1024
   3336429.91048   2604611.00446  21245262.4694                   21245258.8634
  -2678269.24615                  24139163.539
  -8572200.53947  -7132898.17644  23333967.8914                   23333967.3634
  -4181854.35246  -3255486.60543  24182367.0634                   24182366.3164
 11  7 22 18 35 30.0000000  0 10G03G06G19G13G16G07G23G10G08G11
  -3323177.94147  -2580740.34045  21559058.9064                   21559056.9734
   4424387.15247   3451290.68844  23404319.7504                   23404318.7624
 -17995335.89547 -14019377.35946  20911283.0704                   20911279.2274
 -11352488.19148  -8834593.60246  20134539.6564                   20134536.6644
  20047785.68446  15607079.30143  24259793.5164                   24259790.0784
 -13238490.09448 -11597221.69946  21457923.8444                   21457922.2194
   3424333.48048   2673107.23046  21261989.4454                   21261986.8054
  -2634186.94115                  24147554.320
  -8640249.89147  -7185923.62944  23321019.1254                   23321016.4344
  -4257799.72346  -3314664.69143  24167914.8134                   24167914.3714
 11  7 22 18 36  0.0000000  0  9G03G06G19G13G16G07G23G08G11
  -3250245.85947  -2523910.19145  21572936.9924                   21572935.4614
   4511644.23447   3519283.21544  23420924.1174                   23420923.3444
 -17993784.39847 -14018168.39146  20911578.1484                   20911574.8364
 -11319000.03148  -8808498.95746  20140912.5394                   20140909.4064
  20142134.58346  15680597.89743  24277748.3284                   24277743.9454
 -13286746.09448 -11634823.75846  21448741.0704                   21448739.0434
   3512664.39848   2741936.47746  21278798.1564                   21278795.6054
  -8708323.88347  -7238968.22744  23308064.0634                   23308063.2034
  -4333775.88346  -3373866.75843  24153457.5634                   24153456.9184
 11  7 22 18 36 30.0000000  0  9G03G06G19G13G16G07G23G08G11
  -3176807.61347  -2466685.59045  21586912.0864                   21586909.9774
   4599248.71546   3587546.41444  23437594.0164                   23437593.9224
 -17991592.36347 -14016460.32046  20911995.6334                   20911991.4654
 -11284902.12548  -8781929.18446  20147400.7584                   20147398.1094
  20236443.65646  15754085.43043  24295692.6804                   24295690.4304
 -13334877.49248 -11672328.74646  21439581.5554                   21439579.3674
   3601425.21148   2811100.71146  21295689.0004                   21295685.2734
  -8776417.02347  -7292027.80544  23295106.7344                   23295105.7504
  -4409775.12146  -3433086.82843  24138994.9304                   24138992.7234
 11  7 22 18 37  0.0000000  0  9G03G06G19G13G16G07G23G08G11
  -3102857.06247  -2409061.82845  21600983.9454                   21600982.5784
   4687206.50846   3656084.88744  23454333.2734                   23454332.2854
 -17988751.16447 -14014246.39846  20912536.3524                   20912532.5394
 -11250186.78548  -8754878.27046  20154006.5554                   20154003.8984
  20330720.27746  15827547.65243  24313633.1804                   24313630.6054
 -13382874.56648 -11709729.05946  21430448.2194                   21430446.3984
   3690621.98048   2880604.63346  21312663.3444                   21312659.1294
  -8844520.61747  -7345095.47344  23282147.1414                   23282145.5164
  -4485786.77746  -3492316.57843  24124530.4304                   24124527.0004
 11  7 22 18 37 30.0000000  0  9G03G06G19G13G16G07G23G08G11
  -3028395.12147  -2351039.54345  21615154.0704                   21615152.2234
   4775517.18846   3724898.36744  23471136.2974                   23471136.8204
 -17985258.45347 -14011524.79746  20913201.0704                   20913197.5784
 -11214852.60548  -8727345.15646  20160730.8054                   20160728.1954
  20424965.28946  15900985.22743  24331568.2424                   24331564.0784
 -13430734.14148 -11747022.21546  21421340.8914                   21421338.4654
   3780254.55548   2950448.14846  21329719.0704                   21329715.1024
  -8912632.11747  -7398169.34044  23269185.7114                   23269184.0394
  -4561805.87946  -3551552.14543  24110064.6174                   24110061.6604
 11  7 22 18 38  0.0000000  0  9G03G06G19G13G16G07G23G08G11
  -2953421.56247  -2292618.60945  21629421.5004                   21629419.3834
   4864180.84447   3793986.88344  23488010.8364                   23488008.3714
 -17981111.68748 -14008293.55546  20913989.9304                   20913986.4024
 -11178897.69148  -8699328.36346  20167572.5704                   20167569.8244
  20519180.43046  15974399.61343  24349497.1254                   24349492.3094
 -13478452.24248 -11784205.14146  21412260.6884                   21412257.6414
   3870322.94148   3020631.25846  21346859.0004                   21346854.3754
  -8980748.11347  -7451246.69544  23256223.5084                   23256222.9734
  -4637827.17246  -3610789.37143  24095597.7424                   24095595.8524
 11  7 22 18 38 30.0000000  0  9G03G06G19G13G16G07G23G08G11
  -2877922.74247  -2233788.39545  21643787.6334                   21643786.0594
   4953211.03147   3863360.98444  23504951.7504                   23504950.4804
 -17976294.83248 -14004540.14846  20914906.7734                   20914901.8754
 -11142306.31248  -8670815.61746  20174535.6804                   20174533.3954
  20613380.66046  16047802.35543  24367419.8524                   24367418.7464
 -13526011.59048 -11821264.36346  21403210.4534                   21403208.1054
   3960840.64848   3091164.47745  21364083.5164                   21364079.6414
  -9048851.90247  -7504314.55544  23243263.7734                   23243262.7424
  -4713831.84846  -3670013.70343  24081133.9454                   24081132.6684
 11  7 22 18 39  0.0000000  0  9G03G06G19G13G16G07G23G08G11
  -2801889.32448  -2174541.60945  21658257.3984                   21658255.0084
   5042616.62147   3933027.66444  23521965.3754                   23521964.1954
 -17970796.04747 -14000255.37146  20915952.8834                   20915949.3674
 -11105067.81248  -8641798.61746  20181622.0554                   20181619.4384
  20707575.96546  16121201.14843  24385347.9454                   24385344.7544
 -13573399.40248 -11858189.93446  21394192.9694                   21394190.6684
   4051816.96948   3162055.07445  21381395.7114                   21381391.6294
  -9116931.27047  -7557363.38744  23230308.2504                   23230307.8524
  -4789805.70346  -3729214.00043  24066677.0634                   24066676.2734
 11  7 22 18 39 30.0000000  0  9G03G06G19G13G16G07G23G08G11
  -2725340.69547  -2114893.34045  21672823.3364                   21672821.6844
   5132379.09847   4002972.42644  23539047.0234                   23539044.9774
 -17964631.11348 -13995451.52746  20917126.4614                   20917122.2544
 -11067199.20748  -8612290.62546  20188828.3524                   20188825.3284
  20801749.48446  16194583.12143  24403268.9064                   24403265.0984
 -13620630.48848 -11894993.35246  21385205.3364                   21385202.6764
   4143232.98848   3233288.27345  21398791.5864                   21398787.7774
  -9185001.94147  -7610405.45344  23217354.4844                   23217354.0124
  -4865762.32446  -3788400.92243  24052222.5314                   24052222.9024
 11  7 22 18 40  0.0000000  0  9G03G06G19G13G16G07G23G08G11
  -2648275.38348  -2054842.46545  21687489.0704                   21687486.8984
   5222500.00846   4073196.47744  23556196.1564                   23556194.7464
 -17957796.25047 -13990125.64846  20918426.7114                   20918422.8054
 -11028696.90648  -8582288.84446  20196155.0314                   20196152.6414
  20895904.19146  16267950.32843  24421184.1094                   24421181.6604
 -13667699.59048 -11931670.56646  21376248.0474                   21376245.4964
   4235090.58247   3304865.57045  21416271.7194                   21416267.9774
  -9253059.00847  -7663436.90244  23204403.6564                   23204403.3484
  -4941694.91446  -3847569.08243  24037771.9924                   24037773.1414
 11  7 22 18 40 30.0000000  0  9G03G06G19G13G16G07G23G08G11
  -2570700.03148  -1994394.16845  21702251.8284                   21702249.4924
   5312972.35546   4143694.36344  23573410.8594                   23573411.7934
 -17950295.99247 -13984281.28546  20919853.9304                   20919850.4614
 -10989566.16848  -8551797.37946  20203601.6024                   20203598.8984
  20990034.05146  16341298.21543  24439099.0474                   24439094.2114
 -13714610.09048 -11968224.17646  21367320.8594                   21367317.9574
   4327382.86347   3376781.57045  21433834.7734                   21433831.5904
  -9321106.44947  -7716460.89144  23191455.6724                   23191454.1684
  -5017605.02046  -3906719.68443  24023327.9844                   24023328.1454
 11  7 22 18 41  0.0000000  0  9G03G06G19G13G16G07G23G08G11
  -2492618.71547  -1933551.60245  21717109.0314                   21717107.5274
   5403792.09047   4214462.96544  23590694.0004                   23590693.7664
 -17942131.63747 -13977919.44146  20921407.9774                   20921403.9494
 -10949809.15248  -8520817.89846  20211166.8284                   20211164.5044
  21084137.23446  16414625.29743  24457003.9064                   24457001.8364
 -13761361.83648 -12004654.09046  21358424.1954                   21358421.5864
   4420105.94147   3449033.25846  21451479.2194                   21451476.2274
  -9389145.28147  -7769478.09844  23178508.6804                   23178506.9064
  -5093491.40646  -3965851.85543  24008887.6024                   24008887.0554
 11  7 22 18 41 30.0000000  0  9G03G06G19G13G16G07G23G08G11
  -2414044.57047  -1872325.01645  21732061.0554                   21732059.3524
   5494946.34847   4285492.20744  23608041.0474                   23608040.3404
 -17933313.66848 -13971048.30546  20923085.6884                   20923081.5904
 -10909437.60948  -8489359.57446  20218849.0944                   20218846.9924
  21178202.30946  16487922.71143  24474904.0944                   24474903.0234
 -13807963.76648 -12040967.28146  21349556.3054                   21349553.8914
   4513246.87947   3521610.54346  21469203.3594                   21469200.3484
  -9457185.19947  -7822496.16044  23165561.0004                   23165559.5044
  -5169361.75846  -4024971.50043  23994449.3444                   23994449.8634
 11  7 22 18 42  0.0000000  0  9G03G06G19G13G16G07G23G08G11
  -2334980.30947  -1810716.55145  21747106.4064                   21747105.6454
   5586432.75446   4356780.22344  23625449.7274                   23625449.6214
 -17923842.06248 -13963667.82846  20924887.7424                   20924883.6994
 -10868451.61348  -8457422.45346  20226648.8284                   20226646.1884
  21272227.99246  16561189.47743  24492795.6094                   24492794.4614
 -13854414.88748 -12077162.96546  21340716.9774                   21340714.6484
   4606803.14148   3594511.49646  21487006.8134                   21487003.0984
  -9525225.12947  -7875514.22744  23152612.6804                   23152611.4104
  -5245213.17247  -4084076.45343  23980015.7814                   23980016.4924
 11  7 22 18 42 30.0000000  0  9G03G06G19G13G16G07G23G08G11
  -2255432.87548  -1748731.55145  21762244.7584                   21762242.3014
   5678243.93047   4428321.40644  23642922.2034                   23642920.2974
 -17913721.45347 -13955781.64146  20926814.1484                   20926809.7424
 -10826856.35247  -8425010.56246  20234563.9064                   20234561.5474
  21366209.09846  16634421.38343  24510681.5474                   24510678.7384
 -13900718.48448 -12113243.68046  21331905.6174                   21331903.8404
   4700767.65248   3667730.51245  21504887.0944                   21504883.8834
  -9593269.33247  -7928535.64544  23139664.3834                   23139663.0004
  -5321047.98046  -4143168.39543  23965583.7194                   23965584.4104
 11  7 22 18 43  0.0000000  0  9G03G06G19G13G16G07G23G08G11
  -2175399.32447  -1686367.77045  21777474.0474                   21777472.8554
   5770383.21147   4500118.17643  23660454.7504                   23660453.9344
 -17902946.53147 -13947385.59446  20928864.2344                   20928859.7384
 -10784647.95747  -8392120.91846  20242596.1564                   20242593.2894
  21460149.55546  16707621.69143  24528557.8054                   24528555.4654
 -13946867.44547 -12149203.87946  21323123.8834                   21323121.6254
   4795143.62548   3741270.16445  21522846.4694                   21522842.1604
  -9661311.51647  -7981555.48844  23126715.6094                   23126714.7934
  -5396857.20746  -4202240.46143  23951159.3204                   23951157.2234
 11  7 22 18 43 30.0000000  0  8G03G06G19G13G07G23G08G11
  -2094890.35247  -1623633.54345  21792794.1414                   21792792.9304
   5862839.86347   4572162.32443  23678048.7584                   23678046.6884
 -17891525.68048 -13938486.22346  20931037.5314                   20931033.6844
 -10741834.86348  -8358760.08646  20250742.9844                   20250740.4534
 -13992868.52047 -12185048.86346  21314370.3364                   21314367.8364
   4889920.45347   3815122.16845  21540882.0004                   21540877.7034
  -9729359.19547  -8034579.62944  23113767.3054                   23113766.0084
  -5472646.33646  -4261296.83243  23936735.8134                   23936734.8874
 11  7 22 18 44  0.0000000  0  9G03G06G19G13G07G28G23G08G11
  -2013913.00447  -1560534.33645  21808203.3364                   21808201.4264
   5955607.28547   4644448.57043  23695701.9384                   23695700.2974
 -17879463.21947 -13929086.89146  20933332.9144                   20933329.2814
 -10698422.62148  -8324932.38746  20259004.2504                   20259001.4064
 -14038724.62547 -12220780.87946  21305644.2814                   21305642.3094
  -3309705.51214                  23796809.594
   4985091.15247   3889281.10545  21558992.4064                   21558988.0634
  -9797415.66847  -8087610.60544  23100816.7114                   23100815.3164
  -5548416.75846  -4320338.63743  23922317.3754                   23922316.5084
 11  7 22 18 44 30.0000000  0  9G03G06G19G13G07G28G23G08G11
  -1932467.53547  -1497070.34845  21823701.9454                   21823700.7194
   6048685.08646   4716976.69943  23713413.5704                   23713412.2074
 -17866756.89847 -13919185.85246  20935750.7734                   20935747.0864
 -10654409.78148  -8290636.66446  20267379.5314                   20267376.6684
 -14084432.27347 -12256397.21146  21296946.0314                   21296943.7384
  -3366274.34415                  23786047.383
   5080655.60248   3963746.87145  21577178.1484                   21577173.8244
  -9865477.64847  -8140645.86344  23087864.3284                   23087862.6174
  -5624163.67246  -4379362.09443  23907903.3204                   23907901.7344
 11  7 22 18 45  0.0000000  0  9G03G06G19G13G07G28G23G08G11
  -1850548.82447  -1433237.60945  21839291.1954                   21839288.8914
   6142078.47746   4789750.74643  23731186.4224                   23731184.5044
 -17853399.47348 -13908777.46546  20938293.0004                   20938288.0784
 -10609789.46948  -8255867.60546  20275871.0474                   20275868.0004
 -14129981.88748 -12291890.41446  21288278.4064                   21288276.2464
                                  23775325.258
   5176619.07848   4038523.54345  21595439.3444                   21595435.9064
  -9933537.04747  -8193679.14144  23074913.1174                   23074910.7504
  -5699876.18446  -4438358.77343  23893495.0314                   23893494.8284
 11  7 22 18 45 30.0000000  0  9G03G06G19G13G07G28G23G08G11
  -1768154.29347  -1369034.09045  21854970.2734                   21854968.2974
   6235790.26647   4862772.86744  23749019.7664                   23749017.4574
 -17839385.71947 -13897857.63746  20940959.6884                   20940955.2584
 -10564557.69948  -8220622.07846  20284478.3914                   20284475.1724
 -14175367.01647 -12327255.43746  21279642.0554                   21279639.5314
  -3478669.773 5                  23764657.531
   5272984.00447   4113613.03945  21613776.8754                   21613773.8594
 -10001587.54347  -8246705.48044  23061964.0394                   23061961.3094
  -5775546.36946  -4497322.43443  23879095.2584                   23879095.0354
 11  7 22 18 46  0.0000000  0  9G03G06G19G13G07G28G23G08G11
  -1685292.81247  -1304466.75045  21870738.7424                   21870736.4494
   6329811.76247   4936036.30544  23766911.5784                   23766909.6764
 -17824721.96548 -13886431.32446  20943749.5864                   20943745.6994
 -10518721.16048  -8184905.30946  20293200.2194                   20293197.6484
 -14220592.46147 -12362496.02746  21271035.8204                   21271033.2544
  -3534497.656 6                  23754033.945
   5369741.71547   4189008.60245  21632188.9534                   21632186.3554
 -10069634.90647  -8299729.37144  23049014.9774                   23049013.3594
  -5851177.62946  -4556255.81244  23864703.7344                   23864703.0124
 11  7 22 18 46 30.0000000  0  9G03G06G19G13G07G28G23G08G11
  -1601959.28547  -1239531.56645  21886595.9534                   21886593.8364
   6424148.09847   5009545.10244  23784862.4534                   23784860.9064
 -17809400.85947 -13874492.78946  20946664.9694                   20946661.3874
 -10472273.23048  -8148712.13346  20302038.6564                   20302036.4884
 -14265649.07048 -12397605.08246  21262462.0004                   21262459.1454
  -3590073.246 6                  23743457.672
   5466897.82448   4264714.60945  21650677.5164                   21650674.3874
 -10137670.73047  -8352744.23844  23036067.6564                   23036066.4574
  -5926759.09046  -4615150.39143  23850321.2734                   23850320.3134
 11  7 22 18 47  0.0000000  0  9G03G06G19G13G07G28G23G08G11
  -1518155.98447  -1174230.31645  21902543.1334                   21902541.5944
   6518797.25446   5083297.63744  23802872.8594                   23802873.2424
 -17793422.41848 -13862042.06246  20949705.8284                   20949702.1884
 -10425214.72348  -8112043.17646  20310993.9224                   20310991.2894
 -14310535.06248 -12432581.14846  21253920.3524                   21253917.6604
  -3645396.24246  -2757634.23043  23732929.4304                   23732927.3594
   5564449.76647   4340729.05145  21669241.1484                   21669237.6764
 -10205693.21947  -8405748.73444  23023123.5704                   23023122.8444
  -6002287.77346  -4674003.81243  23835948.8054                   23835948.1684
 11  7 22 18 47 30.0000000  0  9G03G06G19G13G07G28G23G08G11
  -1433881.94147  -1108562.28145  21918580.6174                   21918578.4924
   6613760.30547   5157294.75444  23820944.1254                   23820942.9654
 -17776783.44147 -13849076.61746  20952872.4924                   20952868.0124
 -10377543.16448  -8074896.51646  20320065.6414                   20320062.7934
 -14355245.21147 -12467420.20346  21245411.9144                   21245409.0164
  -3700463.25046  -2800543.50043  23722451.3054                   23722448.6024
   5662398.63748   4417052.78545  21687880.4844                   21687876.6214
 -10273698.40647  -8458739.74244  23010182.0314                   23010182.0164
  -6077757.21946  -4732811.07043  23821586.9844                   23821587.2464
 11  7 22 18 48  0.0000000  0  9G03G06G19G13G07G28G23G08G11
  -1349142.50048  -1042531.57845  21934706.0944                   21934704.3014
   6709032.08646   5231532.41844  23839073.3984                   23839073.1294
 -17759486.47347 -13835598.44146  20956163.2274                   20956159.1994
 -10329262.05948  -8037274.87946  20329253.0084                   20329250.5944
 -14399781.22748 -12502123.57846  21236936.8674                   21236934.4654
  -3755277.26246  -2843255.59843  23712019.9304                   23712018.8594
   5760739.30948   4493681.84445  21706594.1564                   21706590.4144
 -10341687.96947  -8511718.57844  22997244.2974                   22997243.8634
  -6153167.00446  -4791571.84043  23807237.1644                   23807236.7424
 11  7 22 18 48 30.0000000  0  9G03G06G19G13G07G28G23G08G11
  -1263938.55947   -976138.93745  21950919.3674                   21950917.9694
   6804611.87146   5306010.14544  23857261.8914                   23857261.1414
 -17741530.91448 -13821607.11746  20959580.4384                   20959576.7154
 -10280370.83648  -7999177.84446  20338557.0704                   20338553.9534
 -14444139.23848 -12536688.25446  21228496.5164                   21228493.5124
  -3809836.30946  -2885769.01243  23701636.4224                   23701635.5084
   5859470.97748   4570615.52345  21725382.3054                   21725378.3134
 -10409659.10247  -8564683.06244  22984310.1334                   22984309.6954
  -6228512.64547  -4850282.69143  23792898.5084                   23792897.9304
 11  7 22 18 49  0.0000000  0  9G03G06G19G13G07G28G23G08G11
  -1178271.00847   -909385.02745  21967221.0004                   21967219.9304
   6900499.07846   5380727.38344  23875509.5864                   23875508.0704
 -17722915.21547 -13807101.36346  20963123.0234                   20963119.0394
 -10230868.82048  -7960604.85946  20347976.6954                   20347973.9064
 -14488316.23048 -12571111.87546  21220090.1414                   21220087.1334
  -3864138.88746  -2928082.64143  23691303.4224                   23691303.0004
   5958592.89148   4647853.31645  21744244.5784                   21744240.4734
 -10477609.18447  -8617631.14545  22971380.1094                   22971378.5124
  -6303789.25046  -4908939.69943  23778573.7034                   23778573.5314
 11  7 22 18 49 30.0000000  0  9G03G06G19G13G07G28G23G08G11
  -1092142.17247   -842271.66445  21983611.4614                   21983610.1844
   6996691.63747   5455682.57443  23893814.1094                   23893812.8954
 -17703638.85548 -13792080.82446  20966791.1954                   20966786.7934
 -10180756.68048  -7921556.45346  20357512.8984                   20357510.5944
 -14532309.93748 -12605392.69146  21211718.0164                   21211715.3444
  -3918184.64846  -2970196.14843  23681019.5394                   23681019.1174
   6058103.03948   4725393.64145  21763180.7584                   21763176.5984
 -10545537.20347  -8670562.04745  22958454.1484                   22958452.3984
  -6378993.22347  -4967540.12543  23764263.5164                   23764261.5394
 11  7 22 18 50  0.0000000  0  9G03G06G19G13G07G28G23G08G11
  -1005553.82047   -774800.25845  22000088.9304                   22000086.9804
   7093187.77347   5530874.30943  23912177.8134                   23912174.9264
 -17683701.74247 -13776545.40246  20970585.3134                   20970580.9064
 -10130034.61748  -7882032.78146  20367165.0474                   20367162.6254
 -14576118.36748 -12639529.11346  21203381.5004                   21203378.7464
  -3971972.70347  -3012108.80944  23670782.7814                   23670783.1644
   6157999.29748   4803234.80545  21782189.7664                   21782186.6484
 -10613441.12147  -8723474.16045  22945531.6094                   22945530.5824
  -6454121.22746  -5026081.34043  23749967.1024                   23749964.7464
 11  7 22 18 50 30.0000000  0  9G03G06G19G13G07G28G23G08G11
   -918517.23847   -706979.57445  22016650.5704                   22016649.7664
   7189976.77047   5606294.25443  23930594.6724                   23930593.3364
 -17663112.90247 -13760502.16046  20974502.9774                   20974498.4694
 -10078712.47348  -7842041.51246  20376931.1334                   20376928.8524
 -14619748.32448 -12673526.46546  21195078.5944                   21195075.8014
  -4025511.84847  -3053827.54344  23660595.3134                   23660594.6804
   6258270.56348   4881368.19545  21801271.1564                   21801268.4024
 -10681328.67647  -8776373.50445  22932613.6884                   22932612.2034
  -6529178.68747  -5084567.60243  23735683.8054                   23735681.2194
 11  7 22 18 51  0.0000000  0  9G03G06G19G13G07G28G23G08G11
   -831027.62547   -638805.87545  22033299.6954                   22033298.4304
   7287063.04746   5681945.84043  23949068.1644                   23949068.2734
 -17641865.40648 -13743945.66046  20978546.0864                   20978541.9804
 -10026784.24248  -7801577.96946  20386812.7504                   20386810.5704
 -14663190.98848 -12707377.89546  21186812.1724                   21186809.4534
  -4078795.23447  -3095346.95744  23650455.9774                   23650454.6174
   6358921.96548   4959797.79345  21820424.4534                   21820421.6484
 -10749191.44147  -8829253.54345  22919699.6174                   22919699.1334
  -6604155.23047  -5142990.81243  23721416.0004                   23721413.3284
 11  7 22 18 51 30.0000000  0  9G03G06G19G13G07G28G23G08G11
   -743098.07447   -570289.39545  22050032.6564                   22050030.6174
   7384433.98046   5757819.24643  23967598.6804                   23967597.3834
 -17619970.33247 -13726884.57046  20982712.2424                   20982708.3204
  -9974261.60948  -7760651.26646  20396808.1724                   20396804.8984
 -14706455.24648 -12741090.28946  21178578.7194                   21178576.2974
  -4131833.09047  -3136675.04344  23640363.2664                   23640362.0944
   6459940.25848   5038513.28945  21839647.9924                   21839645.3244
 -10817039.03547  -8882121.78145  22906788.7974                   22906787.0514
  -6679058.44947  -5201356.92243  23707163.6884                   23707160.2384
 11  7 22 18 52  0.0000000  0  9G03G06G19G13G07G28G23G08G11
   -654734.16847   -501434.41445  22066847.4304                   22066846.2734
   7482084.32846   5833910.36343  23986181.4304                   23986180.0514
 -17597430.80948 -13709321.31646  20987002.2114                   20986997.6914
  -9921148.24248  -7719264.24646  20406914.7734                   20406912.5044
 -14749542.28548 -12774664.57846  21170379.7274                   21170377.6054
  -4184628.28947  -3177814.07043  23630316.4064                   23630315.1094
   6561320.15648   5117510.55145  21858940.1024                   21858936.7114
 -10884872.91847  -8934979.32444  22893879.6174                   22893879.2384
  -6753888.14847  -5259665.67243  23692922.8674                   23692921.3524
 11  7 22 18 52 30.0000000  0  9G03G06G19G13G07G28G23G08G11
   -565933.75047   -432239.31645  22083745.5554                   22083744.6174
   7580016.61346   5910221.12143  24004816.9384                   24004815.7974
 -17574242.56648 -13691252.55946  20991414.5704                   20991410.5984
  -9867440.37148  -7677413.95346  20417135.0944                   20417132.6174
 -14792445.66848 -12808095.78146  21162215.5864                   21162212.9804
  -4237176.27747  -3218760.52043  23620317.0554                   23620315.5084
   6663064.00448   5196791.40245  21878301.2344                   21878297.8984
 -10952687.51647  -8987821.83244  22880974.9844                   22880973.6684
  -6828636.28147  -5317910.88344  23678699.2344                   23678697.6524
 11  7 22 18 53  0.0000000  0  9G03G06G19G13G07G28G23G08G11
   -476696.87547   -362704.12545  22100726.7344                   22100725.0784
   7678230.69146   5986751.54743  24023506.1254                   24023505.2974
 -17550403.69147 -13672676.82046  20995951.1094                   20995946.8244
  -9813137.22348  -7635099.82846  20427468.2194                   20427466.2894
 -14835160.90648 -12841380.38746  21154087.1564                   21154085.1214
  -4289474.51647  -3259512.35543  23610365.0314                   23610363.1644
   6765171.65647   5276355.72745  21897731.2814                   21897728.1134
 -11020479.30147  -9040646.55144  22868074.8914                   22868074.0664
  -6903297.57847  -5376088.44143  23664491.1644                   23664490.9264
 11  7 22 18 53 30.0000000  0  9G03G06G19G13G07G28G23G08G11
   -387025.65247   -292830.48445  22117790.6564                   22117789.4574
   7776724.78146   6063500.16443  24042249.9144                   24042248.0354
 -17525914.46148 -13653594.30546  21000611.1334                   21000606.9414
  -9758239.19148  -7592322.17246  20437915.2504                   20437912.5084
 -14877686.38348 -12874517.09046  21145994.8834                   21145992.4344
  -4341522.80147  -3300069.43743  23600460.5474                   23600457.8444
   6867641.06647   5356201.95345  21917230.1724                   21917226.8594
 -11088246.50047  -9093452.15644  22855178.7504                   22855177.3244
  -6977867.76647  -5434194.98843  23650300.7344                   23650301.1094
 11  7 22 18 54  0.0000000  0  9G03G06G19G13G07G28G23G08G11
   -296921.46147   -222619.44145  22134937.3834                   22134934.7464
   7875497.89147   6140466.13743  24061047.6884                   24061045.3284
 -17500773.98448 -13634004.32446  21005395.3594                   21005391.6994
  -9702746.57448  -7549081.18746  20448475.2114                   20448472.9804
 -14920018.69148 -12907503.30146  21137939.0864                   21137936.5434
  -4393319.88747  -3340430.80943  23590602.8054                   23590600.4734
   6970470.84447   5436328.99645  21936798.9614                   21936794.9144
 -11155986.67247  -9146236.65244  22842288.5474                   22842286.8134
  -7052343.22347  -5492227.72743  23636128.8284                   23636127.9454
 11  7 22 18 54 30.0000000  0  9G03G06G19G13G07G28G23G08G11
   -206385.77747   -152072.18445  22152165.2274                   22152163.9574
   7974549.02346   6217648.74643  24079895.8594                   24079893.9264
 -17474981.49248 -13613906.29346  21010303.1024                   21010299.0984
  -9646659.15648  -7505376.71946  20459148.0704                   20459146.3054
 -14962154.74648 -12940336.57046  21129920.4224                   21129918.0554
  -4444864.36347  -3380595.25043  23580794.3834                   23580792.9144
   7073659.74647   5516735.87145  21956434.4304                   21956431.3284
 -11223697.66847  -9198998.44545  22829403.6954                   22829402.0394
  -7126719.51647  -5550183.19943  23621975.2114                   23621974.1174
 11  7 22 18 55  0.0000000  0 10G03G06G19G13G07G28G23G10G08G11
   -115406.91447    -81179.62144  22169478.0164                   22169477.1524
   8073889.78946   6295057.10943  24098797.5634                   24098797.9344
 -17448523.43448 -13593289.61346  21015338.1024                   21015333.8634
  -9589963.73448  -7461198.48046  20469937.1804                   20469935.2304
 -15004079.29348 -12973005.05146  21121943.0554                   21121939.9304
  -4496142.30547  -3420551.94143  23571036.9924                   23571034.5164
   7177219.76247   5597431.91445  21976141.6254                   21976138.4384
  -3041277.73014                  24525458.625
 -11291364.23847  -9251725.59844  22816526.9224                   22816525.3794
  -7200979.12146  -5608047.71943  23607843.1564                   23607843.0044
 11  7 22 18 55 30.0000000  0  9G03G06G19G13G07G28G23G08G11
    -23991.43447     -9946.77745  22186874.6804                   22186872.4344
   8173514.07046   6372686.32843  24117755.8134                   24117755.7774
 -17421404.19548 -13572157.75446  21020498.3204                   21020494.6214
  -9532665.52348  -7416550.55546  20480840.7274                   20480838.2854
 -15045794.05948 -13005510.04746  21114005.3284                   21114003.0124
  -4547157.79347  -3460304.14544  23561329.6414                   23561328.6214
   7281144.56647   5678412.18845  21995917.8674                   21995914.5594
 -11358989.17247  -9304420.34044  22803657.7974                   22803655.7814
  -7275122.63346  -5665821.79343  23593734.3444                   23593733.9024
 11  7 22 18 56  0.0000000  0 10G03G06G19G13G07G28G23G10G08G11
     67867.92247     61631.90644  22204353.9454                   22204352.9384
   8273428.95746   6450542.07043  24136768.0084                   24136768.1954
 -17393615.21148 -13550503.99246  21025786.7974                   21025782.9304
  -9474756.32848  -7371426.52046  20491861.2664                   20491857.3874
 -15087287.53148 -13037842.61746  21106108.9774                   21106106.5204
  -4597901.19947  -3499844.41444  23551672.8364                   23551671.8404
   7385441.03548   5759682.10245  22015765.4534                   22015762.1024
                                  24547253.164
 -11426561.13347  -9357073.76644  22790799.6884                   22790798.1334
  -7349137.20747  -5723495.36344  23579650.4694                   23579647.9024
 11  7 22 18 56 30.0000000  0 10G03G06G19G13G07G28G23G10G08G11
    160159.76247    133547.59445  22221916.3284                   22221915.0044
   8373623.82847   6528615.94543  24155835.9454                   24155835.1414
 -17365165.21148 -13528335.16846  21031200.3914                   21031196.3404
  -9416246.19148  -7325834.22346  20502995.1804                   20502991.5124
 -15128566.52048 -13070008.03546  21098253.7034                   21098251.4884
  -4648381.02047  -3539179.28944  23542066.1024                   23542065.1484
   7490097.84848   5841232.81645  22035680.8594                   22035677.8794
                                  24558232.969
 -11494087.82047  -9409691.91845  22777949.3524                   22777949.1294
  -7423028.54347  -5781072.94144  23565589.8754                   23565586.7734
 11  7 22 18 57  0.0000000  0  9G03G06G19G13G07G28G23G08G11
    252878.77047    205796.16045  22239560.1884                   22239558.9924
   8474093.71547   6606904.13743  24174954.9694                   24174952.6954
 -17336057.71148 -13505654.00446  21036739.8284                   21036735.3364
  -9357138.90248  -7279776.61746  20514242.3054                   20514239.5204
 -15169631.96548 -13102007.07046  21090439.3444                   21090437.4224
  -4698600.19947  -3578311.02343  23532509.8594                   23532508.8754
   7595109.96147   5923060.39145  22055664.5784                   22055661.0554
 -11561570.58247  -9462275.84845  22765108.3204                   22765107.9614
  -7496795.88747  -5838553.91044  23551552.1174                   23551550.2734
 11  7 22 18 57 30.0000000  0  9G03G06G19G13G07G28G23G08G11
    346022.25847    278375.44945  22257285.2034                   22257283.8324
   8574835.88346   6685404.51643  24194124.4924                   24194123.1564
 -17306293.81648 -13482461.35946  21042403.9384                   21042399.7504
  -9297435.84048  -7233254.77346  20525603.5234                   20525600.8874
 -15210482.37148 -13133838.54346  21082666.2344                   21082663.6994
  -4748559.00047  -3617239.87944  23523002.4304                   23523002.4574
   7700474.83247   6005162.78145  22075714.3204                   22075711.1334
 -11629008.19148  -9514824.62145  22752275.6024                   22752273.8634
  -7570436.55947  -5895936.18744  23537538.3524                   23537537.1294
 11  7 22 18 58  0.0000000  0  9G03G06G19G13G07G28G23G08G11
    439584.04347    351280.71145  22275090.2194                   22275088.8914
   8675844.52347   6764112.44943  24213347.3984                   24213345.3364
 -17275877.62148 -13458760.41046  21048191.0554                   21048187.4264
  -9237142.29348  -7186272.80546  20537077.0704                   20537074.4804
 -15251119.59848 -13165503.89146  21074932.6484                   21074931.0234
  -4798261.21947  -3655968.79744  23513545.0164                   23513543.9734
   7806185.99647   6087535.02345  22095830.2274                   22095826.7704
 -11696403.47347  -9567340.39845  22739450.5864                   22739449.2734
  -7643950.99247  -5953220.10244  23523548.2114                   23523547.4804
 11  7 22 18 58 30.0000000  0  9G03G06G19G13G07G28G23G08G11
    533550.07047    424500.92644  22292970.1174                   22292969.3954
   8777106.19146   6843017.60543  24232616.5634                   24232614.5514
 -17244821.09848 -13434560.52046  21054101.8204                   21054097.5434
  -9176270.71948  -7138840.42246  20548660.4844                   20548658.2344
 -15291553.05148 -13197010.48046  21067238.7194                   21067235.5314
  -4847717.94947  -3694506.46544  23504133.6724                   23504132.3914
   7912229.79748   6170166.49245  22116009.7974                   22116006.6414
 -11763766.11347  -9619830.76245  22726632.1484                   22726630.9574
  -7717346.96947  -6010411.69944  23509582.1564                   23509581.5784
 11  7 22 18 59  0.0000000  0  9G03G06G19G13G07G28G23G08G11
    627920.28547    498036.09845  22310929.4534                   22310927.4614
   8878621.03146   6922120.01243  24251934.5554                   24251932.3014
 -17213122.46148 -13409860.27746  21060133.0704                   21060129.7934
  -9114820.23048  -7090956.94946  20560354.0084                   20560351.2274
 -15331778.21948 -13228354.76246  21059584.4064                   21059581.0554
  -4896926.92247  -3732851.06244  23494769.2584                   23494768.3554
   8018606.35548   6253057.24645  22136252.9924                   22136250.0434
 -11831092.27047  -9672292.69145  22713820.2114                   22713818.3284
  -7790618.86347  -6067506.60244  23495638.5634                   23495638.4064
 11  7 22 18 59 30.0000000  0  9G03G06G19G13G07G28G23G08G11
    722695.75047    571887.10544  22328964.8284                   22328962.1724
   8980390.32046   7001420.69543  24271300.5474                   24271298.6254
 -17180779.27048 -13384657.80146  21066288.4454                   21066284.6454
  -9052788.39848  -7042620.47346  20572158.5634                   20572155.8524
 -15371789.68448 -13259532.52346  21051969.9694                   21051967.5514
  -4945884.75847  -3770999.99244  23485453.2504                   23485451.8444
   8125316.75048   6336208.13745  22156559.5554                   22156555.8134
 -11898377.28547  -9724722.55145  22701015.8984                   22701014.9534
  -7863759.50847  -6124499.23044  23481720.5864                   23481719.0594
 11  7 22 19  0  0.0000000  0  9G03G06G19G13G07G28G23G08G11
    817864.15247    646044.24644  22347074.0164                   22347072.6174
   9082401.97746   7080910.25043  24290712.6334                   24290710.9264
 -17147801.51247 -13358960.84446  21072563.3364                   21072559.4694
  -8990186.41448  -6993839.73446  20584071.5164                   20584068.8204
 -15411595.19948 -13290549.77046  21044395.3754                   21044392.7504
  -4994601.11747  -3808960.73844  23476182.5784                   23476181.6214
   8232348.54347   6419609.46545  22176926.4064                   22176923.0744
 -11965629.14147  -9777126.58245  22688218.2664                   22688217.9384
  -7936775.78547  -6181394.94144  23467825.7664                   23467824.6054
 11  7 22 19  0 30.0000000  0  9G03G06G19G13G07G28G23G08G11
    913412.05147    720497.13344  22365255.5004                   22365254.5944
   9184643.25846   7160578.61343  24310168.6414                   24310167.0394
 -17114201.15648 -13332778.74246  21078957.5004                   21078953.4964
  -8927026.21548  -6944624.02046  20596090.4384                   20596088.1254
 -15451203.75448 -13321413.57446  21036858.0084                   21036856.1954
  -5043086.82447  -3846741.73844  23466956.4694                   23466955.1844
   8339688.53547   6503250.93045  22197352.4304                   22197349.9064
 -12032857.65647  -9829512.39145  22675424.3984                   22675424.5314
  -8009674.91847  -6238199.40244  23453953.7114                   23453952.9924
 11  7 22 19  1  0.0000000  0  9G03G06G19G13G07G28G23G08G11
   1009335.46947    795242.62144  22383510.4694                   22383509.0864
   9287110.23046   7240422.96543  24329666.9694                   24329666.1524
 -17079980.35547 -13306113.18746  21085469.3674                   21085465.1994
  -8863310.77748  -6894975.63346  20608214.3914                   20608212.6484
 -15490615.05948 -13352123.66846  21029358.4844                   21029356.2114
  -5091343.77347  -3884344.44943  23457772.3914                   23457771.3284
   8447332.63747   6587129.38345  22217836.9614                   22217834.2814
 -12100062.79747  -9881879.98845  22662636.7194                   22662635.8364
  -8082455.77747  -6294911.70743  23440104.0394                   23440102.9454
 11  7 22 19  1 30.0000000  0  9G03G06G19G13G07G28G23G08G11
   1105619.71547    870269.26244  22401831.2034                   22401831.0824
   9389788.37947   7320431.87143  24349207.4694                   24349205.4694
 -17045152.12547 -13278974.31246  21092097.1954                   21092092.8094
  -8799054.35948  -6844905.70346  20620442.5394                   20620439.8594
 -15529838.96148 -13382687.74246  21021894.5704                   21021891.5434
  -5139383.64847  -3921778.00044  23448631.0314                   23448629.0474
   8555266.19947   6671233.36345  22238376.1024                   22238373.8324
 -12167255.50847  -9934237.93045  22649851.0314                   22649849.0204
  -8155126.63347  -6351538.28144  23426275.5394                   23426274.4774
 11  7 22 19  2  0.0000000  0  9G03G06G19G13G07G28G23G08G11
   1202258.47347    945572.17644  22420221.8054                   22420220.2424
   9492672.08646   7400600.98043  24368784.8594                   24368783.0274
 -17009721.05148 -13251365.68046  21098839.8134                   21098834.5904
  -8734261.55148  -6794417.84046  20632772.0314                   20632769.6454
 -15568877.90648 -13413107.68446  21014465.0394                   21014462.4494
  -5187210.89847  -3959045.89144  23439529.9304                   23439528.1804
   8663483.15647   6755558.18445  22258968.7894                   22258966.7344
 -12234437.48447  -9986587.53145  22637066.1174                   22637064.1724
  -8227688.05147  -6408079.57844  23412467.2034                   23412465.8014
 11  7 22 19  2 30.0000000  0  9G03G06G19G13G07G28G23G08G11
   1299239.00047   1021141.40644  22438677.6254                   22438674.1094
   9595748.84046   7480920.41843  24388399.5164                   24388398.1994
 -16973698.37147 -13223296.04746  21105694.2664                   21105690.2304
  -8668944.32448  -6743521.32446  20645201.4224                   20645198.9924
 -15607739.76248 -13443389.64546  21007070.5634                   21007067.8874
  -5234835.40247  -3996155.88344  23430467.4064                   23430464.8244
   8771970.76647   6840093.88745  22279613.7734                   22279610.7704
 -12301617.71947 -10038935.75045  22624281.5394                   22624280.3714
  -8300146.85947  -6464540.91044  23398678.8984                   23398675.8594
 11  7 22 19  3  0.0000000  0  9G03G06G19G13G07G28G23G08G11
   1396554.67247   1096971.80144  22457195.1094                   22457193.4104
   9699012.12146   7561385.25843  24408050.3594                   24408048.7814
 -16937088.96147 -13194769.24246  21112660.8204                   21112656.8714
  -8603108.05147  -6692220.34446  20657729.5634                   20657727.0554
 -15646426.78948 -13473535.37546  20999708.2034                   20999705.9924
  -5282261.55147  -4033111.27744  23421441.6644                   23421441.1844
   8880722.43448   6924835.36745  22300308.7344                   22300305.6644
 -12368799.50847 -10091285.15645  22611497.1484                   22611495.7854
  -8372503.94147  -6520922.99644  23384909.4534                   23384907.5084
 11  7 22 19  3 30.0000000  0  9G03G06G19G13G07G28G23G08G11
   1494198.73847   1173058.06644  22475776.8204                   22475774.2194
   9802455.71547   7641990.65243  24427736.6724                   24427732.5744
 -16899898.09447 -13165789.34446  21119737.9694                   21119734.0744
  -8536758.50048  -6640519.41046  20670355.8364                   20670353.7544
 -15684941.12948 -13503546.52046  20992379.0944                   20992376.6484
  -5329493.61347  -4069915.39844  23412453.7504                   23412452.8634
   8989731.35948   7009777.30145  22321052.5084                   22321048.5354
 -12435985.26647 -10143637.65645  22598712.7344                   22598710.9024
  -8444760.10247  -6577226.43044  23371159.3284                   23371157.2344
 11  7 22 19  4  0.0000000  0  9G03G06G19G13G07G28G23G08G11
   1592154.36747   1249387.12544  22494416.7034                   22494414.6564
   9906063.20346   7722723.69942  24447450.8754                   24447448.3164
 -16862140.58647 -13136367.91046  21126923.2894                   21126919.4804
  -8469911.25048  -6588430.67246  20683076.0004                   20683073.4804
 -15723294.73448 -13533432.44946  20985080.5554                   20985078.3444
  -5376545.67647  -4106579.26644  23403500.3444                   23403499.5554
   9098981.14548   7094906.90245  22341841.8754                   22341838.3404
 -12503187.13347 -10196002.71945  22585924.6884                   22585923.0824
  -8516926.07447  -6633459.61344  23357426.4694                   23357424.4104
 11  7 22 19  4 30.0000000  0  9G03G06G19G13G07G28G23G08G11
   1690423.27046   1325960.19544  22513115.9144                   22513115.1134
  10009836.83246   7803586.19543  24467197.4454                   24467196.1374
 -16823813.12947 -13106502.35946  21134216.5394                   21134212.8834
  -8402563.72348  -6535952.11746  20695892.3594                   20695890.3594
 -15761481.71548 -13563188.52746  20977813.9924                   20977811.5984
  -5423413.74247  -4143099.76244  23394581.8984                   23394581.5354
   9208473.45347   7180225.51245  22362677.6334                   22362674.3324
 -12570399.66847 -10248376.08645  22573134.4534                   22573132.9104
  -8588994.39846  -6689616.70743  23343711.8524                   23343711.0784
 11  7 22 19  5  0.0000000  0  9G03G06G19G13G07G28G23G08G11
   1788992.30546   1402767.20744  22531874.3054                   22531872.1644
  10113763.43446   7884567.99242  24486972.6724                   24486972.7814
 -16784927.68048 -13076201.99646  21141616.3444                   21141612.4924
  -8334728.07448  -6483093.19946  20708800.5474                   20708798.8524
 -15799510.57448 -13592821.39146  20970577.2584                   20970574.9454
  -5470108.71947  -4179485.41844  23385696.3204                   23385695.1604
   9318194.82847   7265722.60945  22383557.1414                   22383554.1454
 -12637631.98847 -10300764.89545  22560340.4224                   22560340.0514
  -8660972.46547  -6745703.47744  23330014.9694                   23330013.5164
 11  7 22 19  5 30.0000000  0  9G03G06G19G13G07G28G23G08G11
   1887853.53546   1479801.87544  22550686.2114                   22550684.8204
  10217836.04746   7965663.44542  24506780.3524                   24506777.7034
 -16745489.96947 -13045471.32446  21149121.0704                   21149116.8754
  -8266411.12948  -6429859.25046  20721801.2894                   20721799.0904
 -15837384.45348 -13622333.50446  20963370.5474                   20963367.8794
  -5516635.75847  -4215740.21944  23376841.6094                   23376840.5744
   9428137.52347   7351392.14844  22404478.8834                   22404475.0704
 -12704887.95747 -10353172.11345  22547541.7194                   22547542.3754
  -8732861.77347  -6801721.04344  23316334.7274                   23316333.3674
 11  7 22 19  6  0.0000000  0  9G03G06G19G13G07G28G23G08G11
   1986995.74247   1557055.52044  22569552.4454                   22569550.7384
                                  24526599.4064                   24526607.5864
 -16705510.32847 -13014318.36746  21156728.9144                   21156724.5594
  -8197623.39148  -6376258.42646  20734890.9844                   20734888.8284
 -15875110.60548 -13651730.51246  20956191.0314                   20956188.6484
  -5563004.00847  -4251871.29344  23368018.9774                   23368017.2304
   9538290.15247   7437225.27044  22425440.0634                   22425437.0314
 -12772174.98447 -10405603.56645  22534737.6804                   22534736.4804
  -8804668.12547  -6857673.95744  23302670.7114                   23302669.7304
 11  7 22 19  6 30.0000000  0  9G03G06G19G13G07G28G23G08G11
   2086414.63347   1634524.70744  22588471.8524                   22588469.9384
  10426381.74646   8128166.34443  24546462.3054                   24546463.2234
 -16664991.07847 -12982744.93746  21164439.1954                   21164435.0864
  -8128367.47748  -6322292.81646  20748069.8754                   20748067.7664
 -15912687.86748 -13681011.48046  20949040.2274                   20949037.7304
  -5609214.80147  -4287879.64543  23359225.3984                   23359222.8324
   9648649.16047   7523219.21144  22446441.3444                   22446438.2464
 -12839492.87547 -10458059.02745  22521927.8204                   22521925.7854
  -8876389.41047  -6913560.62144  23289022.1954                   23289021.4384
 11  7 22 19  7  0.0000000  0  9G03G06G19G13G07G28G23G08G11
   2186111.41446   1712210.42644  22607442.4064                   22607441.7034
  10530851.96146   8209571.69543  24566344.9144                   24566343.3954
 -16623930.37148 -12950749.59446  21172253.2974                   21172248.6254
  -8058642.62548  -6267961.77746  20761338.5784                   20761336.5634
 -15950111.57448 -13710172.80546  20941919.0004                   20941916.3484
  -5655265.46947  -4323763.21143  23350461.9224                   23350460.0744
   9759214.70747   7609374.11344  22467480.6024                   22467478.8554
 -12906837.18447 -10510535.10545  22509111.8594                   22509110.9804
  -8948019.74247  -6969376.41044  23275392.3054                   23275390.5634
 11  7 22 19  7 30.0000000  0  9G03G06G19G13G07G28G23G08G11
   2286083.09447   1790110.38344  22626467.8834                   22626465.4144
  10635452.30146   8291078.36343  24586250.2194                   24586248.3134
 -16582329.12547 -12918333.02346  21180169.4304                   21180164.5984
  -7988449.99648  -6213266.25046  20774695.7974                   20774693.4574
 -15987379.13348 -13739212.44546  20934827.7344                   20934824.3834
  -5701155.52046  -4359521.62144  23341728.9064                   23341727.4104
   9869984.88346   7695688.42243  22488559.9844                   22488557.2344
 -12974205.61347 -10563029.95745  22496292.0944                   22496291.7734
  -9019555.05547  -7025118.16844  23261779.5474                   23261779.2704
 11  7 22 19  8  0.0000000  0  8G03G19G13G07G28G23G08G11
   2386321.94147   1868218.51644  22645541.6724                   22645540.9804
 -16540192.92647 -12885499.61746  21188187.5084                   21188184.3244
  -7917796.25048  -6158211.40246  20788140.8914                   20788138.9494
 -16024493.92248 -13768133.04746  20927764.3674                   20927761.1644
  -5746890.40246  -4395159.10543  23333026.1724                   23333023.9494
   9980951.89846   7782156.12143  22509675.8984                   22509673.7274
 -13041601.77747 -10615546.44545  22483467.7894                   22483465.7934
  -9090996.92647  -7080787.08244  23248183.7194                   23248183.7234
 11  7 22 19  8 30.0000000  0  8G03G19G13G07G28G23G08G11
   2486827.01647   1946534.16044  22664667.7274                   22664665.2464
 -16497522.08248 -12852249.62946  21196307.0314                   21196303.8134
  -7846681.80148  -6102797.57846  20801672.8054                   20801671.1954
 -16061452.57848 -13796932.00046  20920731.6024                   20920729.1024
  -5792469.10247  -4430674.91443  23324352.0314                   23324349.9844
  10092114.57046   7868776.30143  22530829.9064                   22530826.1374
 -13109022.85547 -10668082.34845  22470637.7584                   22470635.8794
  -9162340.77747  -7136379.64144  23234607.6644                   23234607.0314
 11  7 22 19  9  0.0000000  0  8G03G19G13G07G28G23G08G11
   2587598.91847   2025057.67644  22683843.8914                   22683842.2774
 -16454314.60248 -12818581.45746  21204529.6564                   21204526.0594
  -7775105.46548  -6047023.84046  20815293.7504                   20815291.2114
 -16098249.68748 -13825605.06646  20913728.7424                   20913726.3284
  -5837888.28547  -4466066.39844  23315709.3594                   23315706.7194
  10203473.37546   7955549.29342  22552022.0314                   22552015.7854
 -13176464.21547 -10720634.03945  22457803.2504                   22457802.1134
  -9233580.45747  -7191891.03144  23221051.2974                   23221049.8714
 11  7 22 19  9 30.0000000  0  8G03G19G13G07G28G23G08G11
   2688639.49247   2103790.57844  22703070.7974                   22703069.6844
 -16410567.37948 -12784492.71146  21212854.5084                   21212851.2074
  -7703064.29748  -5990887.89546  20829002.7814                   20829000.6054
 -16134878.66448 -13854147.11746  20906758.9304                   20906756.1334
  -5883144.09847  -4501330.62144  23307097.5084                   23307095.7074
  10315030.44545   8042476.86742  22573249.1724                   22573244.3244
 -13243919.81247 -10773196.82045  22444967.5784                   22444965.3634
  -9304707.72347  -7247314.80944  23207516.1334                   23207514.9924
 11  7 22 19 10  0.0000000  0  8G03G19G13G07G28G23G08G11
   2789940.98847   2182726.81344  22722349.1254                   22722346.0354
 -16366286.64148 -12749988.24246  21221280.9224                   21221277.6294
  -7630565.33648  -5934395.22346  20842798.7034                   20842796.2384
 -16171343.14548 -13882560.99646  20899820.2424                   20899816.5434
  -5928241.62547  -4536471.50044  23298515.9614                   23298513.9534
  10426777.80145   8129552.60542  22594514.7894                   22594509.1644
 -13311393.14847 -10825773.44145  22432128.1884                   22432126.1094
  -9375724.43747  -7302652.46544  23194001.5234                   23194000.3594
 11  7 22 19 10 30.0000000  0  8G03G19G13G07G28G23G08G11
   2891510.14147   2261871.47344  22741674.9774                   22741674.9224
 -16321464.55548 -12715061.93446  21229810.0474                   21229806.1644
  -7557601.14848  -5877540.04746  20856683.7194                   20856681.1884
 -16207631.50848 -13910837.64546  20892914.8284                   20892911.2194
  -5973172.13347  -4571482.24644  23289965.6254                   23289964.0904
  10538722.28145                  22615817.5554
 -13378873.26647 -10878355.32045  22419286.8834                   22419284.9774
  -9446618.12547  -7357894.24244  23180511.5554                   23180510.3674
 11  7 22 19 11  0.0000000  0  8G03G19G13G07G28G23G08G11
   2993330.94946   2341212.39844  22761052.3834                   22761050.5594
 -16276115.28147 -12679724.84846  21238439.9924                   21238435.8364
  -7484186.76648  -5820334.06646  20870653.7584                   20870651.7384
 -16243754.93748 -13938985.76246  20886040.4454                   20886038.2114
  -6017948.52046  -4606372.90244  23281446.0394                   23281443.5664
                                  22637150.734
 -13446371.68747 -10930951.47345  22406441.7504                   22406440.1214
  -9517398.62547  -7413047.80944  23167042.2194                   23167040.9304
 11  7 22 19 11 30.0000000  0  8G03G19G13G07G28G23G08G11
   3095403.60247   2420749.43044  22780475.9924                   22780475.3754
 -16230237.81247 -12643976.18746  21247169.6644                   21247166.2814
  -7410321.17248  -5762776.48846  20884709.9064                   20884707.8834
 -16279708.77048 -13967001.72346  20879198.3754                   20879195.9144
  -6062568.80546  -4641141.91444  23272953.6724                   23272951.5984
                                  22658527.844
 -13513884.42247 -10983558.77345  22393595.2424                   22393593.4964
  -9588059.85547  -7468108.44944  23153596.1954                   23153595.3134
 11  7 22 19 12  0.0000000  0  8G03G19G13G07G28G23G08G11
   3197725.30147   2500480.57844  22799946.6564                   22799946.2664
 -16183833.40248 -12607816.90646  21256000.6174                   21255996.1914
  -7336006.26648  -5704868.79746  20898851.3204                   20898848.6994
 -16315490.93448 -13994883.91446  20872389.1884                   20872386.8164
  -6107033.15246  -4675789.37944  23264492.3834                   23264490.7304
  10875641.43015                  22679930.750
 -13581409.64148 -11036175.85245  22380745.3834                   22380742.9384
  -9658598.58247  -7523073.63744  23140172.5234                   23140171.6094
 11  7 22 19 12 30.0000000  0  8G03G19G13G07G28G23G08G11
   3300287.90647   2580399.45744  22819463.4064                   22819463.3554
 -16136909.42248 -12571252.75446  21264929.5474                   21264925.3054
  -7261250.00848  -5646617.20346  20913077.0234                   20913074.1994
 -16351105.25848 -14022635.33246  20865612.3914                   20865609.8324
  -6151347.78146  -4710320.19544  23256059.8524                   23256058.5594
  10988297.746 6                  22701368.148
 -13648951.96547 -11088806.20745  22367892.0944                   22367891.2154
  -9729017.62147  -7577945.59444  23126772.6484                   23126771.9774
 11  7 22 19 13  0.0000000  0  8G03G19G13G07G28G23G08G11
   3403088.22347   2660503.56344  22839027.7034                   22839025.5824
 -16089467.52748 -12534285.03946  21273957.8984                   21273953.9264
  -7186054.78148  -5588023.55146  20927386.3364                   20927383.5704
 -16386550.42648 -14050254.94146  20858867.4534                   20858864.8324
  -6195513.35946  -4744734.89544  23247655.7344                   23247653.7074
  11101121.199 5                  22722837.945
 -13716510.22747 -11141448.96945  22355036.3834                   22355035.3984
  -9799313.73847  -7632721.72744  23113395.6414                   23113394.8094
 11  7 22 19 13 30.0000000  0  8G03G19G13G07G28G23G08G11
   3506126.92247   2740793.41044  22858633.6884                   22858633.3524
 -16041506.17648 -12496912.56646  21283084.5554                   21283081.1994
  -7110419.52748  -5529087.02346  20941779.2974                   20941777.2894
 -16421821.44148 -14077738.84846  20852156.0704                   20852152.8594
  -6239527.05947  -4779031.24644  23239279.9844                   23239279.2154
  11214112.184 5                  22744339.000
 -13784078.88347 -11194099.86345  22342178.6884                   22342177.4144
  -9869480.43447  -7687397.00444  23100042.6484                   23100042.3754
 11  7 22 19 14  0.0000000  0  8G03G19G13G07G28G23G08G11
   3609389.42647   2821257.63344  22878285.5234                   22878283.5394
 -15993038.35948 -12459145.46146  21292307.7814                   21292303.6724
  -7034357.32448  -5469817.80546  20956253.0474                   20956251.5824
 -16456927.32848 -14105094.09846  20845475.3364                   20845472.4654
  -6283400.65647  -4813218.44144  23230931.2114                   23230930.7504
  11327256.734 5                  22765868.922
 -13851668.39147 -11246766.98845  22329316.8054                   22329315.8714
  -9939526.30947  -7741978.17244  23086713.9614                   23086712.1844
 11  7 22 19 14 30.0000000  0  8G03G19G13G07G28G23G08G11
   3712879.67647   2901899.28144  22897978.0784                   22897977.9184
 -15944059.04748 -12420979.76646  21301628.5944                   21301623.8484
  -6957864.00848  -5410212.64846  20970809.3054                   20970807.8714
 -16491859.79748 -14132314.18446  20838827.5474                   20838824.7774
  -6327127.97347  -4847291.60544  23222610.1094                   23222609.3634
  11440558.684 5                  22787428.766
 -13919270.63347 -11299444.06245  22316452.4064                   22316451.6024
 -10009441.34447  -7796457.38344  23073409.9384                   23073407.7114
 11  7 22 19 15  0.0000000  0  8G03G19G13G07G28G23G08G11
   3816588.35247   2982711.16044  22917712.9924                   22917712.7384
 -15894576.58248 -12382421.99646  21311043.9614                   21311039.7034
  -6880948.46148  -5350278.50046  20985446.5084                   20985444.6334
 -16526623.36348 -14159402.67246  20832212.4924                   20832209.3164
  -6370716.21147  -4881256.41444  23214315.3594                   23214313.3954
  11554008.371 5                  22809019.813
 -13986890.46547 -11352134.80545  22303584.5554                   22303583.3674
 -10079228.84447  -7850837.21944  23060129.5004                   23060128.2154
 11  7 22 19 15 30.0000000  0  8G03G19G13G07G28G23G08G11
   3920516.15647   3063693.84044  22937489.2894                   22937489.4144
 -15844589.04748 -12343470.68746  21320556.7894                   21320552.2504
  -6803609.08248  -5290014.07046  21000163.5084                   21000161.4144
 -16561213.02348 -14186355.65646  20825630.4534                   20825627.5984
  -6414162.36747  -4915110.50044  23206047.4924                   23206045.1954
  11667606.719 4                  22830636.305
 -14054523.24247 -11404835.64545  22290714.2344                   22290713.4144
 -10148882.21547  -7905112.52344  23046875.2894                   23046873.6294
 11  7 22 19 16  0.0000000  0  7G03G19G13G07G28G08G11
   4024650.28147   3144837.28544  22957306.4534                   22957305.3834
 -15794108.11748 -12304134.90646  21330162.8364                   21330159.0824
  -6725858.22348  -5229429.00846  21014958.9224                   21014956.7544
 -16595637.00448 -14213179.53146  20819079.4924                   20819076.6214
  -6457476.76647  -4948861.94544  23197805.0784                   23197802.0314
 -14122177.29347 -11457553.06245  22277840.4454                   22277839.0864
 -10218408.33647  -7959288.67244  23033643.8834                   23033643.1334
 11  7 22 19 16 30.0000000  0  7G03G19G13G07G28G08G11
   4128994.44547   3226144.40244  22977161.4694                   22977160.9964
 -15743129.57447 -12264411.37546  21339863.8284                   21339860.5474
  -6647691.73848  -5168520.08646  21029833.8134                   21029831.7384
 -16629886.88748 -14239867.73446  20812561.7814                   20812558.8404
  -6500653.62547  -4982506.22744  23189588.9774                   23189586.3284
 -14189844.80547 -11510281.00445  22264964.1334                   22264963.0044
 -10287797.78547  -8013358.34044  23020440.1414                   23020438.4924
 11  7 22 19 17  0.0000000  0  7G03G19G13G07G28G08G11
   4233540.17247   3307608.57444  22997057.6254                   22997055.4964
 -15691660.39148 -12224305.53146  21349658.4774                   21349654.6764
  -6569117.37948  -5107293.34846  21044786.3204                   21044783.8094
 -16663966.79348 -14266423.51246  20806076.5864                   20806074.4844
  -6543699.07847  -5016048.08244  23181397.8204                   23181395.4654
 -14257529.26647 -11563022.11345  22252083.9924                   22252083.3204
 -10357052.92247  -8067323.35244  23007260.7814                   23007259.2114
 11  7 22 19 17 30.0000000  0  7G03G19G13G07G28G08G11
   4338284.19946   3389227.23043  23016986.8674                   23016987.7734
 -15639703.00848 -12183819.26646  21359545.5004                   21359541.7584
  -6490137.91448  -5045750.95746  21059815.4534                   21059813.7544
 -16697874.59848 -14292845.16046  20799624.3524                   20799621.2234
  -6586614.01247  -5049488.21944  23173230.9144                   23173229.9024
 -14325230.36747 -11615776.18745  22239200.3834                   22239199.5984
 -10426171.42247  -8121181.91044  22994108.5084                   22994105.6604
 11  7 22 19 18  0.0000000  0  8G03G19G13G07G28G23G08G11
   4443227.15246   3471000.93443  23036957.9534                   23036958.6804
 -15587255.48848 -12142951.09446  21369526.2114                   21369522.0514
  -6410752.04748  -4983891.86746  21074921.9064                   21074920.1174
 -16731605.11348 -14319128.68446  20793205.9774                   20793202.4734
  -6629395.57847  -5082824.45344  23165090.3204                   23165089.9224
                                  22939102.883
 -14392942.65247 -11668538.97345  22226315.1804                   22226314.8524
 -10495146.22347  -8174928.45344  22980983.2894                   22980980.7114
 11  7 22 19 18 30.0000000  0  8G03G19G13G07G28G23G08G11
   4548363.95746   3552925.67243  23056963.8284                   23056965.1604
 -15534322.13748 -12101704.34446  21379598.5554                   21379594.4804
  -6330964.89548  -4921720.10246  21090105.1564                   21090103.1764
 -16765158.78548 -14345274.41446  20786820.3594                   20786817.1024
  -6672046.45347  -5116058.82044  23156973.7274                   23156973.3284
  -2901682.35214                  22960873.992
 -14460666.99247 -11721311.16845  22213427.7034                   22213426.9494
 -10563976.44547  -8228562.34844  22967885.1024                   22967882.4224
 11  7 22 19 19  0.0000000  0  8G03G19G13G07G28G23G08G11
   4653695.62547   3635002.21544  23077009.3204                   23077009.0314
 -15480901.01248 -12060077.50446  21389764.5084                   21389760.2424
  -6250774.39848  -4859234.03546  21105364.8984                   21105362.7814
 -16798530.15648 -14371278.08246  20780469.9384                   20780467.4264
  -6714563.55147  -5149188.96144  23148883.3054                   23148881.4844
  -2787173.891 4                  22982669.578
 -14528397.89847 -11774088.47345  22200539.1174                   22200538.2624
 -10632655.26247  -8282078.29344  22954815.5084                   22954813.6374
 11  7 22 19 19 30.0000000  0  7G03G19G13G07G28G08G11
   4759226.32447   3717233.85944  23097090.4454                   23097090.9734
 -15426986.90248 -12018066.53146  21400024.3054                   21400020.0354
  -6170175.98448  -4796430.10246  21120702.0944                   21120700.0084
 -16831710.31248 -14397132.75046  20774156.2114                   20774153.3794
  -6756940.39547  -5182209.84044  23140819.2274                   23140816.4614
 -14596126.71547 -11826864.14145  22187650.8134                   22187649.7854
 -10701172.70347  -8335468.46944  22941776.8834                   22941775.1174
 11  7 22 19 20  0.0000000  0  7G03G19G13G07G28G08G11
   4864956.92247   3799621.28544  23117212.2274                   23117210.5594
 -15372578.50848 -11975670.39846  21410377.4694                   21410373.1024
  -6089168.57448  -4733307.47346  21136117.4064                   21136115.9064
 -16864693.87548 -14422834.22346  20767879.7274                   20767877.2304
  -6799174.19947  -5215119.25843  23132782.3754                   23132779.2424
 -14663848.44147 -11879634.28545  22174763.7664                   22174762.2274
 -10769521.98047  -8388727.59444  22928771.0784                   22928769.6484
 11  7 22 19 20 30.0000000  0  7G03G19G13G07G28G08G11
   4970870.11747   3882150.97744  23137366.2734                   23137364.7274
 -15317691.71548 -11932901.48846  21420822.2974                   21420817.7034
  -6007768.72748  -4669879.05946  21151607.2814                   21151604.6844
 -16897493.18748 -14448392.12946  20761638.1024                   20761635.1954
  -6841279.62947  -5247928.61743  23124769.2584                   23124765.8244
 -14731576.10947 -11932409.07045  22161875.5864                   22161873.9964
 -10837714.35947  -8441864.48444  22915793.9304                   22915793.6954
 11  7 22 19 21  0.0000000  0  8G03G19G13G07G28G23G08G11
   5076973.82847   3964829.13344  23157558.6954                   23157556.7664
 -15262317.94548 -11889753.09846  21431359.1254                   21431355.4414
  -5925968.57048  -4606138.70746  21167173.1724                   21167170.8204
 -16930096.13348 -14473797.01646  20755433.8284                   20755431.5004
  -6883246.58247  -5280630.13743  23116783.4694                   23116780.6914
                                  23070062.000
 -14799297.27047 -11985178.77745  22148988.9614                   22148987.1334
 -10905736.19947  -8494868.44944  22902849.8134                   22902849.2544
 11  7 22 19 21 30.0000000  0  8G03G19G13G07G28G23G08G11
   5183264.44147   4047652.93044  23177783.5474                   23177782.2424
 -15206460.18047 -11846227.58246  21441988.7194                   21441984.6994
  -5843771.44148  -4542089.03546  21182814.6094                   21182811.9774
 -16962501.82048 -14499048.19946  20749266.9454                   20749264.3914
  -6925077.17247  -5313225.32444  23108823.8594                   23108821.3674
                                  23091965.625
 -14867011.41048 -12037943.02345  22136103.3284                   22136101.6804
 -10973585.67647  -8547738.12944  22889938.8674                   22889936.7034
 11  7 22 19 22  0.0000000  0  7G03G19G13G07G28G08G11
   5289732.95747   4130615.36344  23198044.1954                   23198042.6134
 -15150126.46547 -11802331.19546  21452708.7664                   21452704.0554
  -5761185.48048  -4477736.38346  21198530.7424                   21198528.4654
 -16994714.00448 -14524148.59446  20743138.1414                   20743134.9264
  -6966777.41447  -5345718.98044  23100888.0704                   23100886.5594
 -14934722.75048 -12090705.09845  22123217.9224                   22123216.6994
 -11041265.19147  -8600475.37144  22877059.2894                   22877056.6764
 11  7 22 19 22 30.0000000  0  7G03G19G13G07G28G08G11
   5396377.87547   4213715.23844  23218337.8444                   23218336.1954
 -15093317.53948 -11758064.50846  21463519.5234                   21463514.6884
  -5678211.78548  -4413081.60946  21214320.1644                   21214317.2074
 -17026729.27748 -14549095.55546  20737045.8364                   20737042.2074
  -7008346.53947  -5378110.48443  23092978.0164                   23092976.4344
 -15002427.78947 -12143462.25045  22110334.1094                   22110332.7854
 -11108770.16447  -8653076.59044  22864213.6884                   22864211.1054
 11  7 22 19 23  0.0000000  0  8G03G19G13G07G28G23G08G11
   5503189.87947   4296945.28144  23238662.7344                   23238662.1914
 -15036041.59047 -11713433.93046  21474418.4454                   21474413.7114
  -5594859.76648  -4348132.01646  21230181.1884                   21230178.6374
 -17058552.33648 -14573892.74246  20730989.3524                   20730986.3244
  -7049792.12147  -5410405.68443  23085091.1334                   23085090.1884
  -3052319.89815                  23157805.313
 -15070132.15247 -12196218.86745  22097450.2814                   22097449.5164
 -11176104.28547  -8705544.69144  22851400.1954                   22851397.8834
 11  7 22 19 23 30.0000000  0  7G03G19G13G07G28G08G11
   5610170.33247   4380306.63344  23259021.7504                   23259019.8674
 -14978296.95748 -11668438.12546  21485407.0634                   21485403.3204
  -5511127.43748  -4282886.08646  21246115.3364                   21246112.8244
 -17090177.98048 -14598536.08646  20724971.5474                   20724968.9264
  -7091110.47746  -5442601.77343  23077227.5164                   23077226.7934
 -15137830.17247 -12248970.53545  22084567.4384                   22084565.6524
 -11243260.21947  -8757873.95344  22838620.1414                   22838617.9344
 11  7 22 19 24  0.0000000  0  7G03G19G13G07G28G08G11
   5717310.25847   4463792.24244  23279409.5634                   23279408.1884
 -14920091.50048 -11623083.24646  21496482.8594                   21496478.8404
  -5427023.41048  -4217350.52346  21262119.9144                   21262117.8954
 -17121609.96548 -14623028.55546  20718990.0704                   20718987.3554
  -7132308.21147  -5474703.84843  23069388.5314                   23069385.2234
 -15205525.93448 -12301720.48045  22071685.8364                   22071683.1684
 -11310241.09047  -8810066.78144  22825874.4924                   22825873.4964
 11  7 22 19 24 30.0000000  0  7G03G19G13G07G28G08G11
   5824611.12947   4547403.24244  23299827.0944                   23299827.3244
 -14861423.56248 -11577367.98046  21507647.1724                   21507643.7344
  -5342546.54748  -4151524.42246  21278195.2974                   21278193.1454
 -17152842.53148 -14647365.60546  20713046.6804                   20713043.7704
  -7173382.08247  -5506709.43443  23061571.7504                   23061569.7814
 -15273214.16048 -12354464.53945  22058805.2194                   22058802.3014
 -11377040.05147  -8862117.86344  22813162.7974                   22813162.3284
 11  7 22 19 25  0.0000000  0  8G03G19G13G07G28G23G08G11
   5932072.05146   4631138.96543  23320278.1024                   23320275.9884
 -14802292.82847 -11531292.09446  21518899.5234                   21518895.9064
  -5257696.88748  -4085407.84046  21294341.5474                   21294339.1134
 -17183871.69148 -14671544.15646  20707141.9384                   20707139.4844
  -7214330.68447  -5538617.38344  23053780.8134                   23053778.1564
  -3062085.852 4                  23245836.680
 -15340890.85548 -12407199.61345  22045926.6954                   22045924.5514
 -11443651.88347  -8914023.09444  22800487.9924                   22800487.0354
 11  7 22 19 25 30.0000000  0  7G03G19G13G07G28G08G11
   6039679.36346   4714988.74243  23340755.2344                   23340753.5354
 -14742713.14847 -11484866.38346  21530236.7664                   21530232.7704
  -5172488.47748  -4019011.73046  21310556.0474                   21310553.9924
 -17214706.78548 -14695571.48846  20701274.3524                   20701271.6094
  -7255166.03947  -5570437.10544  23046009.9144                   23046007.1804
 -15408565.67248 -12459933.21545  22033048.4224                   22033046.4414
 -11510084.42647  -8965788.63745  22787845.7664                   22787844.5744
 11  7 22 19 26  0.0000000  0  7G03G19G13G07G28G08G11
   6147426.99646   4798947.88743  23361256.8754                   23361257.8324
 -14682688.86747 -11438094.22346  21541659.1174                   21541654.7974
  -5086926.21148  -3952339.87946  21326838.1334                   21326835.9104
 -17245348.39548 -14719448.05546  20695443.3594                   20695440.7734
  -7295891.07847  -5602170.85544  23038259.6254                   23038257.8524
 -15476239.16047 -12512665.77045  22020170.2034                   22020168.9494
 -11576337.05547  -9017413.96544  22775237.6174                   22775236.0594
 11  7 22 19 26 30.0000000  0  7G03G19G13G07G28G08G11
   6255314.25446   4883015.84843  23381788.1414                   23381787.2114
 -14622220.43447 -11390975.98046  21553166.2424                   21553161.4494
  -5001010.72748  -3885392.77346  21343187.2974                   21343185.6414
 -17275792.48848 -14743170.71546  20689650.1174                   20689647.4024
  -7336504.58247  -5633817.68744  23030531.0554                   23030529.1254
 -15543907.91048 -12565394.64545  22007293.4534                   22007292.3364
 -11642405.03547  -9068895.44544  22762666.2344                   22762664.4344
 11  7 22 19 27  0.0000000  0  7G03G19G13G07G28G08G11
   6363343.61747   4967194.50843  23402345.8834                   23402344.4654
 -14561305.32848 -11343509.68046  21564757.6094                   21564753.3594
  -4914739.75048  -3818168.68046  21359603.9924                   21359602.3054
 -17306032.93748 -14766734.69146  20683895.4384                   20683893.0394
  -7377002.21147  -5665374.23044  23022824.0394                   23022822.8164
 -15611565.23047 -12618114.61345  21994418.8204                   21994417.2194
 -11708280.44147  -9120226.85544  22750129.8914                   22750128.3284
 11  7 22 19 27 30.0000000  0  7G03G19G13G07G28G08G11
   6471504.02347   5051475.21544  23422928.4924                   23422927.7384
 -14499953.27047 -11295702.91846  21576432.3984                   21576427.9804
  -4828124.30548  -3750676.18446  21376086.4384                   21376084.8364
 -17336075.85548 -14790144.74246  20678178.2814                   20678176.0274
  -7417393.05147  -5696847.58644  23015138.5164                   23015136.5554
 -15679217.97348 -12670831.03546  21981545.4304                   21981543.8674
 -11773968.32447  -9171412.16044  22737630.4144                   22737628.7934
 11  7 22 19 28  0.0000000  0  8G03G19G13G07G28G23G08G11
   6579792.28147   5135855.61343  23443535.3984                   23443533.9734
 -14438166.96947 -11247557.77046  21588190.4224                   21588186.2344
  -4741166.96948  -3682917.26245  21392633.9844                   21392632.2384
 -17365919.48448 -14813399.50846  20672499.8364                   20672496.4774
  -7457677.60947  -5728238.15644  23007472.6094                   23007470.5124
  -3043189.62915                  23378389.156
 -15746864.42247 -12723542.52345  21968671.9454                   21968671.2624
 -11839465.77347  -9222449.08244  22725166.3914                   22725165.1094
 11  7 22 19 28 30.0000000  0  8G03G19G13G07G28G23G08G11
   6688205.39546   5220333.33643  23464164.5704                   23464164.4574
 -14375949.31247 -11199076.50446  21600029.5314                   21600025.3054
  -4653871.02348  -3614894.49646  21409246.2734                   21409244.2154
 -17395562.25448 -14836497.75446  20666858.8364                   20666856.1054
  -7497857.36347  -5759547.03544  22999826.4454                   22999825.0124
                                  23400496.461
 -15814502.93048 -12776247.84045  21955801.3754                   21955800.0824
 -11904770.37947  -9273335.71145  22712739.6884                   22712737.6024
 11  7 22 19 29  0.0000000  0  8G03G19G13G07G28G23G08G11
   6796741.28946   5304906.73843  23484817.2504                   23484816.9884
 -14313302.09847 -11150260.51246  21611951.0704                   21611946.9264
  -4566238.33648  -3546609.33646  21425922.0784                   21425920.0744
 -17425002.26248 -14859438.01646  20661256.2974                   20661253.7624
  -7537932.89147  -5790774.68744  22992200.6884                   22992198.4494
  -3017092.96514                  23422630.789
 -15882131.41448 -12828945.35245  21942932.5234                   21942930.1334
 -11969878.42647  -9324069.19145  22700350.3594                   22700348.5124
 11  7 22 19 29 30.0000000  0  8G03G19G13G07G28G23G08G11
   6905394.23846   5389571.26243  23505494.4384                   23505493.5634
 -14250230.15647 -11101113.57446  21623953.2424                   21623949.7774
  -4478274.80948  -3478066.37945  21442660.4614                   21442658.5394
 -17454240.30948 -14882220.91046  20655692.5084                   20655689.1724
  -7577907.16047  -5821923.43044  22984593.2194                   22984591.8134
                                  23444765.594
 -15949751.16048 -12881636.04745  21930063.8524                   21930063.2344
 -12034789.88347  -9374649.45745  22687998.1094                   22687996.0664
 11  7 22 19 30  0.0000000  0  7G03G19G13G07G28G08G11
   7014173.54347   5474334.26644  23526195.7894                   23526193.7074
 -14186723.52747 -11051627.90246  21636038.5004                   21636034.2624
  -4389970.33248  -3409257.72745  21459464.3674                   21459462.2384
 -17483261.94548 -14904835.18046  20650169.9844                   20650167.3594
  -7617768.68747  -5852984.28944  22977007.8594                   22977005.5554
 -16017348.38748 -12934309.19145  21917200.5864                   21917199.4304
 -12099489.36347  -9425064.55544  22675685.0704                   22675683.7974
 11  7 22 19 30 30.0000000  0  8G03G19G13G07G28G23G08G11
   7123068.11347   5559187.12944  23546917.2344                   23546915.6374
 -14122793.11348 -11001812.00046  21648203.6334                   21648200.6684
  -4301336.28548  -3340192.27345  21476331.0634                   21476328.6524
 -17512074.16048 -14927286.25846  20644686.9844                   20644684.6884
  -7657526.60247  -5883964.44144  22969442.5394                   22969439.6334
  -3100303.54715                  23489073.500
 -16084929.48848 -12986969.78145  21904340.3984                   21904338.4304
 -12163982.37147  -9475318.77744  22663412.4064                   22663410.9264
 11  7 22 19 31  0.0000000  0  8G03G19G13G07G28G23G08G11
   7232086.11346   5644136.16043  23567661.6024                   23567660.6024
 -14058430.18748 -10951659.10246  21660451.7114                   21660447.9804
  -4212364.36348  -3270863.56246  21493262.0314                   21493260.4224
 -17540663.99248 -14949564.03146  20639246.4144                   20639244.2664
  -7697170.77047  -5914855.94544  22961899.1804                   22961896.0314
  -2983822.934 5                  23511240.891
 -16152481.68048 -13039607.83645  21891486.2194                   21891483.5984
 -12228254.65247  -9525401.02044  22651181.4844                   22651179.9964
 11  7 22 19 31 30.0000000  0  8G03G19G13G07G28G23G08G11
   7341232.19146   5729184.94543  23588431.0314                   23588430.6294
 -13993629.82848 -10901165.33246  21672783.1884                   21672779.2504
  -4123050.35948  -3201268.28146  21510258.0634                   21510256.2234
 -17569022.30148 -14971661.39846  20633850.5084                   20633847.4574
  -7736694.77047  -5945653.84844  22954377.2584                   22954375.2544
  -2867287.238 5                  23533413.555
 -16219995.72748 -13092216.17645  21878638.7584                   21878635.7894
 -12292296.21147  -9575303.48044  22638995.2664                   22638992.5864
 11  7 22 19 32  0.0000000  0  8G03G19G13G07G28G23G08G11
   7450507.83247   5814334.70343  23609225.9384                   23609225.7974
 -13928389.91048 -10850329.05546  21685198.0314                   21685193.7464
  -4033392.23048  -3131404.84445  21527319.2664                   21527317.1174
 -17597143.00048 -14993573.63346  20628499.2894                   20628496.1024
  -7776094.84847  -5976355.17644  22946879.4144                   22946877.8164
  -2750694.578 5                  23555602.008
 -16287465.84848 -13144790.27745  21865799.2894                   21865797.1724
 -12356099.64547  -9625020.39144  22626852.8984                   22626851.9614
 11  7 22 19 32 30.0000000  0  8G03G19G13G07G28G23G08G11
   7559914.49247   5899586.57843  23630046.2814                   23630044.5664
 -13862708.60548 -10799148.83246  21697696.7274                   21697692.2734
  -3943388.55948  -3061272.14545  21544446.6484                   21544444.1954
 -17625019.64548 -15015295.69146  20623194.3914                   20623191.5474
  -7815367.39547  -6006957.14544  22939405.8204                   22939404.8674
                                  23577804.234
 -16354885.91048 -13197325.34845  21852969.7034                   21852967.7344
 -12419657.69947  -9674546.09044  22614758.7344                   22614756.7704
 11  7 22 19 33  0.0000000  0  9G03G24G19G13G07G28G23G08G11
   7669452.61347   5984940.90243  23650891.5864                   23650889.9614
  -3235047.82856  -2507353.60553  24133073.4844                   24133075.3014
 -13796585.58248 -10747624.41846  21710279.1484                   21710274.9184
  -3853039.39548  -2990870.24245  21561639.1174                   21561637.4344
 -17652648.06648 -15036824.32446  20617936.7424                   20617933.7344
  -7854510.34047  -6037458.07444  22931957.5944                   22931955.6524
  -2517336.60215                  23600007.695
 -16422251.30548 -13249817.85245  21840150.2814                   21840148.1414
 -12482964.29347  -9723875.84044  22602712.2734                   22602710.6094
 11  7 22 19 33 30.0000000  0  9G03G24G19G13G07G28G23G08G11
   7779111.53146   6070389.32443  23671759.3054                   23671757.6414
  -3308292.82447  -2564427.57843  24119135.7114                   24119137.1254
 -13730030.91847 -10695763.67246  21722944.2344                   21722939.9454
  -3762354.73447  -2920206.90645  21578896.5554                   21578894.4184
 -17680033.79748 -15058163.85546  20612725.5634                   20612722.4804
  -7893532.26647  -6067864.70344  22924532.5784                   22924529.9454
                                  23622224.422
 -16489567.45748 -13302271.97345  21827340.4614                   21827338.3874
 -12546024.33247  -9773013.45744  22590711.9224                   22590710.1334
 11  7 22 19 34  0.0000000  0  9G03G24G19G13G07G28G23G08G11
   7888886.18847   6155927.98443  23692648.0864                   23692646.3674
  -3381581.96147  -2621535.94543  24105189.6094                   24105191.2894
 -13663049.15247 -10643570.12146  21735690.2194                   21735686.2274
  -3671339.91847  -2849286.31245  21596215.5314                   21596214.0984
 -17707177.03948 -15079314.42246  20607560.5004                   20607557.8674
  -7932436.12147  -6098179.38344  22917129.2034                   22917126.5044
                                  23644451.203
 -16556834.83248 -13354688.08646  21814540.2034                   21814538.2774
 -12608836.95347  -9821958.28545  22578758.9454                   22578757.3484
 11  7 22 19 34 30.0000000  0  8G03G24G19G13G07G28G08G11
   7998780.66846   6241559.94543  23713558.5554                   23713558.5474
  -3454905.80547  -2678671.32843  24091236.2344                   24091238.6254
 -13595636.30547 -10591040.64546  21748518.1724                   21748515.2384
  -3579991.51647  -2778105.78145  21613598.8054                   21613596.6334
 -17734069.92248 -15100269.91846  20602442.7584                   20602440.2114
  -7971216.15647  -6128397.55144  22909749.3524                   22909746.4844
 -16624045.66848 -13407060.14545  21801750.3524                   21801748.0314
 -12671393.09447  -9870703.27045  22566855.2974                   22566853.6724
 11  7 22 19 35  0.0000000  0  8G03G24G19G13G07G28G08G11
   8108788.67247   6327280.36743  23734493.8834                   23734492.3674
  -3528264.54747  -2735833.93044  24077275.8134                   24077278.2664
 -13527797.85948 -10538179.56646  21761428.0704                   21761424.4344
  -3488315.33247  -2706669.82845  21631043.6884                   21631042.0634
 -17760713.37948 -15121031.04746  20597372.6884                   20597369.6134
  -8009876.18446  -6158522.23043  22902392.5474                   22902390.2074
 -16691201.29748 -13459389.19945  21788971.1334                   21788969.1414
 -12733692.55147  -9919248.24245  22554999.9064                   22554999.1484
 11  7 22 19 35 30.0000000  0  9G03G24G19G13G07G28G23G08G11
   8218914.69546   6413092.88843  23755449.6724                   23755448.1994
  -3601648.18747  -2793015.94944  24063311.1644                   24063313.3284
 -13459529.41848 -10484983.40246  21774419.2894                   21774415.2154
  -3396306.94147  -2634975.03145  21648553.0164                   21648551.2774
 -17787098.84048 -15141591.12946  20592351.6174                   20592348.6724
  -8048409.95346  -6188548.49643  22895059.6644                   22895056.8404
  -3069741.05915                  23711171.258
 -16758292.39148 -13511667.94945  21776204.2194                   21776202.0634
 -12795725.34847  -9967585.44545  22543195.4454                   22543193.4144
 11  7 22 19 36  0.0000000  0  8G03G24G19G13G07G28G08G11
   8329163.69546   6499001.05543  23776427.7424                   23776428.6334
  -3675046.35247  -2850209.24243  24049344.9534                   24049346.3834
 -13390826.12948 -10431448.37546  21787493.0474                   21787488.0904
  -3303961.99247  -2563017.98845  21666125.6024                   21666123.8134
 -17813217.16048 -15161943.05946  20587380.9534                   20587378.7154
  -8086810.84046  -6218471.18743  22887751.3134                   22887749.4144
 -16825310.07448 -13563889.47346  21763450.7114                   21763449.1334
 -12857481.43747 -10015707.00445  22531443.4694                   22531442.0704
 11  7 22 19 36 30.0000000  0  9G03G24G19G13G07G28G23G08G11
   8439533.00846   6585003.03543  23797431.4844                   23797430.9414
  -3748455.92247  -2907411.43043  24035375.2114                   24035377.2814
 -13321689.81248 -10377575.93746  21800648.7664                   21800644.3754
  -3211282.75047  -2490800.41845  21683761.7504                   21683760.0904
 -17839065.85548 -15182084.89846  20582462.7344                   20582459.9224
  -8125079.18447  -6248290.62543  22880470.4924                   22880467.1644
                                  23755639.398
 -16892252.06248 -13616052.05146  21750712.1254                   21750710.0664
 -12918957.34847 -10063610.24645  22519744.7424                   22519743.9264
 11  7 22 19 37  0.0000000  0  8G03G24G19G13G07G28G08G11
   8550019.69946   6671096.53943  23818455.7734                   23818455.2704
  -3821874.33246  -2964620.56243  24021403.2034                   24021405.3444
 -13252123.55548 -10323368.47746  21813886.8914                   21813882.6454
  -3118272.69147  -2418325.09045  21701461.0784                   21701459.0314
 -17864643.53948 -15202015.54746  20577595.3284                   20577591.8524
  -8163216.55546  -6278008.01643  22873211.3984                   22873209.7034
 -16959116.50448 -13668154.17646  21737988.4304                   21737986.6884
 -12980150.74647 -10111293.36745  22508100.0084                   22508098.9774
 11  7 22 19 37 30.0000000  0  9G03G24G19G13G07G28G23G08G11
   8660621.14847   6757279.39143  23839503.7274                   23839502.6954
  -3895298.21546  -3021833.92243  24007431.6024                   24007433.1884
 -13182129.69148 -10268827.84046  21827206.4064                   21827202.4304
  -3024934.32847  -2345593.95745  21719222.7894                   21719221.2384
 -17889948.66048 -15221733.82046  20572779.7734                   20572777.0864
  -8201223.43747  -6307623.72743  22865980.8914                   22865977.2464
                                  23800275.305
 -17025901.63348 -13720194.51245  21725278.9844                   21725277.8404
 -13041058.31247 -10158753.76645  22496510.2584                   22496507.8324
 11  7 22 19 38  0.0000000  0  8G03G24G19G13G07G28G08G11
   8771332.91446   6843548.25443  23860571.5004                   23860570.9964
  -3968726.49246  -3079050.65243  23993458.2974                   23993460.2624
 -13111712.28548 -10213957.15646  21840606.8594                   21840602.9884
  -2931272.14547  -2272610.47745  21737046.0004                   21737044.9574
 -17914980.72348 -15241239.32446  20568016.4304                   20568013.6724
  -8239102.16846  -6337139.57443  22858770.9384                   22858770.1844
 -17092607.17248 -13772172.82446  21712585.7974                   21712584.4104
 -13101678.69547 -10205990.36745  22484974.6094                   22484973.0664
 11  7 22 19 38 30.0000000  0  9G03G24G19G13G07G28G23G08G11
   8882161.26647   6929907.87943  23881663.1724                   23881660.8674
  -4042147.19546  -3136261.52043  23979486.6174                   23979489.1844
 -13040865.10548 -10158751.57446  21854088.7894                   21854085.0394
  -2837280.33247  -2199370.13745  21754932.5554                   21754930.7704
 -17939729.09848 -15260523.75046  20563306.9614                   20563304.0664
  -8276844.79746  -6366549.34043  22851590.7664                   22851587.3794
  -3066241.34415                  23844862.172
 -17159222.46548 -13824080.81245  21699909.0784                   21699907.0744
 -13162000.51247 -10252994.30945  22473495.6564                   22473492.9104
 11  7 22 19 39  0.0000000  0  8G03G24G19G13G07G28G08G11
   8993102.04346   7016355.19543  23902772.7424                   23902772.3134
  -4115558.50046  -3193465.10943  23965517.6094                   23965518.9694
 -12969592.24648 -10103214.29346  21867651.5864                   21867647.3524
  -2742962.85247  -2125876.04745  21772880.3834                   21772878.7544
 -17964192.96548 -15279586.50446  20558651.5704                   20558648.8794
  -8314453.06647  -6395854.48443  22844433.0164                   22844431.0704
 -17225746.73048 -13875917.89145  21687249.9694                   21687249.1414
 -13222021.65247 -10299763.95345  22462073.3054                   22462071.2384
 11  7 22 19 39 30.0000000  0  9G03G24G19G13G07G28G23G08G11
   9104154.83646   7102889.73043  23923906.6414                   23923905.4454
  -4188955.60946  -3250657.53143  23951549.8914                   23951551.1644
 -12897894.19548 -10047345.69146  21881295.3054                   21881291.1094
  -2648320.69948  -2052128.96945  21790890.0944                   21790888.3874
 -17988368.99648 -15298424.94546  20554050.9384                   20554048.1334
  -8351926.28546  -6425054.34443  22837301.4144                   22837299.6174
  -3080468.50415                  23889432.258
 -17292175.95348 -13927680.89846  21674609.1174                   21674607.7504
 -13281737.60947 -10346295.80145  22450709.8284                   22450707.4184
 11  7 22 19 40  0.0000000  0  7G24G19G13G07G28G08G11
  -4262333.76247  -3307835.25443  23937587.4384                   23937588.7664
 -12825771.23448  -9991145.98846  21895019.6804                   21895015.7544
  -2553355.46947  -1978130.10945  21808961.2584                   21808959.9064
 -18012253.45348 -15317036.21546  20549505.9924                   20549502.8914
  -8389263.03546  -6454147.85243  22830196.9774                   22830194.2584
 -17358506.73448 -13979367.20346  21661987.1094                   21661985.3954
 -13341143.38347 -10392585.95345  22439405.4614                   22439403.1294
 11  7 22 19 40 30.0000000  0  7G24G19G13G07G28G08G11
  -4335688.01246  -3364994.30943  23923627.6414                   23923630.7384
 -12753224.41448  -9934616.02045  21908824.6414                   21908819.8834
  -2458067.26247  -1903879.62145  21827094.4144                   21827092.4144
 -18035842.35948 -15335417.17646  20545016.9844                   20545014.5004
  -8426462.41046  -6483134.37144  22823118.0474                   22823115.3364
 -17424735.04748 -14030973.67246  21649383.9614                   21649382.3674
 -13400234.34047 -10438630.78145  22428160.6484                   22428158.9494
 11  7 22 19 41  0.0000000  0  7G24G19G13G07G28G08G11
  -4409003.29747  -3422123.12143  23909677.5234                   23909679.1994
 -12680244.16848  -9877748.32045  21922712.1884                   21922707.8714
  -2362447.32847  -1829370.64145  21845290.1804                   21845288.0554
 -18059121.98448 -15353557.12946  20540587.5234                   20540584.3484
  -8463513.11347  -6512005.03544  22816067.7894                   22816064.5904
 -17490847.08247 -14082489.50846  21636802.9304                   21636801.2424
 -13458995.62547 -10484418.75445  22416978.9614                   22416977.4654
 11  7 22 19 41 30.0000000  0  7G24G19G13G07G28G08G11
  -4482278.68747  -3479220.75443  23895733.5554                   23895734.8444
 -12606835.06648  -9820546.43746  21936682.2974                   21936676.4534
  -2266500.56647  -1754606.97345  21863548.1024                   21863546.0904
 -18082092.20348 -15371456.01246  20536216.5084                   20536213.4884
  -8500417.62547  -6540761.75444  22809045.2814                   22809043.1604
 -17556842.40248 -14133914.42246  21624244.8204                   21624242.8094
 -13517426.41047 -10529949.17645  22405859.9614                   22405858.3794
 11  7 22 19 42  0.0000000  0  7G24G19G13G07G28G08G11
  -4555498.70347  -3536275.26243  23881799.7734                   23881800.3364
 -12532987.16048  -9763002.64146  21950735.1334                   21950730.1804
  -2170217.30547  -1679581.08645  21881870.1804                   21881868.7074
 -18104739.24648 -15389103.04346  20531906.5944                   20531903.8014
  -8537164.72347  -6569395.80944  22802052.0164                   22802050.3874
 -17622707.14548 -14185237.57046  21611711.0314                   21611709.0204
 -13575511.21147 -10575210.01645  22394807.1884                   22394805.4574
 11  7 22 19 42 30.0000000  0  7G24G19G13G07G28G08G11
  -4628668.58247  -3593290.69943  23867875.6254                   23867877.2034
 -12458711.43748  -9705125.49646  21964869.0944                   21964864.9774
  -2073609.05147  -1604301.97345  21900253.8204                   21900252.9264
 -18127069.62948 -15406503.33246  20527656.8364                   20527654.2194
  -8573763.48047  -6597914.30144  22795087.0004                   22795086.0594
 -17688447.25448 -14236463.61746  21599201.1484                   21599199.0354
 -13633255.46547 -10620205.50445  22383818.2034                   22383815.5124
 11  7 22 19 43  0.0000000  0  7G24G19G13G07G28G08G11
  -4701791.91447  -3650269.83643  23853960.3674                   23853961.5274
 -12384017.22748  -9646922.23845  21979082.6644                   21979077.8364
  -1976685.04347  -1528776.80145  21918697.9534                   21918696.6844
 -18149087.88748 -15423660.41446  20523467.0784                   20523464.5204
  -8610220.90247  -6626322.65645  22788149.5634                   22788148.5004
 -17754067.10548 -14287595.95346  21586713.5864                   21586712.3094
 -13690663.04747 -10664938.62945  22372893.3754                   22372890.9694
 11  7 22 19 43 30.0000000  0  7G24G19G13G07G28G08G11
  -4774871.76647  -3707215.08243  23840053.7894                   23840054.2304
 -12308912.95348  -9588399.43446  21993374.6724                   21993370.6054
  -1879454.51247  -1453012.79345  21937200.3134                   21937199.5314
 -18170798.27748 -15440577.60246  20519336.1174                   20519332.8204
  -8646544.10547  -6654626.42645  22781237.7504                   22781235.1414
 -17819571.18448 -14338638.06246  21574249.1094                   21574247.4884
 -13747736.95347 -10709411.74645  22362032.3284                   22362029.9964
 11  7 22 19 44  0.0000000  0  7G24G19G13G07G28G08G11
  -4847906.17647  -3764124.92243  23826155.2344                   23826155.4384
 -12233402.45348  -9529560.09846  22007743.6644                   22007739.5394
  -1781921.36347  -1377012.98045  21955760.7194                   21955759.8204
 -18192200.19548 -15457254.41846  20515263.3834                   20515260.5594
  -8682735.18747  -6682827.26245  22774351.6644                   22774347.8164
 -17884958.52747 -14389589.22746  21561806.3834                   21561804.5664
 -13804475.32447 -10753623.42245  22351236.4534                   22351233.1884
 11  7 22 19 44 30.0000000  0  7G24G19G13G07G28G08G11
  -4920901.15246  -3821003.99643  23812264.7584                   23812266.0944
 -12157497.94948  -9470413.76246  22022188.0864                   22022184.1564
  -1684097.89147  -1300786.91445  21974375.9534                   21974374.8834
 -18213300.86748 -15473696.50446  20511248.1724                   20511245.0004
  -8718804.07447  -6710932.84445  22767487.2194                   22767484.0664
 -17950235.92248 -14440454.69946  21549384.1644                   21549382.2114
 -13860885.03147 -10797579.01245  22340501.5864                   22340498.7074
 11  7 22 19 45  0.0000000  0  7G24G19G13G07G28G08G11
  -4993854.03946  -3877850.34843  23798382.3594                   23798384.3164
 -12081201.73048  -9410962.18445  22036706.6024                   22036701.8714
  -1585987.10248  -1224336.98845  21993045.9614                   21993044.5314
 -18234098.75048 -15489902.63746  20507289.9534                   20507287.2814
  -8754751.57047  -6738943.82045  22760647.3834                   22760644.6174
 -18015402.10948 -14491233.52746  21536983.5784                   21536981.8794
 -13916963.31647 -10841276.34445  22329830.1804                   22329828.5084
 11  7 22 19 45 30.0000000  0  7G24G19G13G07G28G08G11
  -5066763.45346  -3934662.79743  23784507.5784                   23784510.1254
 -12004518.42248  -9351208.96145  22051298.3524                   22051294.5634
  -1487593.61747  -1147666.79345  22011770.0474                   22011767.5474
 -18254593.92248 -15505872.89846  20503390.1484                   20503387.3794
  -8790580.08647  -6766862.13745  22753827.6724                   22753827.0274
 -18080456.73448 -14541925.43046  21524604.0234                   21524601.7814
 -13972709.07047 -10884714.55545  22319222.6094                   22319220.5044
 11  7 22 19 46  0.0000000  0  7G24G19G13G07G28G08G11
  -5139623.77346  -3991436.93043  23770641.7194                   23770644.9064
 -11927448.23048  -9291154.27046  22065964.4614                   22065961.3754
  -1388917.97747  -1070776.77045  22030546.7504                   22030544.6994
 -18274782.16448 -15521604.00446  20499548.8914                   20499545.8094
  -8826288.37947  -6794686.73045  22747033.2734                   22747032.0554
 -18145394.74648 -14592526.47746  21512247.2114                   21512244.6564
 -14028116.94947 -10927889.48845  22308678.0554                   22308676.5274
 11  7 22 19 46 30.0000000  0  7G24G19G13G07G28G08G11
  -5212439.12146  -4048176.06244  23756787.6724                   23756789.5164
 -11850000.78548  -9230805.63745  22080702.3914                   22080699.8094
  -1289970.24647   -993674.68445  22049375.6804                   22049374.1454
 -18294668.57048 -15537099.90246  20495763.9224                   20495761.7344
  -8861884.05147  -6822423.55545  22740260.5004                   22740258.2274
 -18210221.17248 -14643040.55546  21499910.8204                   21499908.5044
 -14083191.11347 -10970804.38745  22298197.3594                   22298195.7774
 11  7 22 19 47  0.0000000  0  7G24G19G13G07G28G08G11
  -5285209.48846  -4104880.17643  23742938.8134                   23742940.9804
 -11772182.18047  -9170167.78545  22095510.4064                   22095507.1454
  -1190756.69547   -916365.46945  22068255.5314                   22068254.2814
 -18314254.46948 -15552361.63346  20492037.3134                   20492034.2424
  -8897371.27347  -6850075.90245  22733506.9774                   22733505.1454
 -18274937.18748 -14693468.60546  21487595.3054                   21487593.6414
 -14137932.01247 -11013459.59045  22287780.6884                   22287779.2384
